GEFSSE_con_cape1000_000.txt.gz
Probability
0 0 94 55 84 100 100 100 100 100 100 100 100 100 97 81 68 81 94 90 94 97 97 97 87 100 97 94 94 94 100 100 100 100 100 100 100 100 100 100 100 74 100
0 0 90 90 100 100 100 100 100 100 100 100 100 100 97 90 84 77 77 84 90 90 97 100 100 90 100 100 94 94 100 100 100 100 100 100 100 100 100 100 100 100 100
0 0 0 100 100 100 100 100 100 100 100 100 100 100 94 94 94 90 74 61 81 77 81 94 100 100 100 100 100 100 100 100 100 100 100 100 100 100 100 100 100 100 100
16 3 0 100 100 100 100 100 100 100 100 100 100 100 100 100 100 100 94 74 65 42 42 48 90 100 100 100 100 100 100 100 100 100 100 42 100 100 100 100 100 100 100
65 13 19 100 100 100 100 100 100 100 100 100 100 100 100 100 100 97 90 71 71 74 68 90 97 97 100 100 100 100 100 100 100 100 6 0 32 100 100 100 100 100 100
90 26 100 100 100 100 100 100 100 100 100 100 100 100 100 100 100 97 94 87 87 87 94 97 100 97 94 94 100 100 100 100 100 74 19 94 97 100 100 100 100 100 100
90 71 100 100 100 100 100 100 100 100 100 100 100 100 100 100 100 100 97 94 84 84 100 100 94 94 97 97 97 100 100 100 100 100 100 97 100 100 100 100 100 100 100
94 87 100 100 100 100 100 100 100 100 100 100 100 100 100 100 100 94 97 100 100 100 84 84 84 84 84 97 100 100 100 100 94 13 19 81 100 100 100 100 100 100 100
90 90 77 97 100 100 100 100 100 100 100 100 100 100 100 100 100 100 100 100 100 100 100 100 94 90 100 100 100 100 100 100 71 90 84 26 100 100 100 100 100 100 100
84 81 71 29 71 100 100 100 100 100 100 100 100 100 100 100 100 100 100 100 100 100 100 100 100 100 100 100 100 100 100 100 26 0 29 94 100 100 100 100 100 100 100
58 87 61 3 10 16 19 100 100 100 100 100 100 100 100 100 100 100 100 100 100 100 100 100 100 100 100 100 100 100 100 74 3 0 0 97 100 100 94 100 100 100 100
39 90 97 61 42 13 0 10 68 45 77 100 100 100 100 100 100 100 100 100 100 100 100 100 100 100 100 84 100 100 100 10 29 58 58 100 100 100 90 100 100 100 100
45 81 97 100 100 97 52 29 74 77 100 100 100 97 100 100 100 100 100 100 100 100 100 100 100 100 39 74 74 97 100 94 97 100 100 100 100 100 100 100 100 100 100
94 90 97 100 100 100 97 94 97 100 100 100 100 100 100 100 100 97 77 10 68 97 97 97 94 84 71 97 97 97 97 100 100 94 100 100 100 100 100 100 100 100 100
100 94 87 90 97 100 100 100 100 100 100 100 100 100 100 97 97 81 87 94 100 97 97 94 94 84 100 100 100 100 97 81 94 100 100 100 100 100 100 100 100 100 100
87 94 94 100 100 100 100 100 100 100 100 100 100 100 100 100 97 81 77 97 100 94 94 97 97 100 100 100 100 100 100 97 97 100 100 100 100 100 100 100 100 100 100
94 100 100 100 100 100 100 100 100 100 100 100 100 97 100 100 100 100 100 97 100 100 100 100 100 100 97 100 100 97 97 100 100 100 100 100 100 100 100 100 100 100 100
100 100 100 100 100 100 100 100 100 100 97 97 97 97 100 100 100 100 100 97 100 100 100 100 100 94 97 100 100 100 87 100 97 100 100 100 100 100 100 100 100 100 100
97 97 87 68 81 97 97 100 100 100 97 74 42 84 90 87 87 100 100 100 100 100 100 100 97 100 100 97 87 55 52 68 68 87 90 55 90 100 100 100 100 100 100
68 48 39 39 48 61 74 97 97 94 94 84 71 84 77 65 35 32 48 77 100 100 100 100 100 100 100 97 45 29 45 35 23 19 3 0 0 0 0 87 100 100 100
13 13 3 6 26 35 74 97 97 94 84 81 81 71 45 3 0 0 13 16 65 84 100 97 90 84 77 29 19 3 0 0 0 0 0 0 0 0 0 0 90 100 100
6 3 0 0 10 16 77 97 90 68 55 58 55 52 6 0 0 3 6 13 19 19 55 77 58 61 61 19 0 0 0 0 0 0 0 0 0 0 0 0 68 100 100
0 3 6 6 3 6 16 45 42 10 0 0 3 0 0 0 0 0 10 3 3 3 23 16 16 13 0 0 0 0 0 0 0 0 0 0 0 0 0 3 45 100 100
0 0 10 13 10 3 6 10 6 3 3 0 0 3 0 0 0 0 0 0 0 0 0 0 0 0 0 0 0 0 0 0 23 0 0 0 0 0 0 0 3 16 6
0 6 42 55 55 23 3 3 0 0 0 0 0 0 0 0 0 0 0 0 0 0 0 0 0 0 0 0 0 0 0 0 0 0 0 0 0 0 0 0 0 0 0
0 3 3 6 16 23 6 3 6 10 0 0 0 0 0 0 0 0 0 0 0 0 0 0 0 0 0 0 0 0 0 0 0 0 0 0 0 0 0 0 0 0 0

GEFSSE_con_cape1000_006.txt.gz
Probability
0 0 100 100 100 100 100 97 100 81 58 71 90 90 74 94 97 100 100 100 100 100 100 100 100 100 100 90 94 97 97 100 100 100 100 100 94 77 90 97 100 65 100
0 0 100 100 100 100 100 97 100 97 84 87 94 97 81 84 84 77 84 84 90 90 94 97 100 100 94 32 32 74 94 97 94 52 68 87 61 45 87 100 100 77 87
0 0 97 100 100 100 100 100 100 100 97 94 94 100 97 74 29 6 13 39 35 19 32 48 52 55 58 26 10 10 39 61 71 81 97 87 32 65 58 94 100 100 90
0 0 32 100 100 100 100 100 100 100 100 100 100 100 97 68 13 3 6 3 10 6 10 19 32 39 42 29 29 13 0 13 48 100 100 100 26 77 68 58 94 94 58
0 0 97 100 100 100 100 100 100 100 100 100 100 100 100 94 84 29 13 3 0 0 0 3 16 13 29 68 45 48 32 19 23 35 29 68 68 94 94 61 55 87 77
0 3 97 100 100 100 100 100 100 100 100 100 100 100 100 97 87 55 35 10 0 0 3 6 29 32 16 39 87 90 87 90 90 16 13 3 19 100 97 90 97 97 97
6 26 42 100 100 100 100 100 100 100 100 100 100 100 100 100 97 71 45 32 23 13 19 68 65 42 32 19 39 74 90 97 100 100 100 48 74 100 100 100 100 100 100
39 42 29 100 100 100 100 100 100 100 100 100 100 100 100 100 100 97 84 68 55 42 42 87 58 39 32 52 68 97 100 100 77 52 90 94 100 100 100 100 100 100 100
55 74 35 100 100 100 100 100 100 100 100 100 100 100 100 97 100 97 94 90 100 100 97 81 71 58 71 100 100 100 100 100 100 13 6 97 100 100 100 100 100 100 100
77 81 55 77 100 100 100 100 100 100 100 100 100 100 100 100 100 100 100 100 100 100 100 100 100 100 100 100 100 100 100 100 100 0 0 77 100 100 100 100 100 100 100
100 97 26 45 100 97 97 100 100 100 100 100 100 100 100 100 100 100 100 100 100 100 100 100 100 100 100 100 100 100 100 100 23 3 10 90 100 100 100 100 100 100 100
100 94 55 45 97 68 23 97 97 94 100 100 100 100 100 100 100 100 100 100 100 100 100 100 100 100 100 97 100 100 84 94 94 32 81 100 100 100 100 100 100 100 100
100 100 55 58 100 32 74 100 87 58 97 100 97 100 100 100 100 100 100 100 100 100 100 100 100 100 100 100 100 97 58 74 100 97 100 100 100 100 100 100 100 100 100
100 100 90 71 100 100 87 90 100 68 90 90 100 100 100 100 100 100 100 100 100 100 100 100 100 100 100 100 100 100 97 94 100 100 100 100 100 100 100 100 100 100 100
100 100 100 100 100 100 100 100 100 100 100 100 100 100 100 100 100 100 100 100 100 100 100 100 100 100 100 100 100 100 100 100 94 94 100 100 100 100 100 100 100 100 100
100 100 100 100 100 100 100 100 100 100 100 100 100 100 100 100 100 100 100 100 100 100 100 100 100 100 100 100 100 100 100 100 100 100 100 100 100 100 100 100 100 100 100
100 100 100 100 100 100 100 100 100 100 100 100 100 100 100 100 100 100 100 100 100 100 100 100 100 100 100 100 100 100 100 100 100 100 100 100 100 100 100 100 100 100 100
100 100 100 100 100 100 100 100 100 100 100 100 100 100 100 100 100 100 100 100 100 100 100 100 100 100 100 100 100 100 100 100 100 100 100 100 100 100 100 100 100 100 100
100 100 100 100 100 100 100 100 100 100 100 100 100 100 100 100 100 100 100 100 100 100 100 100 100 100 100 97 94 94 87 90 77 90 97 97 100 100 100 100 100 100 100
100 100 100 100 100 97 97 100 100 100 100 100 100 100 100 100 100 100 100 100 100 100 100 100 100 100 100 94 65 16 77 71 90 77 87 77 74 90 97 100 100 100 100
100 100 100 100 94 90 87 84 87 100 100 100 100 100 100 100 97 94 90 94 97 94 90 94 97 100 97 90 90 55 23 19 26 58 84 87 74 74 90 94 87 94 100
97 100 100 100 97 94 90 97 90 94 94 97 97 97 94 94 97 84 84 74 71 81 90 94 100 94 87 74 52 16 10 3 16 0 39 74 65 61 74 55 74 97 97
77 71 52 77 87 94 97 81 77 87 90 81 87 94 94 94 90 71 65 55 48 58 65 90 94 77 65 52 16 0 0 0 0 10 61 65 81 81 65 19 55 87 97
6 3 19 65 100 100 100 94 84 77 61 81 87 84 97 94 84 71 45 32 35 23 45 58 55 42 29 10 10 0 0 0 0 0 0 29 39 23 32 16 16 32 71
0 0 0 16 61 94 100 100 100 90 71 52 74 81 87 74 65 45 29 26 23 13 23 19 10 13 6 0 0 0 0 3 0 0 0 0 0 3 35 35 48 16 16
0 0 0 6 42 97 100 97 97 94 94 77 77 71 71 65 45 29 16 10 6 10 6 6 0 0 0 0 0 0 0 3 0 0 0 0 0 3 26 48 48 26 0

GEFSSE_con_cape1000_012.txt.gz
Probability
0 94 100 100 100 100 100 74 39 65 81 81 97 100 100 100 100 100 100 100 100 100 100 100 94 94 97 100 100 100 100 100 100 100 100 100 97 100 100 100 100 97 100
3 94 100 100 100 100 100 77 55 90 87 87 97 100 100 100 100 100 100 100 100 100 100 100 97 74 81 84 100 97 97 97 100 100 97 77 97 100 100 100 90 90 100
10 97 100 100 100 100 100 94 84 94 100 97 97 97 97 94 94 90 97 97 97 84 71 81 74 32 13 3 6 42 55 61 61 61 26 0 68 100 100 100 90 94 100
39 100 100 100 100 100 100 100 94 97 100 100 97 97 90 84 74 71 81 84 68 61 48 39 32 26 13 6 0 0 0 0 26 55 77 68 19 90 100 100 100 90 81
45 97 100 100 100 100 100 100 100 100 100 100 100 97 87 71 35 32 32 39 29 23 13 16 16 19 32 26 19 10 6 0 6 16 16 3 0 81 100 100 100 97 77
42 100 100 100 100 100 100 100 100 100 100 100 100 100 97 90 71 52 32 23 23 19 23 32 32 23 32 58 74 74 71 48 52 32 19 0 0 74 100 100 100 100 100
52 100 100 100 100 100 100 100 100 100 100 100 100 100 100 100 97 71 68 48 45 35 32 42 77 77 58 45 61 97 100 100 97 61 32 10 0 90 97 100 97 97 97
29 100 100 100 100 100 100 100 100 100 100 100 100 100 100 100 100 94 81 65 61 61 68 90 100 97 97 90 84 100 100 100 71 58 26 3 0 48 97 97 100 100 100
3 94 100 100 100 100 100 100 100 100 100 100 100 100 100 100 100 100 100 100 90 87 87 94 100 97 100 100 100 100 100 100 100 68 39 0 3 94 100 97 97 100 100
0 55 100 100 100 100 100 100 100 100 100 100 100 100 100 100 100 100 100 100 100 100 100 100 100 100 100 100 100 100 100 100 100 90 58 10 55 100 100 100 100 100 100
0 0 71 87 87 100 100 100 100 100 100 100 100 100 100 97 97 100 100 100 100 100 100 100 100 100 100 100 100 100 100 100 81 65 23 26 97 100 100 100 100 100 100
0 0 29 39 52 65 100 100 100 100 100 100 100 100 100 94 52 94 100 100 100 100 100 100 100 100 100 100 100 100 100 100 71 45 10 87 100 100 100 100 100 100 100
10 0 3 26 32 39 48 52 87 94 84 94 94 84 65 55 42 87 71 90 100 100 100 100 100 100 100 97 77 48 35 26 13 6 0 100 100 100 100 100 100 100 100
39 10 0 39 19 16 0 13 55 48 52 77 71 48 35 35 45 45 52 55 81 94 100 87 94 94 90 74 29 16 6 0 0 0 0 100 100 100 100 100 100 100 100
65 32 10 77 45 19 0 3 23 13 16 48 35 23 32 52 71 81 84 65 84 87 71 77 81 84 74 68 35 19 13 19 3 0 0 100 100 100 100 100 100 100 100
87 55 19 65 48 6 16 23 23 26 23 19 26 19 16 42 68 84 84 55 68 71 65 65 65 61 61 45 29 19 19 10 6 0 0 32 100 100 100 100 100 100 100
87 87 68 58 52 29 39 52 74 94 84 77 58 48 61 65 77 87 87 87 90 68 32 32 35 19 32 13 13 16 3 6 10 10 6 10 68 100 100 100 100 100 100
87 87 97 94 90 77 84 81 87 94 100 100 94 94 97 100 100 100 97 100 100 71 48 29 23 29 16 10 3 0 0 3 6 10 26 42 32 87 100 100 100 100 100
100 100 97 87 87 84 81 74 74 81 81 90 94 94 100 100 100 97 100 97 94 74 71 58 23 6 10 3 0 0 0 0 0 3 6 16 23 32 26 65 100 100 100
100 100 94 77 39 23 35 39 39 35 45 55 65 74 90 97 100 100 94 94 90 94 74 61 29 13 6 6 3 0 0 0 0 0 0 0 0 0 3 6 29 84 100
100 100 97 87 68 42 29 6 0 6 10 13 19 45 55 65 81 87 81 74 74 77 71 58 32 13 3 3 0 0 0 0 0 0 0 0 0 0 0 0 3 3 19
94 90 81 71 65 42 23 13 10 10 10 13 13 23 23 42 48 61 74 65 58 58 61 58 19 3 3 0 0 0 0 0 0 0 0 0 0 0 0 0 0 0 0
65 71 77 68 65 55 39 16 6 3 0 3 3 3 10 13 19 35 52 48 45 35 39 19 13 13 0 0 0 0 0 0 0 0 0 0 0 0 0 0 0 0 0
32 16 16 19 29 26 16 6 0 0 0 0 0 3 3 0 3 13 16 35 29 19 10 10 10 0 0 0 0 0 0 0 0 0 0 0 0 0 0 0 0 0 0
13 6 0 6 3 3 6 0 0 0 0 0 0 0 3 0 0 0 3 0 3 10 6 6 0 0 0 0 0 0 0 0 0 0 0 0 0 0 0 0 0 0 0
3 0 0 0 0 3 3 3 0 0 0 0 0 0 0 0 0 0 0 0 0 0 0 0 0 0 0 0 0 0 0 0 0 0 0 0 0 0 0 0 0 0 0

GEFSSE_con_cape1000_018.txt.gz
Probability
0 90 100 97 81 58 65 84 97 100 100 100 100 100 100 100 100 100 90 84 77 42 39 77 100 100 100 100 100 100 100 100 100 100 100 100 100 100 100 97 94 90 100
0 97 100 97 81 58 52 84 90 97 100 100 100 100 100 100 100 100 97 94 81 26 10 19 58 94 100 100 100 100 100 100 100 100 97 100 100 100 100 97 97 100 100
10 97 97 97 90 71 58 77 87 97 100 100 100 100 100 100 100 97 97 100 97 77 35 23 3 13 45 68 87 90 94 97 97 90 84 84 100 100 100 94 94 100 100
65 90 84 97 94 84 68 71 87 97 100 100 100 100 100 100 100 87 68 77 65 71 77 42 16 10 3 3 13 16 26 29 61 42 23 39 87 100 100 97 97 100 100
74 90 71 94 94 90 77 90 90 97 100 100 100 100 97 90 90 68 55 52 52 42 55 52 42 26 19 10 3 0 3 3 13 16 23 29 16 90 100 100 97 97 100
84 90 77 100 97 97 94 94 97 100 100 100 100 97 97 87 71 42 45 32 26 23 16 19 35 45 45 48 42 23 16 13 6 10 13 13 10 26 100 100 100 100 97
81 87 87 100 100 100 97 97 97 100 100 100 97 100 100 100 84 65 65 74 68 61 68 77 84 87 81 61 81 94 94 87 77 58 39 32 19 29 100 100 100 100 100
81 84 94 100 100 100 97 97 97 100 100 100 100 100 100 100 100 100 100 97 87 94 100 100 97 100 100 100 100 97 97 100 97 71 81 55 48 90 100 100 100 100 100
90 94 94 100 100 100 100 100 100 100 100 100 100 100 100 100 100 100 100 100 100 100 100 100 100 100 100 100 100 100 100 100 100 97 77 74 32 97 100 100 100 100 100
97 97 97 100 100 100 100 100 100 100 100 100 100 100 100 100 100 100 100 100 100 100 100 100 100 100 100 100 100 100 100 100 100 100 97 87 100 100 100 100 100 100 97
97 100 100 100 100 100 100 100 100 100 100 100 100 100 100 100 100 100 100 100 100 100 100 100 100 100 100 100 100 100 100 100 97 94 90 90 100 100 100 100 100 100 100
68 97 100 97 100 100 100 100 100 100 100 100 100 100 100 100 97 100 100 100 100 100 100 100 100 100 100 100 100 100 100 100 100 100 100 100 100 100 100 100 100 100 100
13 77 97 90 90 100 100 94 100 100 100 100 100 100 100 100 94 100 100 100 100 100 100 100 100 100 100 100 100 100 100 100 100 97 94 100 100 100 100 100 100 100 100
0 16 84 97 90 87 84 71 77 97 97 97 97 100 94 84 74 74 77 81 81 81 90 90 97 100 100 100 100 100 100 100 97 71 61 100 100 100 100 100 100 100 100
0 6 19 90 94 94 81 68 65 90 94 94 90 90 90 90 94 58 58 65 68 71 84 97 100 100 100 100 100 100 100 97 87 74 68 100 100 100 100 100 100 100 100
52 26 23 68 77 77 87 77 71 81 90 81 84 90 84 90 94 71 45 39 68 77 90 100 100 97 97 97 97 97 97 97 97 90 94 97 100 100 100 100 100 100 100
90 77 48 52 48 48 58 58 61 52 58 48 58 55 74 68 71 71 42 52 68 81 84 94 97 100 94 97 97 90 84 90 94 97 87 87 87 97 100 100 100 100 100
94 90 61 90 74 58 52 58 58 61 65 71 68 68 74 74 71 71 71 74 81 84 87 97 94 90 94 87 81 77 71 77 84 81 71 61 68 55 94 100 100 100 100
94 94 90 94 94 90 68 68 65 52 48 48 48 45 61 71 84 84 87 94 97 90 94 94 97 87 81 77 71 68 65 55 65 58 55 55 61 61 58 48 94 97 97
100 100 94 97 97 90 71 42 35 26 23 23 19 16 26 19 45 52 55 71 74 87 94 87 84 77 74 74 45 39 52 52 58 42 42 32 23 19 19 29 45 58 94
97 94 90 87 74 26 23 16 13 16 6 6 6 6 6 3 10 13 19 32 39 55 58 74 74 74 74 55 32 29 23 19 23 26 16 10 6 6 13 16 10 23 45
94 97 71 55 35 16 10 3 0 0 0 0 0 0 0 0 3 10 10 16 23 26 26 45 55 61 48 45 26 6 0 0 0 3 6 6 3 3 3 0 6 6 6
81 77 74 45 26 10 3 0 0 0 0 0 0 0 0 0 0 0 0 0 10 13 19 29 39 48 52 32 19 10 0 0 0 0 0 0 3 3 3 3 0 0 0
68 48 45 35 29 13 0 0 0 0 0 0 0 0 0 0 0 0 0 0 0 3 6 10 16 26 29 32 10 6 0 0 0 0 0 0 0 0 0 0 0 0 0
35 23 19 10 6 3 0 0 0 0 0 0 0 0 0 0 0 0 0 0 0 0 3 6 10 13 16 19 6 3 0 0 0 0 0 0 0 0 0 0 0 0 0
13 3 3 0 0 0 0 0 0 0 0 0 0 0 0 0 0 0 0 0 0 0 0 0 3 3 10 6 3 0 0 0 0 0 0 0 0 0 0 0 0 0 0

GEFSSE_con_cape1000_024.txt.gz
Probability
3 23 58 94 97 100 100 100 100 100 100 100 100 97 97 97 97 94 84 71 74 87 97 100 100 100 100 100 100 100 100 100 100 100 100 97 97 97 90 77 61 94 100
16 45 81 94 97 100 100 100 100 100 100 100 100 100 100 100 94 81 61 29 29 42 74 94 100 100 100 100 100 100 100 100 100 97 94 90 81 87 74 42 65 94 97
32 55 61 94 97 100 100 100 100 100 100 100 100 100 100 97 90 84 52 26 10 3 6 39 48 61 71 94 94 100 100 100 97 81 77 32 35 77 58 55 77 97 90
29 39 58 94 97 97 100 100 100 100 100 100 100 100 97 97 87 71 52 32 19 6 3 0 0 0 6 23 35 55 58 84 74 74 23 0 3 90 84 55 65 87 94
39 71 97 97 97 97 97 100 100 100 100 100 100 97 97 90 77 48 42 42 39 32 26 13 6 6 3 0 0 0 3 13 10 13 3 3 13 100 100 94 77 94 100
48 39 100 100 97 97 97 100 100 100 100 100 100 100 87 84 55 29 29 23 23 26 16 19 13 13 13 6 3 3 0 0 0 0 6 23 39 97 100 100 97 100 100
26 29 97 100 100 100 100 100 100 100 100 100 100 97 97 61 39 19 23 19 13 16 10 13 13 16 29 23 23 26 26 13 3 0 0 6 39 97 87 97 100 100 100
10 16 94 100 100 100 100 100 100 100 100 100 100 100 90 71 68 45 48 35 39 29 35 52 58 77 84 94 87 77 84 71 3 0 0 0 48 90 87 100 100 100 100
3 16 94 87 100 100 100 100 100 100 100 100 100 100 100 97 94 94 97 100 90 84 97 97 97 100 100 100 100 100 100 100 32 3 0 29 100 100 97 100 100 100 100
6 13 94 74 94 90 90 97 100 100 100 100 100 100 100 100 100 100 100 100 100 100 100 100 100 100 100 100 100 100 100 100 19 13 35 90 100 100 100 100 100 100 100
61 58 58 52 97 97 81 94 97 100 100 100 100 100 100 100 100 100 100 100 100 100 100 100 100 100 100 100 100 100 100 94 32 48 68 90 100 100 100 100 100 100 100
94 84 87 81 100 100 87 100 100 100 100 100 100 100 100 100 100 100 84 100 100 100 100 100 100 100 100 100 100 100 100 97 90 90 97 100 100 100 100 100 100 100 100
97 94 90 100 100 100 100 100 100 100 100 100 100 100 100 100 100 100 100 100 100 100 100 100 100 100 94 97 100 100 100 100 100 100 100 100 100 100 100 100 100 100 100
100 97 87 100 100 100 100 100 100 100 100 100 100 100 100 100 100 100 100 100 100 100 100 90 94 74 94 94 100 100 100 100 100 100 100 100 100 100 100 100 100 100 100
100 100 100 100 100 100 100 100 100 100 97 97 100 100 100 100 100 100 100 100 100 97 97 100 97 97 100 100 100 100 100 100 100 100 100 100 100 100 100 100 100 100 100
100 100 100 100 100 100 100 100 100 100 100 100 100 100 100 100 100 100 100 100 97 100 100 100 100 100 100 100 100 100 100 100 100 100 94 100 100 100 100 100 97 100 100
100 100 100 100 100 100 100 100 100 100 100 100 100 100 100 100 100 100 97 97 97 97 97 100 100 100 100 100 100 100 100 100 100 94 90 90 97 100 97 94 97 100 100
100 100 100 100 100 100 100 100 100 100 97 97 94 90 94 90 77 87 71 71 90 94 97 97 100 97 97 97 100 100 100 100 100 100 90 90 90 87 94 94 94 97 97
100 100 100 100 100 100 100 100 100 100 97 87 74 61 45 52 29 35 35 42 48 45 58 61 74 94 97 100 100 100 100 100 100 97 97 94 90 94 90 94 94 94 94
100 100 100 100 100 100 100 100 97 97 77 58 42 45 32 32 16 13 6 16 13 13 29 55 68 87 94 97 90 90 90 90 97 100 97 90 94 90 87 90 94 90 90
100 100 100 100 100 100 100 90 81 42 29 13 19 19 16 13 10 29 10 10 13 3 16 19 32 58 71 74 81 81 81 84 87 94 97 94 97 94 94 90 90 90 87
100 100 100 100 100 100 100 100 97 87 35 19 35 55 32 19 13 10 16 10 3 29 26 29 61 45 26 39 52 52 39 35 81 74 94 94 90 87 87 74 94 94 90
94 97 97 97 100 100 100 100 100 100 90 42 42 42 23 16 6 13 10 6 6 3 0 13 42 48 26 29 39 45 29 19 26 32 81 94 100 97 87 77 77 87 81
97 97 100 100 100 100 100 100 84 84 19 23 48 23 16 6 6 0 0 0 10 6 10 13 10 19 55 32 52 81 68 61 32 19 35 81 97 100 94 71 52 65 71
81 90 97 100 100 100 100 100 97 81 55 19 26 32 29 6 6 0 0 0 6 3 10 23 32 29 26 35 32 45 58 81 81 55 19 32 71 90 94 94 84 77 68
52 61 71 90 100 97 97 94 97 87 81 61 48 35 13 3 0 0 0 0 3 3 16 23 26 26 45 52 65 48 55 55 55 68 58 58 61 74 94 90 81 74 58

GEFSSE_con_cape1000_030.txt.gz
Probability
10 29 100 100 100 100 100 100 100 97 97 94 90 87 90 90 94 94 94 94 97 97 97 94 97 100 100 100 100 97 97 97 97 94 90 81 84 77 71 71 97 71 90
13 39 100 100 100 100 100 100 100 97 97 97 94 90 90 87 94 84 71 77 90 90 94 100 97 94 94 97 97 90 94 81 71 68 65 74 71 68 61 84 100 90 100
13 45 97 100 100 100 100 100 100 100 100 100 100 100 90 84 58 23 16 26 42 55 68 68 61 52 58 61 68 61 61 52 52 68 90 65 45 74 55 74 97 94 87
6 19 77 100 100 100 100 100 100 100 100 100 100 100 94 77 35 19 10 6 6 10 10 10 13 10 6 13 13 23 42 35 45 77 90 90 19 61 48 39 65 71 74
0 26 97 100 100 100 100 100 100 100 100 100 100 97 84 65 48 23 6 0 0 0 3 0 0 0 0 0 3 6 16 16 26 45 68 90 58 87 90 55 35 35 58
19 55 97 100 100 100 100 100 100 100 100 100 100 94 84 61 42 23 13 6 3 0 0 0 3 3 3 0 0 0 3 3 0 0 3 39 71 100 100 90 74 71 74
42 68 87 100 100 100 100 100 100 100 100 100 94 94 77 65 52 42 32 23 26 23 23 19 13 10 19 19 13 16 23 23 3 0 3 42 90 100 100 100 97 97 94
65 52 84 100 100 100 100 100 100 100 100 97 90 84 77 71 65 61 61 55 52 52 58 65 61 74 90 94 94 94 94 90 10 3 6 52 100 100 100 100 100 100 100
68 71 77 100 100 100 100 100 100 100 100 100 97 97 94 87 87 97 97 100 100 100 100 100 100 100 100 100 100 100 100 100 97 19 13 81 100 100 100 100 100 100 100
77 84 77 81 100 100 100 100 100 100 100 100 100 100 100 100 100 100 100 100 100 100 100 100 100 100 100 100 100 100 100 100 100 29 3 81 100 100 100 100 100 100 100
81 97 65 81 100 100 97 100 100 100 100 100 100 100 100 100 100 100 100 100 100 100 100 100 100 100 100 100 100 100 100 100 84 45 26 84 100 100 100 100 100 100 100
87 94 97 100 100 100 90 100 100 100 100 100 100 100 100 100 100 100 100 100 100 100 100 100 100 100 100 100 100 100 100 100 87 52 68 100 100 100 100 100 100 100 100
90 87 81 100 100 100 100 100 100 100 100 100 100 100 100 100 100 100 100 100 100 100 100 100 100 100 100 100 100 100 100 100 97 81 94 100 100 100 100 100 100 100 100
100 90 81 97 100 100 100 100 100 100 100 100 100 100 100 100 100 100 100 100 100 100 100 100 100 100 100 100 100 100 100 100 100 100 100 100 100 100 100 100 100 100 100
100 97 100 100 100 100 100 100 100 100 100 100 100 100 100 100 100 100 100 100 100 100 100 100 100 100 100 100 100 97 97 100 97 100 100 100 100 100 100 100 100 100 100
100 100 100 100 100 100 100 100 100 100 100 100 100 100 100 100 100 100 100 100 97 97 97 97 97 100 100 97 97 97 97 100 100 100 97 97 97 100 100 100 100 100 100
100 100 100 100 100 100 100 100 100 100 100 100 100 100 100 100 100 100 100 97 97 94 94 97 100 100 97 97 97 100 100 100 97 94 87 87 94 97 100 100 100 100 100
100 100 100 100 100 100 100 100 100 100 100 100 100 97 94 90 87 81 84 84 90 81 81 87 94 94 94 97 100 97 97 100 100 97 87 87 94 97 100 100 100 100 100
97 100 100 100 100 100 100 100 100 100 100 97 87 81 84 61 58 58 81 87 77 84 87 52 61 87 77 77 71 84 94 97 97 94 87 90 94 94 100 100 100 100 100
97 97 100 100 100 100 100 100 100 100 100 97 84 84 55 42 39 65 61 71 71 58 77 81 87 87 87 81 45 48 74 77 90 84 90 87 94 97 97 94 97 97 100
94 90 94 97 97 100 100 100 100 100 100 87 84 77 39 26 35 58 58 71 55 52 74 55 58 48 52 68 61 52 52 61 71 84 87 87 87 94 94 87 94 94 94
58 74 84 87 90 97 97 97 100 100 74 71 84 87 61 52 48 26 74 52 52 84 55 77 87 71 45 48 52 35 23 23 65 52 81 87 87 90 90 94 90 90 90
29 42 65 84 87 90 97 100 100 100 100 100 97 97 84 65 42 42 32 45 58 52 42 84 84 77 42 48 45 48 23 10 35 42 65 81 90 90 87 87 87 90 87
16 29 58 71 84 84 94 97 100 100 100 97 94 94 84 55 45 39 32 42 58 71 68 65 52 74 71 39 55 65 42 26 16 13 23 35 68 94 94 94 94 94 94
0 19 32 45 65 77 90 94 97 97 100 100 97 90 90 81 77 52 45 45 52 77 77 74 74 65 52 48 42 45 45 52 39 23 3 19 45 77 87 97 94 94 94
0 3 13 29 42 55 68 77 87 90 94 97 94 94 90 94 94 81 55 71 65 68 77 81 81 71 61 55 55 48 35 35 42 29 23 16 26 68 87 97 97 97 90

GEFSSE_con_cape1000_036.txt.gz
Probability
0 74 100 100 100 100 97 94 84 84 84 90 90 90 90 94 97 97 90 94 97 94 97 100 100 100 100 100 97 97 97 97 97 97 97 97 97 100 100 100 90 97 100
0 81 100 100 100 100 100 97 87 84 87 87 90 94 94 97 97 97 94 97 97 100 100 100 100 100 100 94 94 90 90 94 90 94 94 87 97 100 100 100 84 90 100
6 77 100 100 100 100 100 100 97 90 90 90 97 97 94 97 97 97 97 97 94 100 97 97 97 87 81 77 77 74 77 74 87 87 71 39 71 100 100 100 100 100 97
13 74 94 100 100 100 100 100 100 97 94 100 97 94 90 90 90 90 94 94 94 87 87 87 81 68 68 71 65 58 55 45 61 74 45 16 35 94 100 97 100 100 100
16 58 94 100 100 100 100 100 100 100 97 97 100 94 87 74 65 61 71 71 68 61 58 58 45 42 48 42 39 35 29 23 32 52 13 6 0 84 94 97 97 97 97
13 58 94 100 100 100 100 100 100 100 100 100 100 97 87 81 71 65 55 52 55 35 26 23 23 23 19 19 16 13 13 10 6 3 0 3 0 87 94 94 97 97 97
10 81 97 100 100 100 100 100 100 100 100 100 100 90 87 77 77 77 71 68 68 61 45 35 32 23 16 13 13 16 19 3 0 0 0 0 0 94 97 97 97 97 97
19 77 100 100 100 100 100 100 100 100 100 100 100 97 94 94 90 87 87 87 90 84 87 81 81 74 71 71 65 68 65 48 29 3 3 0 0 87 100 100 100 100 100
23 71 100 100 100 100 100 100 100 100 100 100 100 97 97 94 90 90 94 97 100 100 100 100 100 100 100 100 100 97 97 97 90 26 6 3 19 94 100 100 100 100 100
10 55 94 100 100 100 100 100 100 100 100 100 100 100 100 97 97 97 100 100 100 100 100 100 100 100 100 100 100 100 100 100 97 71 42 16 90 100 100 100 100 100 100
23 29 77 87 87 94 100 100 100 100 100 100 100 100 100 97 94 100 100 100 100 100 100 100 100 100 100 100 100 100 100 100 94 81 61 65 100 100 100 100 100 100 100
19 13 55 77 81 81 97 97 100 100 100 100 100 100 100 90 84 94 100 100 100 100 100 100 100 100 100 100 100 100 100 100 97 81 65 94 100 100 100 100 100 100 100
19 3 19 45 68 74 71 68 94 100 100 100 100 100 97 84 87 97 100 97 100 100 100 100 100 100 100 100 100 100 100 100 100 87 61 97 97 97 100 94 97 100 100
29 13 10 16 35 39 23 42 81 84 90 97 100 100 100 97 97 90 90 87 90 94 94 94 94 94 94 97 97 97 97 94 100 81 55 87 87 81 84 87 90 94 97
42 16 13 13 32 32 32 45 45 65 81 87 94 100 100 97 100 84 68 65 61 81 90 84 81 87 87 90 84 84 87 94 90 94 68 94 87 84 84 90 90 94 94
19 13 19 29 29 42 58 87 84 90 87 90 97 94 97 97 90 71 61 45 42 45 48 58 52 52 42 58 65 71 61 68 81 84 84 87 90 84 77 77 81 90 90
13 16 19 26 45 48 61 81 90 97 94 90 94 97 97 100 87 61 32 23 13 23 23 26 26 13 10 19 26 29 35 42 48 58 65 71 74 77 74 74 77 81 84
16 10 13 23 32 39 48 74 84 84 94 97 94 90 94 90 81 39 23 10 16 23 6 0 6 6 3 0 6 0 3 3 16 29 45 52 58 61 77 81 81 81 84
13 13 6 6 23 39 45 55 71 68 68 71 81 87 77 71 55 29 16 10 3 6 0 0 0 0 0 0 0 0 0 0 0 10 19 32 42 48 61 74 81 81 84
6 10 6 10 13 23 35 48 52 61 61 55 52 55 55 48 35 23 13 6 0 0 0 0 0 0 0 0 0 0 0 0 0 0 0 3 16 32 48 65 68 77 84
3 3 3 3 6 23 32 42 42 42 42 29 32 45 42 16 19 10 3 3 0 0 0 0 0 0 0 0 0 0 0 0 0 0 0 6 13 23 29 58 65 68 74
0 0 0 3 3 10 19 29 29 26 23 13 10 16 16 13 10 6 0 0 0 0 0 0 0 0 0 0 0 0 0 0 0 0 0 0 0 6 19 29 42 55 61
0 0 0 0 0 3 13 19 13 6 3 0 6 6 3 6 3 0 0 0 0 0 0 0 0 0 0 0 0 0 0 0 0 0 0 0 0 0 6 6 23 35 39
0 0 0 0 0 0 3 10 6 10 10 6 10 3 3 0 0 0 0 0 0 0 0 0 0 0 0 0 0 0 0 0 0 0 0 0 0 0 0 3 6 26 29
0 0 0 0 0 0 0 0 0 3 0 3 3 0 3 0 0 0 0 0 0 0 0 0 0 0 0 0 0 0 0 0 0 0 0 0 0 0 0 0 3 6 16
0 0 0 0 0 0 0 0 0 0 0 0 0 0 0 0 0 0 0 0 0 0 0 0 0 0 0 0 0 0 0 0 0 0 0 0 0 0 0 0 0 0 0

GEFSSE_con_cape1000_042.txt.gz
Probability
0 32 100 90 90 81 71 81 94 100 100 100 100 100 100 100 97 97 94 94 100 100 97 97 100 97 100 100 97 100 97 97 100 100 100 100 100 100 100 97 87 74 90
0 42 100 100 90 84 81 87 94 94 100 100 100 100 100 100 97 97 94 97 100 100 97 97 97 94 94 94 97 97 100 100 100 100 100 100 100 100 100 100 94 84 94
0 58 100 100 97 87 84 87 90 94 97 100 100 100 100 100 100 100 100 100 100 97 97 97 90 84 87 84 87 97 97 97 100 97 97 94 100 100 100 100 100 100 97
6 84 94 100 100 97 90 90 94 94 94 97 100 100 100 100 100 100 100 97 97 97 94 94 90 81 71 65 77 87 90 97 94 81 48 74 97 100 100 100 100 100 100
19 90 94 100 100 100 100 94 94 94 94 94 100 100 100 100 100 97 97 97 94 94 90 84 84 71 68 65 61 58 65 71 84 58 19 39 58 97 100 100 100 100 100
58 87 100 100 100 100 100 97 94 94 97 100 100 100 97 94 97 94 90 90 87 87 74 71 61 55 55 61 58 52 48 58 55 29 16 13 10 81 100 100 100 100 100
68 77 100 100 100 100 100 100 97 94 100 100 100 100 97 97 97 97 97 97 90 87 81 77 68 71 68 55 39 35 29 39 19 3 3 0 0 42 94 100 100 100 100
71 90 97 100 100 100 100 100 100 100 100 100 100 100 100 97 97 97 100 97 97 97 97 100 97 94 94 90 84 74 58 39 13 3 0 0 0 32 87 100 100 100 100
81 90 97 100 100 100 100 100 100 100 100 100 100 100 100 100 100 100 100 100 100 100 100 100 100 100 100 100 100 100 100 87 58 29 19 16 3 48 97 100 100 100 100
77 90 100 100 100 100 100 100 100 100 100 100 100 100 100 100 97 100 100 100 100 100 100 100 100 100 100 100 100 100 100 97 97 90 84 68 71 94 100 100 100 100 100
81 87 100 100 100 100 100 100 100 100 100 100 100 100 100 97 100 100 100 100 100 100 100 100 100 100 100 100 100 100 100 100 100 97 87 87 100 100 100 100 100 100 100
68 90 94 97 94 97 100 100 100 100 100 100 100 100 100 97 94 97 97 100 100 100 100 100 100 100 100 100 100 100 100 100 100 100 100 100 100 100 100 100 100 100 100
42 81 94 97 94 94 94 90 94 94 97 97 97 97 97 97 94 97 100 100 100 100 100 100 100 100 100 100 100 100 100 100 100 100 100 100 100 97 97 97 100 100 100
23 48 61 77 74 74 71 61 68 87 87 94 94 94 94 94 97 97 97 94 90 90 87 94 94 94 94 94 94 97 97 97 97 100 97 97 97 97 97 97 100 100 97
13 23 29 39 35 32 39 35 39 58 74 84 84 94 94 87 87 90 94 84 77 84 74 74 84 84 90 90 90 90 87 87 87 87 94 94 97 94 94 94 100 97 90
23 13 19 13 23 23 26 26 19 13 29 42 61 68 87 84 77 74 55 52 35 29 35 48 58 55 52 58 74 61 68 61 61 77 87 87 87 90 94 97 97 94 94
16 10 10 16 16 16 19 16 13 6 13 29 39 45 65 74 74 61 42 29 23 6 10 13 6 10 6 6 19 26 29 42 52 48 61 68 71 74 84 90 97 94 94
6 10 13 13 13 10 6 3 13 10 10 19 32 39 52 58 61 48 29 26 6 3 0 0 0 0 0 0 0 0 0 0 0 0 6 16 42 48 71 81 97 94 87
3 3 10 10 13 6 3 3 3 3 6 23 29 23 39 61 52 32 26 19 3 0 0 0 0 0 0 0 0 0 0 0 0 0 0 0 3 23 32 32 71 81 87
0 0 0 6 3 10 10 10 0 6 3 6 13 23 29 35 42 16 19 3 0 0 0 0 0 0 0 0 0 0 0 0 0 0 0 0 0 0 0 13 39 58 74
0 0 0 0 0 3 3 6 10 6 6 10 6 16 16 19 16 16 10 3 0 0 0 0 0 0 0 0 0 0 0 0 0 0 0 0 0 0 0 0 19 35 48
0 0 0 0 0 0 0 3 6 6 3 3 3 3 10 13 13 19 3 3 0 0 0 0 0 0 0 0 0 0 0 0 0 0 0 0 0 0 0 0 13 23 42
0 0 0 0 0 0 0 0 0 0 0 3 0 0 0 0 0 10 3 3 0 0 0 0 0 0 0 0 0 0 0 0 0 0 0 0 0 0 0 0 0 10 23
0 0 0 0 0 0 0 0 0 0 0 0 0 0 0 0 0 0 0 0 0 0 0 0 0 0 0 0 0 0 0 0 0 0 0 0 0 0 0 0 0 3 13
0 0 0 0 0 0 0 0 0 0 0 0 0 0 0 0 0 0 0 0 0 0 0 0 0 0 0 0 0 0 0 0 0 0 0 0 0 0 0 0 0 0 0
0 0 0 0 0 0 0 0 0 0 0 0 0 0 0 0 0 0 0 0 0 0 0 0 0 0 0 0 0 0 0 0 0 0 0 0 0 0 0 0 0 0 0

GEFSSE_con_cape1000_048.txt.gz
Probability
0 77 97 97 94 94 97 100 100 100 100 100 100 100 100 100 100 100 100 97 100 97 97 100 97 97 100 97 97 100 100 100 100 100 100 97 90 97 97 90 77 71 100
3 87 100 97 94 94 97 100 100 100 100 100 100 100 100 100 100 100 100 100 100 94 97 97 90 97 90 94 97 100 100 100 100 97 97 90 94 97 94 71 81 100 100
26 100 100 97 94 100 100 97 100 100 100 100 100 100 100 100 100 100 100 100 97 90 90 87 87 87 84 84 90 84 97 100 100 100 94 77 71 94 94 74 90 100 97
35 100 100 100 97 100 100 100 100 100 100 100 100 100 100 100 100 100 100 100 94 94 90 74 65 65 65 68 68 77 81 97 97 100 87 58 42 90 97 87 94 94 100
65 97 100 100 100 100 100 100 100 100 100 100 100 100 100 100 100 100 97 97 90 90 77 68 58 52 52 48 65 65 68 81 90 81 39 48 94 100 97 100 97 97 100
81 94 97 100 100 100 100 100 100 100 100 100 100 97 97 100 100 100 97 94 90 90 81 65 65 58 52 52 52 61 71 71 61 16 32 35 77 100 100 97 97 97 97
52 94 100 100 100 100 100 100 100 100 100 100 97 97 97 97 97 94 90 94 90 90 87 81 65 65 65 55 58 58 68 58 74 16 29 26 77 100 100 100 100 100 100
29 81 100 100 100 100 100 100 97 97 97 97 100 100 97 97 97 97 97 97 94 94 87 74 71 77 77 74 74 74 77 68 35 16 29 45 94 87 84 97 100 100 100
23 77 100 100 100 100 100 100 97 97 97 97 97 97 97 97 97 97 100 97 97 97 97 94 94 94 94 97 94 90 90 84 29 26 23 55 100 77 77 100 100 100 100
32 68 100 100 100 100 97 100 97 97 97 97 97 97 100 100 100 100 100 100 100 100 100 100 100 100 100 100 100 100 100 81 13 0 13 52 97 90 94 100 100 100 100
52 87 97 100 100 100 94 100 100 100 100 100 100 100 100 97 61 100 97 100 100 100 100 100 100 100 100 100 100 100 100 68 23 16 23 74 100 97 97 100 100 100 100
100 100 97 100 100 100 90 97 100 100 100 100 97 94 100 97 97 84 81 100 100 100 100 100 100 100 100 100 100 100 97 74 32 39 65 100 97 100 100 100 100 100 100
100 100 100 100 100 100 94 97 97 100 100 100 100 100 100 100 100 97 84 100 100 100 100 100 100 100 100 100 100 100 94 68 74 61 84 100 100 100 100 100 100 100 100
100 100 100 100 100 100 97 97 97 90 94 94 100 97 97 100 100 94 97 87 97 97 97 100 100 100 100 100 100 97 97 97 90 84 100 100 100 100 100 100 100 100 100
100 97 97 100 100 100 100 97 81 74 77 84 87 87 94 97 97 97 100 100 94 74 87 97 94 94 94 90 94 94 90 94 87 81 94 97 97 97 97 100 100 100 100
94 94 94 97 94 90 87 90 87 71 94 77 81 77 84 87 94 94 90 97 97 84 71 87 74 77 84 87 90 90 94 94 94 90 90 90 97 97 97 97 97 97 97
87 87 84 84 84 81 87 84 74 68 65 61 71 81 81 90 94 97 87 94 94 87 97 100 84 77 84 74 74 74 84 87 84 84 84 84 84 87 94 94 97 97 97
71 71 65 52 58 61 74 77 71 61 65 71 71 71 65 71 84 87 87 84 87 84 84 87 77 77 71 55 65 61 68 77 68 71 71 77 74 68 77 84 84 90 87
52 55 55 52 52 61 52 58 58 71 68 71 58 58 52 55 52 74 94 68 74 71 61 55 42 61 48 48 42 55 32 42 42 35 35 32 45 42 39 55 74 77 77
45 45 52 52 58 55 52 68 61 52 58 61 45 45 39 35 35 39 48 45 39 55 61 52 55 65 55 35 10 6 16 13 13 6 6 3 10 6 10 16 35 42 71
29 45 58 58 55 65 61 61 68 71 68 65 39 35 32 39 35 35 35 45 45 39 42 26 48 35 26 23 10 3 0 0 0 0 3 3 0 0 3 3 6 23 32
29 35 32 39 32 35 45 61 55 65 55 35 26 26 19 16 26 16 35 23 32 29 39 52 58 26 16 10 3 3 0 0 0 0 0 0 0 0 0 0 3 16 23
13 19 10 19 19 23 29 19 23 29 35 10 16 23 10 6 13 23 19 26 26 29 35 39 45 29 13 6 0 0 0 0 0 0 0 0 0 0 0 3 3 6 26
3 0 0 10 13 13 10 10 3 6 6 6 10 10 0 0 0 0 3 13 16 23 23 19 23 29 23 16 6 6 0 0 0 0 0 0 0 0 0 0 0 13 23
0 0 0 0 0 0 0 6 10 3 0 0 0 3 3 0 0 0 0 0 3 13 19 29 19 26 26 16 6 0 0 0 0 0 0 0 0 0 0 0 0 10 16
0 0 0 0 0 0 0 0 0 0 3 3 0 0 3 0 0 0 0 0 0 0 3 16 29 32 23 19 19 6 10 0 0 0 0 0 0 0 0 0 0 13 16

GEFSSE_con_cape1000_054.txt.gz
Probability
68 71 100 100 100 100 100 100 100 100 100 100 100 100 100 100 100 97 97 97 97 90 90 97 97 90 94 94 97 100 97 100 100 100 97 97 94 94 100 100 100 94 100
77 77 100 100 100 100 100 100 100 100 100 100 100 100 100 100 100 97 97 97 87 84 94 94 87 81 94 94 94 94 90 94 97 97 94 97 94 90 90 97 100 100 100
77 77 100 100 100 100 100 100 100 100 100 100 100 100 100 100 97 97 97 97 84 87 87 90 87 84 84 84 87 87 90 84 87 94 97 74 74 87 90 100 100 100 100
84 71 94 100 100 100 100 100 100 100 100 100 100 100 100 100 100 97 97 94 90 84 84 81 77 71 68 71 68 74 84 90 90 90 94 84 35 87 90 94 100 100 100
87 90 100 100 100 100 100 100 100 100 100 100 100 100 100 100 100 100 100 94 87 84 77 77 68 61 52 65 61 65 71 87 94 94 100 94 90 97 94 94 94 97 97
97 100 100 100 100 100 100 100 100 100 100 100 100 100 100 100 100 100 97 94 94 90 87 81 65 55 45 48 58 61 68 74 84 90 97 97 94 100 97 94 87 94 100
100 100 100 100 100 100 100 100 100 100 100 100 100 100 100 100 100 100 94 90 94 94 84 77 77 61 55 48 52 61 65 68 77 84 87 100 100 100 100 100 97 94 97
100 100 100 100 100 100 100 100 100 100 100 100 100 100 100 100 100 100 97 90 90 94 94 90 87 84 81 74 74 81 87 87 48 45 74 100 100 100 100 100 100 100 97
97 100 100 100 100 100 100 100 100 100 100 100 100 100 100 100 100 100 100 100 100 100 100 100 97 94 94 94 94 97 97 97 77 32 39 94 100 100 100 100 100 100 100
97 100 100 100 100 100 100 100 100 100 100 100 100 100 100 100 100 100 100 100 100 100 100 100 100 97 100 97 97 97 97 97 65 10 23 87 100 100 100 100 100 100 100
87 100 100 100 100 100 100 100 100 100 100 100 100 100 100 100 100 100 100 100 100 100 100 100 100 100 100 100 100 100 100 84 26 10 16 90 100 100 100 100 100 100 100
84 90 97 100 100 100 100 100 100 100 100 100 100 100 100 100 100 90 100 100 100 100 100 100 100 100 100 100 100 100 94 68 29 10 32 97 100 100 100 100 100 100 100
87 90 90 100 100 97 100 100 100 100 100 100 100 100 100 100 100 94 100 100 100 100 100 100 100 100 100 90 87 90 87 45 29 26 61 97 100 100 100 100 100 100 100
94 87 97 100 100 100 100 100 100 100 97 97 97 97 97 100 100 100 100 100 100 97 97 100 100 100 100 87 87 97 94 68 55 61 74 90 97 94 100 100 100 100 100
100 100 100 100 100 100 100 100 100 100 100 100 100 100 100 100 100 100 100 100 97 84 84 84 87 90 94 84 90 90 87 84 71 65 71 81 84 94 100 100 100 100 100
100 100 100 100 100 100 100 100 100 100 100 100 100 100 100 100 100 97 90 84 77 77 71 77 74 77 87 81 74 71 71 71 77 74 71 81 84 94 97 97 100 100 100
97 97 94 90 94 94 94 94 94 90 90 94 100 97 94 90 97 90 90 81 71 68 68 65 65 71 58 55 58 55 58 61 71 68 61 61 71 90 90 94 97 100 100
90 90 87 87 87 90 94 94 94 90 90 94 97 90 90 87 90 84 81 77 65 58 48 42 39 42 39 45 45 39 52 55 58 61 58 58 65 61 77 84 94 97 97
81 87 87 84 84 84 87 87 90 90 87 90 90 87 90 81 74 74 74 58 45 52 45 26 23 32 26 29 29 29 35 35 32 26 48 45 52 58 61 77 94 97 97
81 81 84 84 87 90 84 84 87 84 84 84 87 84 74 71 61 58 52 48 52 52 48 32 26 29 23 16 10 6 16 19 16 13 19 23 29 35 42 61 74 84 97
68 77 77 74 77 81 81 65 68 68 71 65 61 52 55 55 48 68 42 35 39 42 42 29 32 23 16 10 10 6 6 3 3 10 19 13 16 16 23 35 45 48 35
52 55 58 48 35 45 61 65 58 61 48 45 42 42 35 35 35 13 35 35 35 26 26 19 23 13 10 10 3 0 0 0 6 3 16 13 13 13 19 23 35 58 55
19 26 13 35 26 32 39 29 23 35 23 16 19 19 23 13 10 10 10 16 16 13 19 19 16 13 6 13 10 0 0 0 0 10 3 6 0 0 0 6 13 45 48
10 13 16 16 19 23 26 26 23 10 6 6 13 13 13 10 6 6 6 3 10 13 13 10 10 13 13 3 6 6 6 3 0 0 6 10 0 0 3 3 3 26 39
3 6 6 26 19 19 29 35 26 10 3 3 3 0 10 3 10 6 3 3 0 3 6 13 6 6 6 3 3 3 3 16 10 0 0 0 10 10 6 10 13 23 35
6 6 3 3 13 13 16 16 19 16 13 6 6 0 0 0 0 0 0 6 0 0 0 3 0 3 3 3 3 0 3 3 6 3 0 0 3 10 23 29 29 42 42

GEFSSE_con_cape1000_060.txt.gz
Probability
81 100 100 100 100 100 100 100 100 100 100 100 100 100 100 100 100 100 100 100 100 100 100 100 100 100 97 100 100 100 100 100 100 100 100 100 100 100 100 100 100 94 100
84 100 100 100 100 100 100 100 100 100 100 100 100 100 100 100 100 100 100 100 100 100 100 100 100 100 100 100 100 100 100 100 100 100 100 100 100 100 100 100 97 94 100
84 100 100 100 100 100 100 100 100 100 100 100 100 100 100 100 100 100 100 100 100 100 100 100 100 100 100 97 100 100 100 100 100 100 97 84 100 100 100 100 100 100 100
84 100 100 100 100 100 100 100 100 100 100 100 100 100 100 100 100 100 100 100 97 100 94 94 90 84 87 94 97 97 94 97 100 97 48 74 94 100 100 100 100 100 100
84 97 100 100 100 100 100 100 100 100 100 100 100 100 100 100 100 100 100 100 100 100 97 90 84 81 90 94 90 94 97 97 100 94 52 35 81 100 100 100 100 100 100
90 100 100 100 100 100 100 100 100 100 100 100 100 100 100 100 100 100 100 100 100 100 97 94 94 90 81 81 84 84 87 87 90 68 35 23 74 100 100 100 100 100 100
90 100 100 100 100 100 100 100 100 100 100 100 100 100 100 100 100 100 100 100 100 100 97 100 90 87 84 77 81 84 81 81 65 42 16 16 71 100 100 100 100 100 100
94 100 100 100 100 100 100 100 100 100 100 100 100 100 100 100 100 100 100 100 100 100 100 100 97 87 87 84 84 84 87 87 65 42 26 6 81 100 100 100 100 100 100
97 100 100 100 100 100 100 100 100 100 100 100 100 100 100 100 100 100 100 100 100 100 100 100 100 100 100 97 97 97 97 97 77 32 16 19 94 100 100 100 100 100 100
94 97 100 100 100 100 100 100 100 100 100 100 100 100 100 100 100 100 100 100 100 100 100 100 100 100 100 100 100 100 100 97 84 42 13 29 97 100 100 100 100 100 100
94 97 100 100 100 100 100 100 100 100 100 100 100 100 100 100 100 100 100 100 100 100 100 100 100 100 100 100 100 100 100 90 48 19 10 23 97 100 100 100 100 100 100
97 94 97 100 100 100 100 100 100 100 100 100 100 100 100 100 100 100 100 100 100 100 100 100 100 100 100 100 100 100 97 90 48 29 10 48 100 100 100 100 100 100 100
100 97 100 97 100 100 100 100 100 100 100 100 100 100 100 97 97 97 97 97 97 97 97 97 97 94 94 94 84 87 90 84 58 29 10 58 94 97 97 97 100 97 100
84 84 94 90 87 87 90 94 81 84 87 94 97 97 94 87 87 87 68 68 77 87 81 84 77 81 81 81 74 58 61 68 48 29 16 55 90 97 97 97 90 90 94
84 84 84 87 87 81 77 74 74 77 77 81 81 81 84 87 81 58 39 32 45 48 58 65 61 61 55 58 55 52 42 42 39 32 16 65 87 87 87 90 84 90 90
71 71 71 65 61 65 52 48 61 58 61 61 65 68 71 65 58 42 35 23 19 23 29 32 32 32 35 35 45 42 23 35 32 23 19 39 74 77 81 81 84 87 90
58 65 65 52 45 45 42 42 39 45 48 48 45 45 48 55 35 26 23 26 16 13 10 16 10 6 10 13 19 26 26 23 16 16 23 19 35 58 71 71 77 81 87
55 39 42 55 35 32 26 26 39 26 26 45 45 35 48 39 35 23 19 13 16 16 13 6 3 3 6 3 3 3 6 10 10 10 10 13 13 23 52 65 61 68 74
39 32 29 32 39 29 26 26 23 13 16 13 26 23 29 26 16 13 6 6 6 13 10 3 3 0 0 0 0 0 3 6 6 10 10 10 13 10 13 32 58 65 77
32 26 23 23 16 13 10 13 3 0 0 3 3 16 13 10 10 3 0 0 0 0 0 0 0 0 0 0 0 3 0 3 6 6 6 6 10 6 6 6 16 42 84
29 19 16 10 10 6 10 6 3 0 0 0 0 0 6 6 3 0 0 0 0 0 0 0 0 0 0 0 0 0 0 0 0 3 3 3 6 6 6 6 6 13 29
19 16 19 10 6 3 0 0 0 0 0 0 0 0 0 0 0 0 0 0 0 0 0 0 0 0 0 0 0 0 0 0 0 0 0 0 0 0 3 3 3 6 6
16 6 10 0 3 0 0 0 0 0 0 0 0 0 0 0 0 0 0 0 0 0 0 0 0 0 0 0 0 0 0 0 0 0 0 0 0 0 0 0 3 3 6
6 6 0 0 0 0 0 0 0 0 0 0 0 0 0 0 0 0 0 0 0 0 0 0 0 0 0 0 0 0 0 0 0 0 0 0 0 0 0 0 3 0 0
3 3 0 0 0 0 0 0 0 0 0 0 0 0 0 0 0 0 0 0 0 0 0 0 0 0 0 0 0 0 0 0 0 0 0 0 0 0 0 0 0 0 0
3 0 0 0 0 0 0 0 0 0 0 0 0 0 0 0 0 0 0 0 0 0 0 0 0 0 0 0 0 0 0 0 0 0 0 0 0 0 0 0 0 0 0

GEFSSE_con_cape1000_066.txt.gz
Probability
74 100 100 100 100 100 100 100 100 100 100 100 100 100 100 100 100 100 100 100 100 100 100 94 97 100 100 100 100 100 100 100 100 100 100 100 100 100 100 100 100 84 100
87 100 100 100 100 100 100 100 100 100 100 100 100 100 100 100 100 100 100 100 100 100 97 97 94 94 94 100 100 100 100 100 100 100 100 100 100 100 100 97 94 94 97
100 100 100 100 100 100 100 100 100 100 100 100 100 100 100 100 100 100 100 100 100 100 100 97 97 94 94 94 97 100 100 100 100 100 100 100 100 100 100 100 100 100 100
100 100 100 100 100 100 100 100 100 100 100 100 100 100 100 100 100 100 100 100 100 97 97 94 97 94 84 94 94 100 100 100 100 100 90 100 100 100 100 100 100 100 100
100 100 100 100 100 100 100 100 100 100 100 100 100 100 100 100 100 100 100 100 97 94 94 94 90 87 84 90 94 90 100 100 100 90 77 90 100 100 100 100 100 100 100
100 100 100 100 100 100 100 100 100 100 100 100 100 100 100 100 100 100 100 100 97 94 94 94 81 81 87 90 94 94 94 100 97 58 71 77 100 100 100 100 100 100 100
100 100 100 100 100 100 100 100 100 100 100 100 100 100 100 100 100 100 100 100 100 97 94 94 90 84 87 81 84 87 90 90 71 58 58 77 94 100 100 100 100 100 100
100 100 100 100 100 100 100 100 100 100 100 100 100 100 100 100 100 100 100 100 100 100 100 100 100 97 97 97 97 94 94 90 81 48 55 61 87 100 100 100 100 100 100
100 100 100 100 100 100 100 100 100 100 100 100 100 100 100 100 100 100 100 100 100 100 100 100 100 100 100 100 97 97 97 94 74 65 58 58 84 100 100 100 100 100 100
100 100 100 100 100 100 100 100 100 100 100 100 100 100 100 100 100 100 100 100 100 100 100 100 100 100 100 100 100 100 100 100 87 71 65 61 94 100 100 100 100 100 100
100 100 100 100 100 100 100 100 100 100 100 100 100 100 100 100 100 100 100 100 100 100 100 100 100 100 100 100 100 100 100 97 87 65 65 61 97 100 100 100 100 100 100
100 97 97 97 97 97 97 97 97 97 97 97 100 100 100 100 100 100 100 100 100 100 100 100 97 97 97 100 100 100 100 94 77 71 65 74 94 100 100 100 100 100 100
87 97 97 94 97 97 97 97 97 97 97 94 94 94 94 97 97 97 97 97 97 94 90 87 87 97 94 90 94 87 87 90 87 77 71 84 90 94 100 100 100 100 100
77 87 87 90 84 94 97 94 94 90 87 90 94 94 94 87 87 81 77 81 68 71 77 74 74 77 81 77 74 74 77 81 68 68 61 81 94 94 97 100 100 100 100
74 77 81 84 77 77 74 68 71 68 81 77 81 81 84 84 81 68 55 55 42 45 45 55 52 52 52 65 61 55 55 58 61 65 55 65 94 94 87 97 100 100 97
65 55 58 52 42 39 39 39 35 42 48 48 55 61 65 65 55 45 39 29 16 19 26 26 29 29 32 29 35 39 42 52 52 52 48 45 52 90 90 87 97 97 94
48 42 39 39 26 23 26 23 16 13 13 16 19 26 26 29 26 16 13 10 13 10 10 6 13 16 19 19 19 23 29 35 45 45 45 42 42 52 71 84 87 87 94
29 26 26 29 16 13 10 10 6 0 3 6 10 13 16 16 10 6 6 6 6 3 3 6 6 3 6 10 13 13 13 13 23 35 35 35 39 23 39 58 65 77 81
16 16 19 19 10 6 0 0 0 0 0 0 0 0 3 10 3 3 3 3 3 3 3 3 3 3 3 3 3 3 3 3 10 6 13 16 19 19 19 29 52 68 65
10 3 3 0 0 0 0 0 0 0 0 0 0 0 0 0 0 0 3 3 3 3 3 3 3 3 3 3 3 3 3 3 3 3 3 6 6 13 13 13 23 32 48
3 0 0 3 0 0 0 0 0 0 0 0 0 0 0 0 0 0 0 0 0 0 0 0 0 0 0 0 0 0 3 0 0 3 3 3 3 6 10 10 10 10 23
6 0 0 0 0 0 0 0 0 0 0 0 0 0 0 0 0 0 0 0 0 0 0 0 0 0 0 0 0 0 0 0 0 0 0 3 3 3 3 3 10 10 10
3 3 0 0 0 0 0 0 0 0 0 0 0 0 0 0 0 0 0 0 0 0 0 0 0 0 0 0 0 0 0 0 0 0 0 0 0 3 3 3 6 6 10
3 0 0 0 0 0 0 0 0 0 0 0 0 0 0 0 0 0 0 0 0 0 0 0 0 0 0 0 0 0 0 0 0 0 0 0 0 0 0 0 0 3 6
0 0 0 0 0 0 0 0 0 0 0 0 0 0 0 0 0 0 0 0 0 0 0 0 0 0 0 0 0 0 0 0 0 0 0 0 0 0 0 0 0 3 3
0 0 0 0 0 0 0 0 0 0 0 0 0 0 0 0 0 0 0 0 0 0 0 0 0 0 0 0 0 0 0 0 0 0 0 0 0 0 0 0 0 0 0

GEFSSE_con_cape1000_072.txt.gz
Probability
74 97 100 100 100 100 100 100 100 100 100 100 100 100 100 100 100 100 100 100 100 97 97 100 100 100 100 100 100 100 100 100 100 100 100 100 100 100 100 100 100 87 100
94 97 100 100 100 100 100 100 100 100 100 100 100 100 100 100 100 100 100 100 100 100 100 100 97 90 100 97 100 100 100 100 100 100 100 100 100 100 100 97 100 94 100
100 100 100 100 100 100 100 100 100 100 100 100 100 100 100 100 100 100 100 100 100 100 97 100 87 87 97 97 100 97 100 100 100 100 100 97 94 100 100 100 97 97 97
100 100 100 100 100 100 100 100 100 100 100 100 100 100 100 100 100 100 100 100 97 97 97 90 84 84 87 94 90 97 97 97 100 100 90 87 87 97 100 100 100 97 97
100 100 100 100 100 100 100 100 100 100 100 100 100 100 100 100 100 100 100 100 100 97 97 84 81 77 84 94 90 94 97 97 100 94 81 87 97 100 100 100 100 100 97
100 100 100 100 100 100 100 100 100 100 100 100 100 100 100 100 100 100 100 100 97 94 97 90 87 77 81 84 90 94 90 97 100 65 77 84 97 100 100 100 100 100 97
100 100 100 100 100 100 100 100 100 100 100 100 100 100 100 100 100 100 100 100 94 94 94 90 87 87 84 84 81 94 97 94 97 55 71 77 100 100 100 100 100 100 100
100 100 100 100 100 100 100 100 100 100 100 100 100 100 100 100 100 100 100 100 100 97 94 94 97 94 94 90 87 94 97 94 84 58 74 100 100 100 100 100 100 100 100
94 100 100 100 100 100 100 100 100 100 100 100 100 100 100 100 100 100 100 100 100 100 100 97 94 97 97 100 100 97 94 90 87 81 71 94 100 100 100 100 100 100 100
94 100 100 100 100 100 100 100 100 100 100 100 100 100 100 100 100 100 100 100 100 100 100 100 97 97 100 100 100 100 100 97 84 55 77 94 100 100 100 100 100 100 100
90 100 100 100 100 100 100 97 97 97 97 100 100 100 100 100 100 100 100 100 100 100 100 100 100 100 100 100 100 100 100 74 42 48 71 100 100 100 100 100 100 100 100
100 100 100 100 100 97 94 97 97 97 97 97 97 97 100 100 100 97 97 97 94 90 94 94 90 94 97 94 97 97 87 65 32 29 68 100 97 97 97 100 100 100 100
94 94 94 100 100 94 94 97 97 97 97 97 97 94 94 90 94 94 97 97 94 87 87 87 87 90 87 87 84 81 71 58 55 52 52 97 100 100 100 100 100 100 100
90 100 94 97 97 94 94 94 97 97 97 94 90 87 90 94 90 84 84 87 84 84 87 87 87 84 84 81 77 71 61 68 65 52 74 94 94 97 97 97 100 100 100
97 90 90 94 97 97 97 97 97 97 94 94 87 84 81 87 84 81 84 84 74 77 74 74 77 81 81 74 74 68 61 68 68 65 71 87 90 90 94 94 97 100 100
94 90 94 90 90 90 94 97 97 87 87 87 81 74 84 77 77 74 77 77 84 74 68 65 61 61 68 71 71 68 71 65 74 68 61 68 87 84 90 94 94 100 97
97 94 94 90 90 87 84 87 84 84 77 71 68 65 61 61 68 68 68 61 52 48 52 45 35 39 45 42 39 42 55 65 55 61 71 71 74 77 81 84 90 97 97
94 94 87 65 87 87 81 87 65 58 65 58 48 48 48 45 45 55 45 39 35 35 29 29 32 32 29 29 32 29 45 48 58 55 52 55 65 55 71 81 87 94 94
94 94 84 84 84 77 81 74 58 55 48 39 39 39 42 35 23 26 32 32 29 26 19 13 13 19 16 16 16 32 29 42 45 35 39 39 42 61 55 65 81 87 81
87 84 77 77 74 65 61 58 45 42 26 16 23 19 19 10 13 13 16 16 13 10 13 10 10 16 16 13 6 13 19 16 16 19 23 26 23 26 35 48 61 61 68
74 68 68 68 58 55 42 26 23 13 13 6 6 6 6 3 3 6 3 0 3 3 6 0 10 6 6 6 6 6 10 13 13 19 19 13 16 19 29 42 42 55 58
52 52 58 61 42 42 39 35 26 16 10 6 6 3 3 3 3 0 0 0 0 0 0 0 0 3 0 0 0 6 3 13 16 10 16 26 16 19 23 23 32 55 58
52 42 23 42 48 42 29 26 13 23 13 0 3 3 3 0 0 0 0 0 0 0 0 0 0 0 0 0 0 0 0 0 3 6 3 6 6 19 19 16 23 29 48
39 42 42 42 42 48 42 23 0 10 6 0 0 0 0 0 0 0 0 0 0 0 0 0 0 0 0 0 0 0 3 3 0 0 0 0 3 3 6 10 10 13 23
32 35 45 48 48 52 42 32 29 10 6 0 0 0 0 0 0 0 0 0 0 0 0 0 0 0 0 0 0 0 0 0 0 0 3 3 0 0 3 6 10 16 23
45 48 48 52 58 52 39 26 19 16 13 6 6 0 0 0 0 0 0 0 0 0 0 0 0 0 0 0 0 0 0 0 0 0 0 0 6 3 0 0 6 6 13

GEFSSE_con_cape1000_078.txt.gz
Probability
97 100 100 100 100 100 100 100 100 100 100 100 100 100 100 100 100 100 100 100 100 100 100 97 97 97 97 97 97 97 100 100 100 100 100 100 100 100 100 100 97 87 100
97 100 100 100 100 100 100 100 100 100 100 100 100 100 100 100 100 100 100 100 100 100 100 97 94 97 97 100 100 97 97 100 100 100 100 100 100 100 100 100 97 87 100
97 100 100 100 100 100 100 100 100 100 100 100 100 100 100 100 100 100 100 97 97 100 100 97 87 90 90 94 97 97 97 100 100 100 100 87 87 100 100 100 100 100 100
90 100 100 100 100 100 100 100 100 100 100 100 100 100 100 100 100 97 94 97 100 97 94 94 84 84 90 87 94 97 94 94 94 100 100 87 74 100 100 100 100 100 100
100 100 100 100 100 100 100 100 100 100 100 100 100 100 100 100 100 100 97 94 94 94 94 81 81 81 81 87 90 94 94 97 100 100 100 100 100 100 100 100 100 100 100
100 100 100 100 100 100 100 100 100 100 100 100 100 100 100 100 100 97 94 94 94 90 94 74 77 74 77 77 87 90 90 100 100 97 100 97 97 100 100 100 100 100 100
100 100 100 100 100 100 100 100 100 100 100 100 100 100 100 100 97 97 94 97 94 94 87 81 74 74 68 68 77 81 90 94 100 100 94 100 100 100 100 100 100 100 100
100 100 100 100 100 100 100 100 100 100 100 100 100 100 100 100 100 100 100 100 94 97 94 90 84 87 71 74 71 87 97 94 100 87 100 100 100 100 100 100 100 100 100
100 97 100 100 100 100 100 100 100 100 100 100 100 100 100 100 100 100 100 100 100 100 97 97 97 97 97 87 97 94 100 97 97 87 94 100 100 100 100 100 100 100 100
100 100 100 100 100 100 100 100 100 100 100 97 97 97 97 97 97 100 100 100 100 100 100 97 97 94 97 97 97 97 100 100 81 48 77 94 100 100 100 100 100 100 100
100 100 100 100 100 100 100 97 100 97 94 94 97 94 97 97 97 97 97 97 97 97 97 100 97 97 97 97 97 97 97 94 39 39 61 87 97 100 100 100 100 100 100
100 100 100 100 100 97 97 97 97 97 94 94 97 97 97 94 94 90 87 90 94 87 84 90 90 94 94 94 94 94 97 84 45 45 71 81 90 94 97 100 100 100 100
100 100 100 100 97 97 97 97 97 97 100 97 100 94 97 97 90 90 94 97 94 84 81 84 90 84 81 81 87 84 77 61 55 52 77 97 90 90 94 97 100 100 100
100 97 97 97 97 97 97 94 94 97 94 97 90 90 90 84 97 94 84 81 84 84 87 87 77 71 74 77 68 65 68 61 48 52 68 84 84 94 94 97 97 100 100
100 97 97 97 97 97 94 90 94 97 94 94 90 90 87 81 84 87 87 84 77 74 68 74 65 61 68 65 55 61 55 55 45 58 65 71 77 90 90 97 97 97 100
97 97 97 97 97 94 94 94 90 90 90 84 84 74 71 71 77 74 81 81 77 77 71 58 52 48 52 52 55 52 58 52 55 55 55 58 74 84 94 94 94 97 100
94 94 94 97 97 94 90 90 84 84 74 77 81 68 55 55 65 65 71 71 74 61 61 58 52 45 35 32 45 48 48 48 48 45 42 52 68 84 90 94 97 97 100
94 94 90 84 90 94 90 87 84 71 65 55 58 52 52 48 42 48 55 52 48 45 52 45 39 35 42 29 35 35 35 42 48 58 48 48 52 48 77 84 84 94 90
94 94 90 90 87 90 84 87 68 61 58 52 48 48 48 32 26 32 35 35 29 35 35 16 32 35 29 29 26 35 32 32 39 35 35 42 45 52 55 68 81 77 87
94 94 94 90 90 81 77 74 65 61 52 45 39 48 29 26 10 13 19 16 13 16 26 19 19 19 32 26 6 6 19 23 35 29 26 26 29 39 26 35 74 74 87
97 94 97 87 87 77 77 74 65 68 58 42 42 29 13 10 3 3 3 3 3 6 13 6 10 6 10 16 3 6 6 10 16 26 26 23 23 23 29 45 52 58 65
90 90 90 94 90 84 71 68 71 65 55 52 48 29 6 6 6 0 13 3 3 6 3 6 6 3 3 0 3 3 3 3 13 6 13 23 16 29 32 23 35 58 52
87 84 74 90 87 71 65 65 58 55 52 52 39 39 13 6 6 6 6 3 0 3 0 3 0 0 0 0 0 0 0 0 3 6 6 6 16 16 16 23 32 39 52
77 74 87 94 90 74 68 61 55 58 42 32 35 29 16 16 6 6 6 0 3 0 0 0 0 0 0 0 0 0 0 0 0 0 3 3 6 10 10 3 6 29 35
55 61 84 94 87 77 65 58 61 52 39 35 29 26 23 10 6 10 6 3 3 0 0 0 0 0 0 0 0 0 0 0 0 0 0 0 0 0 6 13 3 23 16
52 52 65 90 84 77 61 61 55 39 29 23 13 16 10 10 6 6 3 6 6 0 0 0 0 0 0 0 0 0 0 0 0 0 0 0 0 0 6 0 0 13 19

GEFSSE_con_cape1000_084.txt.gz
Probability
100 100 100 100 100 100 100 100 100 100 100 100 100 100 100 100 100 100 100 100 100 100 100 100 100 100 100 100 100 100 100 100 100 97 97 100 100 100 100 100 100 90 100
100 100 100 100 100 100 100 100 100 100 100 100 100 100 100 100 100 100 100 100 100 100 100 100 100 100 100 100 100 100 100 100 100 100 100 100 100 100 100 100 97 97 100
100 100 100 100 100 100 100 100 100 100 100 100 100 100 100 100 100 100 100 100 100 100 97 97 97 94 94 100 100 100 100 100 100 100 100 94 100 100 100 100 97 100 100
100 100 100 100 100 100 100 100 100 100 100 100 100 100 100 100 100 100 97 100 100 100 97 94 90 87 94 94 97 100 100 100 100 100 68 87 100 100 100 100 97 100 100
100 100 100 100 100 100 100 100 100 100 100 100 100 100 100 100 100 100 100 97 97 97 94 94 81 90 87 90 90 97 100 100 100 90 65 61 94 100 100 100 97 100 100
100 100 100 100 100 100 100 100 100 100 100 100 100 100 100 100 100 100 100 100 100 97 94 87 90 87 84 84 87 90 100 100 97 68 58 74 94 100 100 100 100 100 100
100 100 100 100 100 100 100 100 100 100 100 100 100 100 100 100 100 100 100 100 100 97 97 97 87 84 77 74 74 84 90 97 81 55 48 68 97 100 100 100 100 100 100
100 100 100 100 100 100 100 100 100 100 100 100 100 100 100 100 100 100 100 100 97 97 97 97 94 81 81 81 87 94 97 94 81 55 58 71 94 100 100 100 97 100 100
100 100 100 100 100 100 100 100 100 100 100 100 100 100 100 100 100 100 100 100 97 97 97 97 94 90 97 100 97 97 100 97 65 35 55 61 90 97 100 97 97 100 100
97 100 100 100 100 100 100 100 100 100 100 100 100 100 100 100 100 100 100 100 97 94 94 90 97 97 100 100 100 100 97 90 39 19 29 55 90 97 97 97 97 97 100
87 94 100 100 100 100 100 100 100 100 100 100 100 100 100 94 94 94 94 94 97 94 94 97 94 97 94 97 97 97 90 55 32 29 23 58 81 94 97 97 97 97 100
84 90 94 97 97 97 97 97 97 97 94 94 94 90 87 81 81 87 87 87 87 87 90 87 90 90 90 81 84 90 81 58 45 42 32 61 74 81 97 97 97 97 97
87 84 84 84 90 94 94 97 94 90 90 87 84 71 65 61 58 58 55 71 65 65 65 65 68 74 71 48 48 45 45 35 32 35 45 65 74 81 84 90 90 97 97
94 87 84 90 87 87 94 94 84 77 68 58 52 52 32 26 26 39 42 32 35 32 35 35 35 39 35 29 29 32 32 23 23 19 32 71 74 74 74 77 87 94 97
87 90 87 84 81 77 71 65 65 65 45 42 29 29 16 10 16 19 26 23 16 16 26 23 23 16 19 10 13 16 23 19 19 19 26 61 74 65 77 84 87 87 94
87 90 84 84 71 65 55 55 45 39 35 35 23 26 23 13 13 13 13 13 10 13 6 3 6 10 3 3 3 3 3 10 10 10 19 29 68 71 74 77 90 90 94
87 81 74 71 61 58 45 42 35 29 26 26 23 19 10 10 6 3 0 0 3 3 3 3 3 3 10 3 3 0 3 3 0 3 3 16 26 55 68 71 81 90 94
77 74 71 68 55 45 35 42 29 19 19 23 16 13 10 0 0 0 0 0 0 3 3 3 3 3 3 3 3 0 0 0 0 0 3 3 13 16 52 71 77 87 87
68 65 68 65 58 45 32 32 26 16 13 10 10 3 3 0 0 0 0 0 3 3 3 3 0 3 3 3 3 3 0 0 0 0 0 3 6 10 16 26 77 87 81
55 61 55 45 42 32 29 19 10 6 6 6 0 3 0 0 0 0 0 0 0 0 0 0 0 0 0 0 3 3 0 0 0 0 0 0 0 0 3 6 23 42 81
48 45 35 29 29 23 26 16 13 10 3 3 0 0 0 0 0 0 0 0 0 0 0 0 0 0 0 0 0 0 0 0 0 0 0 0 0 0 0 3 6 6 16
42 39 35 26 23 13 13 10 6 6 0 0 0 0 0 0 0 0 0 0 0 0 0 0 0 0 0 0 0 0 0 0 0 0 0 0 0 0 0 3 0 0 0
35 32 29 26 23 13 6 6 6 0 0 0 0 0 0 0 0 0 0 0 0 0 0 0 0 0 0 0 0 0 0 0 0 0 0 0 0 0 0 0 0 0 0
35 26 23 19 16 13 6 3 3 0 0 0 0 0 0 0 0 0 0 0 0 0 0 0 0 0 0 0 0 0 0 0 0 0 0 0 0 0 0 0 0 0 0
23 23 19 16 16 13 3 3 0 0 0 0 0 0 0 0 0 0 0 0 0 0 0 0 0 0 0 0 0 0 0 0 0 0 0 0 0 0 0 0 0 0 0
19 19 16 13 16 16 10 6 3 3 0 0 0 0 0 0 0 0 0 0 0 0 0 0 0 0 0 0 0 0 0 0 0 0 0 0 0 0 0 0 0 0 0

GEFSSE_con_cape1000_090.txt.gz
Probability
90 100 100 100 100 100 100 100 100 100 100 100 100 100 100 100 100 100 100 100 100 100 100 97 100 100 97 97 97 97 100 100 100 97 100 100 100 100 100 100 97 87 100
97 100 100 100 100 100 100 100 100 100 100 100 100 100 100 100 100 100 100 100 100 100 97 97 94 94 97 100 100 100 100 100 100 100 100 100 100 100 100 97 94 97 97
100 100 100 100 100 100 100 100 100 100 100 100 100 100 100 100 100 100 100 100 97 94 90 94 90 94 100 100 100 100 100 100 100 100 100 97 100 100 100 100 100 100 100
100 100 100 100 100 100 100 100 100 100 100 100 100 100 100 100 100 100 100 97 97 94 90 90 94 90 97 100 100 100 100 100 100 100 90 90 97 100 100 100 100 100 100
100 100 100 100 100 100 100 100 100 100 100 100 100 100 100 100 100 100 100 100 97 94 94 90 87 90 94 100 100 100 100 100 100 84 84 94 100 100 100 97 97 100 100
97 97 97 100 100 100 100 100 100 100 100 100 100 100 100 100 100 100 97 94 87 87 87 87 90 90 90 94 100 100 100 100 90 71 84 94 100 100 97 97 97 97 100
94 97 100 100 100 100 100 100 100 100 100 100 100 100 100 100 100 100 100 94 94 97 94 90 90 87 87 87 87 97 100 100 52 71 68 94 100 100 100 100 100 100 97
97 100 100 100 100 100 100 100 100 100 100 100 100 100 100 100 100 100 100 100 97 97 97 90 87 90 90 87 94 94 97 97 71 58 71 84 100 100 100 100 100 100 100
94 97 100 100 100 100 100 100 100 100 100 100 100 100 100 100 100 100 100 97 90 94 94 94 97 90 90 97 94 100 100 97 32 65 65 81 97 97 100 100 100 100 100
90 94 100 100 100 100 100 100 100 100 100 100 100 100 100 100 100 100 100 97 97 94 94 97 97 97 97 97 97 97 100 90 32 45 61 74 97 97 100 100 100 100 100
90 94 97 97 100 100 100 100 100 100 100 100 100 100 97 90 87 94 97 90 94 100 90 90 90 87 87 84 90 97 81 58 45 45 48 74 100 97 97 97 100 100 100
87 94 97 94 97 97 97 97 97 97 97 97 90 87 81 71 77 77 84 84 87 84 81 81 84 77 81 77 71 81 65 42 42 48 48 87 87 97 97 97 97 100 100
77 84 87 84 90 97 97 97 90 87 81 84 74 65 55 55 55 55 48 58 61 68 65 68 65 55 52 52 52 55 48 48 48 48 52 77 84 90 94 97 97 100 100
65 71 74 77 77 84 84 87 81 74 74 68 61 55 45 42 39 39 35 32 32 35 42 45 39 32 29 35 35 32 29 35 39 39 39 61 77 81 87 94 100 100 90
52 61 65 68 65 68 71 81 68 61 55 42 32 29 23 13 19 19 23 16 16 13 13 16 16 19 16 13 10 23 19 23 29 35 32 42 65 84 81 87 90 94 94
52 45 48 48 45 48 39 45 52 39 23 19 13 10 10 6 6 6 3 6 6 6 6 6 13 13 10 10 13 13 3 6 13 10 19 23 52 68 74 77 81 81 81
45 39 39 35 32 26 29 26 16 10 10 10 10 6 10 6 6 3 3 3 3 3 3 3 3 3 3 3 3 3 3 10 10 10 10 10 26 35 61 77 81 87 81
39 39 35 55 23 16 16 10 13 13 10 6 6 6 10 3 3 0 0 0 0 3 3 3 3 3 3 3 3 0 3 3 3 0 0 3 10 13 35 48 68 77 74
35 32 29 32 19 13 3 6 0 6 6 6 6 3 0 0 0 0 0 0 0 0 0 0 0 0 0 0 0 3 3 0 0 0 0 0 3 6 16 16 32 68 61
26 19 23 19 13 3 0 0 0 3 3 3 0 0 0 0 0 0 0 0 0 0 0 0 0 0 0 0 0 0 0 0 0 0 0 0 0 6 10 10 13 16 23
16 16 13 16 6 6 3 3 3 3 0 0 0 0 0 0 0 0 0 0 0 0 0 0 0 0 0 0 0 0 0 0 0 0 0 0 0 3 10 10 13 13 16
16 10 6 13 13 6 6 0 3 3 0 0 0 0 0 0 0 0 0 0 0 0 0 0 0 0 0 0 0 0 0 0 0 0 0 0 0 3 3 3 6 6 13
19 13 10 6 10 6 3 0 0 0 0 0 0 0 0 0 0 0 0 0 0 0 0 0 0 0 0 0 0 0 0 0 0 0 0 0 0 0 0 0 3 0 3
16 13 10 10 6 6 0 0 3 3 0 0 0 0 0 0 0 0 0 0 0 0 0 0 0 0 0 0 0 0 0 0 0 0 0 0 0 0 0 0 0 0 0
13 13 6 10 6 6 3 0 3 3 0 0 0 0 0 0 0 0 0 0 0 0 0 0 0 0 0 0 0 0 0 0 0 0 0 0 0 0 0 0 0 0 0
10 10 10 10 6 6 6 0 0 3 0 0 0 0 0 0 0 0 0 0 0 0 0 0 0 0 0 0 0 0 0 0 0 0 0 0 0 0 0 0 0 0 0

GEFSSE_con_cape1000_096.txt.gz
Probability
48 68 100 100 100 100 100 100 100 100 100 100 100 100 100 100 100 100 100 100 100 100 97 97 100 100 97 97 97 97 100 100 100 97 100 97 100 100 100 94 100 94 100
58 84 100 100 100 100 100 100 100 100 100 100 100 100 100 100 100 100 100 100 100 100 100 94 97 100 100 100 97 97 100 100 100 97 97 100 100 100 97 94 97 97 100
77 90 97 100 100 100 100 100 100 100 100 100 100 100 100 100 100 100 97 97 97 100 97 94 97 100 100 97 97 100 100 100 100 94 97 77 84 100 100 100 100 100 100
74 84 100 100 100 100 100 100 100 100 100 100 100 100 100 100 100 100 100 97 94 90 94 94 94 97 97 100 100 100 100 100 97 97 61 55 65 100 100 100 100 100 100
84 90 97 100 100 100 100 100 100 100 100 100 100 100 100 100 100 100 100 97 90 87 87 94 94 97 97 100 100 100 100 100 90 87 65 61 90 100 100 100 100 100 100
90 94 100 100 100 100 100 100 100 100 100 100 100 100 100 100 100 100 100 97 97 90 90 87 87 94 94 100 100 100 100 97 87 48 52 55 84 100 100 100 100 100 100
84 97 100 100 100 100 100 100 100 100 100 100 100 100 100 100 100 100 97 97 97 94 90 90 90 94 94 100 100 100 100 100 68 58 58 52 97 100 100 100 94 100 100
61 87 97 100 100 100 100 100 100 100 100 100 100 100 100 100 100 97 94 94 97 94 87 87 87 81 84 90 90 97 100 100 55 48 61 74 100 100 97 100 100 100 100
68 97 100 90 100 100 100 100 100 100 100 100 100 100 100 97 100 97 94 90 97 94 94 94 90 90 87 90 90 90 90 97 68 58 45 84 97 100 94 100 100 100 100
90 97 97 90 94 97 94 100 100 100 100 100 100 100 97 94 97 94 94 94 84 87 90 84 81 77 84 84 90 87 94 90 52 39 52 94 100 97 94 97 97 97 100
94 97 97 94 94 94 94 97 100 100 100 100 100 100 97 97 94 94 97 90 87 84 87 87 84 77 71 71 74 84 81 74 39 35 65 94 97 97 97 97 94 94 90
90 94 94 94 97 94 90 100 100 90 100 100 100 100 97 97 94 87 84 74 77 81 81 77 74 68 65 68 71 71 61 61 45 48 84 94 94 94 94 97 97 97 90
90 90 90 97 100 97 100 100 100 100 100 97 100 97 97 97 94 81 84 81 81 68 81 65 65 52 48 61 68 52 45 39 45 39 55 74 81 90 90 90 94 97 97
90 90 81 90 100 100 100 100 100 94 94 94 97 94 94 87 81 71 71 71 68 71 71 65 77 61 61 58 55 42 35 45 45 39 74 68 74 74 87 90 94 94 97
94 94 90 100 100 100 100 97 90 97 94 90 94 81 74 71 61 55 61 68 61 58 58 58 65 65 65 48 42 39 39 55 42 32 52 65 68 77 74 84 84 87 87
90 87 94 94 97 97 97 97 97 90 94 81 65 61 71 58 55 52 52 65 45 52 42 52 48 42 48 48 42 29 32 29 39 45 42 52 52 58 58 68 81 84 81
77 84 90 90 94 97 97 94 90 90 77 71 71 58 48 45 48 39 32 35 35 35 42 39 35 32 32 23 26 32 32 35 35 35 32 39 39 39 48 61 71 74 77
77 84 90 81 94 90 94 94 84 71 68 65 58 55 42 35 29 26 16 16 23 26 26 29 29 26 26 23 23 23 23 29 26 23 23 29 29 23 32 48 58 65 65
77 84 84 87 87 87 84 90 84 77 58 52 39 39 32 23 16 19 23 19 13 10 10 3 13 10 13 6 6 13 13 13 13 10 13 19 13 19 26 32 45 52 48
68 71 77 81 84 84 81 77 74 71 48 29 35 39 26 23 19 10 10 13 3 6 6 3 3 3 3 3 3 0 6 3 6 13 13 16 16 6 6 13 32 29 42
68 68 71 81 77 81 84 81 71 58 35 29 23 29 16 10 6 10 3 13 0 3 3 0 0 0 0 3 3 3 3 3 0 10 10 13 13 10 10 13 19 29 32
68 74 74 74 77 77 81 81 71 58 29 16 19 26 16 10 10 3 3 3 0 0 3 3 3 3 0 0 3 3 3 0 0 0 0 3 3 6 6 10 13 16 10
65 68 61 74 81 81 81 68 58 61 32 16 19 29 16 13 13 3 6 3 0 3 3 0 0 0 0 0 0 3 3 3 0 3 0 3 6 6 6 6 10 10 10
58 71 74 81 81 81 77 55 39 45 23 19 29 23 23 23 16 10 10 3 6 3 3 0 0 0 0 0 0 0 0 0 0 0 3 3 3 3 3 0 0 3 10
65 65 74 81 81 74 65 68 58 35 29 23 29 39 26 13 10 10 10 10 13 3 3 0 0 0 0 0 0 0 0 0 0 0 0 0 0 0 0 0 0 0 0
61 71 68 77 77 71 61 58 61 45 32 26 42 29 23 19 16 13 13 13 13 6 6 6 6 3 3 0 0 0 0 0 0 0 0 0 0 0 0 0 0 0 0

GEFSSE_con_cape1000_102.txt.gz
Probability
65 87 100 100 100 100 100 100 100 100 100 100 100 100 100 100 100 100 100 100 100 97 100 100 100 100 97 97 97 97 100 97 97 97 94 97 97 100 100 100 100 94 97
74 90 100 100 100 100 100 100 100 100 100 100 100 100 100 100 100 100 100 100 100 100 100 100 100 100 97 97 97 100 100 100 94 94 90 94 94 100 100 100 100 100 100
84 97 100 100 100 100 100 100 100 100 100 100 100 100 100 100 100 100 100 100 100 100 97 100 100 100 97 97 97 97 97 94 90 90 94 81 97 100 100 100 100 100 100
84 94 97 100 100 100 100 100 100 100 100 100 100 100 100 100 100 100 100 100 100 97 97 100 100 97 100 100 94 94 94 84 87 87 97 65 77 97 100 100 100 100 100
87 97 100 100 100 100 100 100 100 100 100 100 100 100 100 100 100 100 100 97 100 97 94 94 97 100 100 100 100 94 87 87 94 100 84 94 94 100 100 100 100 100 100
97 100 100 100 100 100 100 100 100 100 100 100 100 100 100 100 100 94 97 100 94 97 94 97 97 100 97 97 100 90 81 84 97 90 90 90 97 100 100 97 100 100 100
97 100 100 100 100 100 100 100 100 100 100 100 100 100 100 100 97 97 94 94 90 90 94 94 90 97 97 97 97 87 90 97 97 94 90 97 97 97 100 94 97 97 97
90 84 97 100 100 100 100 100 100 100 100 100 100 100 100 94 87 87 84 84 84 81 81 84 77 77 81 81 77 77 90 90 77 87 97 94 97 100 100 97 97 97 100
87 87 94 97 100 100 100 100 100 100 100 100 97 97 97 90 84 81 84 74 71 77 77 71 81 77 74 74 81 81 90 90 84 81 77 94 100 100 100 100 100 100 100
87 87 84 87 94 94 100 100 100 100 100 100 100 97 94 94 87 90 90 87 84 84 81 74 71 84 77 81 81 87 87 90 39 61 71 87 100 100 97 97 90 100 97
94 90 84 84 94 94 90 97 100 100 100 100 100 84 94 94 94 94 87 84 81 84 81 77 77 71 74 81 84 84 84 68 32 52 74 94 100 97 94 94 94 90 94
90 94 87 94 97 97 94 100 100 97 100 100 100 100 100 100 97 87 87 81 68 71 74 77 71 74 74 71 58 74 61 48 39 52 68 94 100 97 97 94 90 87 87
84 84 90 97 100 100 100 100 97 97 100 100 100 100 100 100 90 84 81 77 74 68 77 68 65 58 61 61 61 55 58 39 35 39 55 81 94 90 90 94 90 87 87
84 81 87 97 100 100 100 100 100 100 100 100 100 100 100 97 94 81 77 77 74 71 68 61 65 52 52 65 58 55 55 45 35 52 68 84 87 87 87 87 90 94 90
84 84 87 94 100 100 100 100 100 100 97 100 100 97 94 84 77 77 77 71 55 58 48 58 58 58 52 45 52 48 52 52 35 42 58 84 84 84 84 77 84 87 87
81 90 87 90 97 97 100 100 100 94 97 90 90 81 74 71 68 84 74 65 61 61 58 48 48 48 55 52 42 32 32 42 48 42 58 68 71 74 77 74 84 81 84
81 87 90 90 94 94 97 90 94 90 87 87 84 71 68 68 58 61 71 71 68 65 58 52 52 48 39 32 35 26 29 32 32 39 52 61 58 58 71 81 81 81 71
87 87 90 94 90 94 94 90 90 90 90 81 77 71 61 45 45 48 39 48 42 52 52 58 42 42 39 29 26 23 32 29 26 39 39 48 48 39 48 71 74 77 74
74 81 90 87 87 77 87 87 90 90 81 84 71 71 55 35 26 23 32 39 35 39 32 19 39 32 26 23 19 23 23 26 26 23 23 26 32 35 35 48 65 74 74
74 74 81 87 87 81 77 81 77 77 77 71 74 68 45 29 23 26 32 29 29 32 29 29 16 23 19 10 0 0 6 6 13 16 16 19 16 19 16 23 39 48 65
71 77 74 77 81 81 71 74 71 77 74 77 61 55 39 32 23 32 23 35 23 29 19 13 19 6 0 0 0 3 3 3 10 13 16 23 19 13 13 16 13 19 39
68 68 77 74 74 81 74 74 74 74 71 68 61 55 35 32 32 19 26 29 32 35 16 13 3 6 3 0 0 0 0 3 0 0 6 10 16 16 13 10 16 19 23
65 68 71 74 71 71 71 71 68 84 77 65 61 52 39 32 26 29 26 19 23 29 23 13 6 3 3 3 0 0 0 3 3 3 0 0 3 10 6 6 16 16 13
68 61 65 74 74 77 77 71 68 58 61 61 65 52 48 35 32 23 23 26 23 23 23 13 6 6 6 3 6 3 0 3 0 3 6 0 6 6 3 3 6 16 10
61 58 71 81 84 87 87 84 74 65 58 65 58 68 58 48 39 26 23 29 26 26 26 13 16 6 6 6 3 3 0 0 0 0 0 0 0 3 3 6 6 13 13
58 61 65 81 84 90 87 90 87 74 71 61 61 65 61 58 45 35 23 23 23 26 26 19 16 13 13 6 10 6 6 0 0 0 0 0 0 0 0 6 6 10 13

GEFSSE_con_cape1000_108.txt.gz
Probability
87 100 100 100 100 100 100 100 100 100 100 100 100 100 100 100 100 100 100 100 100 100 100 100 100 100 100 100 100 100 100 100 100 100 100 100 100 100 100 100 97 87 97
94 100 100 100 100 100 100 100 100 100 100 100 100 100 100 100 100 100 100 100 100 100 100 100 100 100 100 100 100 100 100 100 100 100 100 100 100 100 100 97 97 94 97
94 100 100 100 100 100 100 100 100 100 100 100 100 100 100 100 100 100 100 100 100 100 100 100 100 97 97 100 100 100 100 100 100 100 100 94 100 100 100 97 100 100 100
97 97 100 100 100 100 100 100 100 100 100 100 100 100 100 100 100 100 100 100 100 100 100 100 100 100 100 100 100 100 97 100 100 97 58 84 87 100 100 100 100 100 100
97 100 100 100 100 100 100 100 100 100 100 100 100 100 100 100 100 100 100 100 100 100 100 100 100 100 100 97 100 100 97 94 97 81 55 65 87 100 100 100 100 100 100
100 100 100 100 100 100 100 100 100 100 100 100 100 100 100 100 100 100 100 100 97 100 94 90 94 94 94 94 97 94 94 94 87 45 61 81 94 100 100 100 100 100 100
100 100 100 100 100 100 100 100 100 100 100 100 100 100 100 100 100 97 97 94 97 90 94 90 87 90 90 94 94 97 97 90 45 39 55 81 97 100 100 100 100 100 100
97 97 100 100 100 100 100 100 100 100 100 100 100 100 100 100 100 94 90 87 81 81 74 81 74 74 74 81 90 100 97 94 77 48 61 87 97 100 100 100 100 100 100
97 94 97 100 100 100 100 100 100 100 100 100 100 100 100 100 94 90 84 81 77 77 77 68 71 71 68 74 81 90 90 87 16 29 61 87 97 100 100 100 100 100 100
90 94 97 97 100 100 100 100 100 100 100 100 100 100 97 94 87 87 84 81 77 71 68 68 65 68 68 77 77 90 87 74 13 23 55 81 97 100 100 100 100 100 100
87 87 90 94 97 97 97 100 100 100 100 100 100 100 90 77 68 77 81 81 81 81 77 74 74 77 68 71 81 74 55 13 10 16 42 84 97 100 100 100 97 94 97
84 84 87 87 94 94 94 94 97 97 97 94 87 87 65 42 39 71 81 77 77 74 74 81 84 71 55 23 35 42 13 13 6 19 42 77 90 100 100 97 97 100 100
61 65 71 81 81 84 87 94 94 90 90 77 68 58 45 19 19 32 52 65 61 61 35 52 45 35 26 26 23 13 10 10 3 16 45 81 90 97 100 97 97 97 97
52 55 58 58 58 58 84 84 74 81 74 77 55 42 29 16 10 3 16 29 23 10 13 19 16 13 10 10 13 13 6 10 6 10 29 74 90 94 94 87 90 94 97
39 45 52 48 52 45 42 65 71 58 65 58 48 32 10 3 0 0 6 10 10 3 10 10 3 3 0 3 6 10 10 3 10 6 16 61 74 81 84 84 90 97 94
39 45 52 55 48 45 48 45 52 58 48 48 23 23 3 3 0 0 0 3 3 3 3 3 0 0 0 3 6 3 6 3 6 3 16 35 74 84 84 87 84 87 94
42 48 48 52 52 52 45 42 48 55 42 19 10 3 3 3 0 0 0 0 0 0 0 0 0 0 0 0 0 0 0 3 6 6 10 13 29 74 84 84 87 87 87
39 45 42 52 48 48 45 42 42 29 23 16 10 3 0 0 0 0 0 0 0 0 0 0 0 0 0 0 0 0 0 0 0 3 0 10 16 19 42 71 81 90 81
42 39 42 42 45 45 32 26 19 6 16 6 6 3 0 0 3 0 0 0 0 0 0 0 0 0 0 0 0 0 0 0 0 3 3 6 10 10 13 29 68 77 77
35 39 42 42 42 32 26 16 16 10 6 6 3 0 0 3 3 0 0 0 0 0 0 0 0 0 0 0 0 0 0 0 0 0 3 0 3 6 0 3 13 39 65
29 35 42 42 32 26 26 19 10 13 3 3 6 6 0 3 3 0 0 0 0 0 0 0 0 0 0 0 0 0 0 0 0 0 0 0 0 3 0 3 6 3 3
26 32 42 39 32 26 26 13 3 6 3 6 6 6 6 6 6 6 0 0 0 0 0 0 0 0 0 0 0 0 0 0 0 0 0 0 0 0 0 0 0 0 0
29 29 32 29 29 23 26 16 3 3 3 0 3 6 6 6 6 3 0 0 0 0 0 0 0 0 0 0 0 0 0 0 0 0 0 0 0 0 0 0 0 0 0
32 29 35 29 23 23 19 13 6 3 3 0 3 3 3 6 6 3 0 0 0 0 0 0 0 0 0 0 0 0 0 0 0 0 0 0 0 0 0 0 0 0 0
29 32 32 29 23 23 23 10 6 3 3 0 3 3 3 3 6 3 0 0 0 0 0 0 0 0 0 0 0 0 0 0 0 0 0 0 0 0 0 0 0 0 0
32 32 32 29 23 26 16 6 6 6 3 0 3 3 3 0 3 0 0 0 0 0 0 0 0 0 0 0 0 0 0 0 0 0 0 0 0 0 0 0 0 0 0

GEFSSE_con_cape1000_114.txt.gz
Probability
61 90 100 100 100 100 100 100 100 100 100 100 100 100 97 97 100 100 100 100 100 100 100 100 100 97 100 100 100 100 100 100 100 100 97 97 97 97 97 97 94 77 100
71 97 100 100 100 100 100 100 100 100 100 100 100 100 100 100 100 100 100 100 100 100 100 100 100 100 97 97 97 100 100 100 100 100 97 97 97 97 94 94 97 87 100
81 100 100 100 100 100 100 100 100 100 100 100 100 100 100 100 100 100 100 100 100 100 100 100 100 100 94 97 97 100 100 100 100 100 100 94 94 94 94 94 97 100 100
81 100 97 100 100 100 100 100 100 100 100 100 100 100 100 100 100 100 100 100 100 100 100 100 100 94 94 97 100 100 100 100 100 97 77 94 94 97 97 97 97 100 100
87 100 97 100 100 100 100 100 100 100 100 100 100 100 100 100 100 100 100 100 100 100 100 97 94 90 90 94 97 97 100 100 94 71 71 81 97 100 100 100 100 100 100
97 97 100 100 100 100 100 100 100 100 100 100 100 100 100 100 100 97 97 100 100 97 97 94 87 87 90 94 94 94 97 97 84 65 71 90 97 100 100 100 100 100 100
94 94 100 100 100 100 100 100 100 100 100 100 100 100 100 100 100 94 97 97 90 90 94 90 90 90 90 90 84 90 90 94 45 55 71 94 97 100 100 100 100 97 94
90 94 97 97 100 100 100 100 100 100 100 100 100 100 100 100 94 90 87 84 84 81 77 77 77 74 74 81 77 94 90 84 58 61 84 97 97 100 100 100 100 97 94
90 97 97 97 97 100 100 100 100 100 100 100 100 100 100 97 90 90 81 81 77 74 77 77 68 65 68 71 87 84 94 81 23 58 77 97 100 100 100 100 100 94 97
90 90 94 97 97 97 100 100 100 100 100 100 100 100 94 90 87 87 84 84 68 68 68 65 61 58 68 74 84 94 97 74 16 39 74 94 97 100 100 97 97 97 97
81 87 94 90 94 94 94 94 97 100 100 100 100 100 94 74 68 74 74 71 68 68 58 71 71 68 68 68 77 84 68 10 16 39 71 90 97 100 97 97 97 97 94
81 84 87 87 87 87 90 94 94 97 97 94 87 87 58 55 61 74 74 74 71 68 65 65 71 61 32 16 52 48 23 13 10 45 65 87 94 100 97 97 97 97 97
81 84 87 87 81 84 87 94 94 90 84 65 61 52 29 32 35 35 42 61 61 61 35 42 39 16 16 10 16 23 13 13 13 35 61 87 94 100 94 94 97 90 90
71 77 77 81 77 74 84 94 74 74 71 52 48 39 23 19 16 16 16 23 26 16 13 16 10 10 10 13 16 10 10 10 10 29 48 84 90 97 90 90 90 90 94
61 68 68 65 71 65 65 74 74 68 65 52 45 32 10 10 6 6 10 10 3 0 3 6 6 6 3 6 10 13 3 10 13 16 29 68 84 84 81 81 77 81 94
58 58 58 58 55 48 52 48 48 58 52 35 35 26 10 3 0 3 3 3 0 0 0 0 0 0 0 0 0 0 10 6 13 13 16 48 74 77 81 74 71 71 77
32 39 42 42 35 39 39 39 45 45 35 32 16 13 6 0 0 0 0 3 0 0 0 0 0 0 0 0 0 0 0 0 3 6 13 29 35 61 74 74 77 81 84
23 32 35 35 32 32 29 26 32 29 19 10 6 10 10 3 0 0 0 3 0 0 0 0 0 0 0 0 0 0 0 0 3 3 6 16 23 23 42 58 68 65 77
26 26 29 29 26 29 23 23 26 16 6 3 3 3 6 3 0 0 0 0 0 0 0 0 0 0 0 0 0 0 0 0 3 3 3 3 13 19 19 23 52 68 74
29 19 26 23 29 29 16 10 10 6 0 0 3 3 3 0 0 0 0 0 0 0 0 0 0 0 0 0 0 0 0 0 0 0 3 6 6 13 16 13 19 26 45
26 23 29 29 26 19 19 13 10 3 0 0 3 3 0 0 0 0 0 0 0 0 0 0 0 0 0 0 0 0 0 0 0 0 0 0 0 3 6 6 13 10 13
29 29 26 26 23 23 23 13 3 3 0 0 3 3 0 0 0 0 0 0 0 0 0 0 0 0 0 0 0 0 0 0 0 0 0 0 0 0 0 0 0 3 6
29 29 29 26 23 23 10 3 3 0 0 3 3 3 0 0 0 0 0 0 0 0 0 0 0 0 0 0 0 0 0 0 0 0 0 0 0 0 0 0 0 0 0
29 26 26 23 19 13 6 3 3 3 3 3 0 3 3 3 3 3 0 0 0 0 0 0 0 0 0 0 0 0 0 0 0 0 0 0 0 0 0 0 0 0 0
19 26 23 23 16 6 3 3 3 3 3 0 0 0 3 3 3 3 3 0 0 0 0 0 0 0 0 0 0 0 0 0 0 0 0 0 0 0 0 0 0 0 0
19 26 26 19 13 6 6 3 3 3 3 0 0 0 0 0 0 0 3 3 0 0 0 0 0 0 0 0 0 0 0 0 0 0 0 0 0 0 0 0 0 0 0

GEFSSE_con_cape1000_120.txt.gz
Probability
19 81 100 100 100 100 100 100 100 100 100 100 100 100 100 100 100 100 100 100 100 90 90 90 87 90 90 94 94 94 94 97 97 97 97 97 97 97 97 94 94 74 94
32 94 100 100 100 100 100 100 100 100 100 100 100 100 100 100 100 100 100 100 100 94 90 94 90 94 94 97 94 94 94 100 97 97 97 97 97 97 97 87 94 94 94
68 97 100 100 100 100 100 100 100 100 100 100 100 100 100 100 100 100 100 100 97 97 100 100 94 97 97 97 94 94 97 100 100 97 97 87 94 97 97 100 100 97 100
81 94 100 100 100 100 100 100 100 100 100 100 100 100 100 100 100 100 100 100 100 100 100 100 94 97 97 97 97 100 97 100 97 94 87 77 81 97 100 100 100 100 100
87 94 100 100 100 100 100 100 100 100 100 100 100 100 100 100 100 100 100 100 100 100 100 94 87 90 94 94 97 100 100 100 84 74 90 84 94 100 100 100 100 100 100
94 97 100 100 100 100 100 100 100 100 100 100 100 100 100 100 100 97 97 97 100 100 94 87 90 90 90 97 97 100 100 94 68 48 81 84 97 100 100 100 100 100 100
90 100 100 100 100 100 100 100 100 100 100 100 100 100 100 100 100 97 97 94 90 90 87 87 84 84 84 81 90 97 100 74 39 35 65 87 97 100 100 100 97 97 97
90 97 100 100 100 100 100 100 100 100 100 100 100 100 100 97 97 94 90 81 87 84 84 81 74 81 77 77 90 97 90 71 29 23 52 90 100 100 100 97 97 97 97
87 94 94 94 94 100 97 100 100 100 100 100 100 100 100 94 87 90 84 77 77 74 68 65 65 74 71 71 74 87 74 61 29 35 35 94 100 100 94 97 97 97 97
84 90 94 90 94 97 94 97 100 100 100 100 100 100 97 90 84 84 84 81 74 68 68 65 71 65 68 77 81 81 77 52 29 26 58 90 100 90 90 87 94 97 97
84 87 90 87 97 100 94 94 97 97 97 94 100 100 90 77 71 74 74 81 81 71 68 55 58 65 65 71 81 87 71 32 23 19 77 94 100 90 84 84 84 87 90
90 87 87 87 90 90 94 94 94 94 97 97 97 94 84 81 71 65 77 71 65 58 58 58 52 42 35 52 68 68 42 32 26 32 77 94 94 90 90 90 84 87 84
90 87 87 90 90 90 97 94 94 94 97 97 97 94 94 84 77 71 74 77 77 58 55 45 32 23 26 45 55 52 39 26 26 16 65 90 87 84 77 81 84 84 84
90 84 84 87 87 90 94 87 90 97 97 97 97 90 90 87 68 71 81 77 71 61 61 39 35 23 23 29 29 32 42 35 35 52 94 81 81 81 74 77 81 77 84
90 87 84 84 84 90 94 90 87 90 97 97 97 84 77 77 71 71 77 84 58 42 52 48 29 35 26 29 23 26 39 39 39 39 68 74 81 81 74 71 61 68 74
87 81 84 84 84 84 90 94 94 94 97 90 90 81 77 74 68 71 71 68 55 39 32 35 29 42 26 26 26 26 29 45 39 45 48 58 71 71 61 61 61 55 61
84 77 77 81 81 81 87 87 90 90 94 87 84 84 77 77 77 68 61 55 48 45 42 39 29 32 32 16 19 19 23 32 39 45 32 52 48 61 71 68 61 58 58
77 71 71 61 74 81 84 84 94 94 94 94 90 81 71 68 65 68 42 32 42 35 35 35 26 23 13 13 13 16 19 35 29 32 32 35 42 35 55 61 61 65 52
68 68 68 61 61 74 74 87 87 90 87 90 87 68 65 61 55 45 39 39 32 16 16 13 19 16 23 16 10 13 10 23 29 19 26 23 29 29 39 58 61 61 48
61 61 55 58 61 58 74 81 87 87 87 84 77 68 61 52 45 42 32 32 23 13 19 23 29 29 26 23 0 3 10 16 16 19 19 19 23 29 23 23 42 42 52
52 58 55 55 55 58 68 71 84 87 84 77 68 61 52 48 45 42 23 35 29 16 19 19 16 13 19 10 0 6 3 3 6 13 16 19 16 13 29 19 29 35 45
52 52 55 55 55 55 65 77 81 84 74 65 52 58 48 42 39 23 29 29 23 35 26 19 19 16 6 6 3 6 6 6 10 0 16 16 13 10 13 10 19 29 26
48 48 48 52 58 58 68 68 74 77 58 48 48 58 45 35 29 26 29 16 19 19 19 26 23 13 6 3 0 3 3 6 10 3 6 10 16 19 0 13 6 10 16
42 39 52 58 61 58 55 61 68 65 55 48 52 45 45 32 29 23 19 19 19 16 23 23 19 16 10 3 0 0 0 0 0 6 0 0 3 6 0 0 0 13 6
32 32 39 48 61 61 55 58 68 58 52 45 39 55 48 32 26 19 19 23 19 13 19 16 19 19 0 0 0 0 0 0 0 0 3 0 0 0 6 10 13 13 10
29 29 32 39 61 58 55 58 65 61 55 32 39 42 35 32 26 19 19 23 19 13 19 13 19 16 10 6 0 0 0 0 0 0 0 0 3 3 3 3 6 13 6

GEFSSE_con_cape1000_126.txt.gz
Probability
58 81 100 100 100 100 100 100 100 100 100 100 97 97 100 97 97 97 97 97 97 97 94 94 94 94 94 97 97 97 97 97 97 97 97 97 90 90 97 97 87 81 94
74 87 100 100 100 100 100 100 100 100 100 100 97 100 100 100 97 97 97 97 97 90 87 94 94 94 97 100 100 100 94 97 97 97 97 97 94 94 97 97 90 87 97
77 90 100 100 100 100 100 100 100 100 100 100 100 100 100 100 97 97 100 100 100 100 97 97 97 97 97 100 100 100 100 97 97 97 97 74 77 94 94 94 90 87 97
77 90 97 100 100 100 100 100 100 100 100 100 100 100 100 100 100 100 100 100 100 100 97 97 97 97 100 100 100 97 84 87 94 94 77 58 68 97 97 97 97 97 97
77 90 100 100 100 100 100 100 100 100 100 100 100 100 100 100 100 100 100 100 100 97 97 97 97 97 97 94 97 90 81 84 94 94 74 81 97 97 97 97 97 97 97
87 94 100 100 100 100 100 100 100 100 100 100 100 100 100 100 100 100 97 97 97 97 94 90 90 94 94 97 87 77 74 81 97 77 90 87 94 100 97 97 100 97 100
90 94 97 100 100 100 100 100 100 100 100 100 100 100 100 100 97 94 94 87 87 87 90 90 90 90 87 84 65 52 74 94 87 74 94 97 97 100 94 94 97 97 97
97 94 100 100 100 100 100 100 100 100 100 100 100 100 100 100 97 90 87 84 87 87 87 84 84 81 81 81 81 68 84 90 81 87 100 90 100 97 97 97 97 97 97
94 90 100 100 100 100 100 100 100 100 100 100 100 100 100 97 90 87 84 84 84 84 77 77 77 74 71 71 58 61 68 90 65 77 87 94 97 97 97 97 97 90 90
100 97 90 97 100 100 100 100 100 100 100 100 100 100 100 94 90 87 90 87 77 74 74 68 68 61 68 58 52 48 65 65 48 61 81 94 100 94 94 90 90 94 90
100 97 94 94 100 100 100 100 100 100 100 100 100 100 97 87 81 84 77 77 77 71 65 65 65 65 74 65 45 48 55 39 32 58 74 94 94 87 87 90 90 90 94
100 94 90 100 100 100 90 97 97 94 94 97 97 97 90 90 87 77 84 84 81 71 65 61 68 65 55 48 48 65 48 35 29 45 71 97 97 90 84 84 87 84 87
100 94 87 94 97 100 97 90 94 94 90 90 94 94 90 87 84 74 74 77 81 68 55 52 48 45 55 58 61 61 52 29 35 29 84 97 94 87 84 81 87 81 81
97 94 87 84 87 87 84 87 94 94 90 87 87 87 90 90 84 84 87 74 77 81 81 65 74 58 55 48 55 39 42 42 58 35 84 97 90 81 74 74 77 77 77
97 94 87 81 84 87 84 81 84 84 81 87 87 84 84 90 87 77 84 84 77 74 71 68 65 58 52 48 48 48 48 45 55 55 48 94 94 84 71 58 61 61 71
94 90 84 84 81 77 81 81 87 87 84 90 84 84 87 87 84 84 84 81 74 71 71 68 65 61 61 68 55 55 58 52 65 74 52 81 84 81 74 71 61 52 55
90 87 84 81 81 77 77 81 87 84 84 84 90 90 90 90 77 77 77 84 71 68 68 68 65 61 71 58 65 55 58 55 58 65 65 52 48 77 74 74 71 65 58
81 84 81 74 81 77 74 77 84 84 87 87 84 90 90 90 81 84 81 77 77 68 71 77 74 74 61 61 55 55 58 58 52 61 55 55 52 32 58 74 71 74 65
81 77 77 68 68 71 71 71 71 81 84 87 84 84 84 81 71 77 81 77 68 58 61 39 68 65 55 52 42 52 42 48 58 45 45 42 52 58 35 52 81 81 65
77 77 71 68 65 65 68 65 65 77 81 84 84 81 77 68 68 74 71 71 48 61 68 61 61 58 55 58 10 13 29 35 42 42 39 35 35 32 39 32 42 45 65
71 74 74 68 61 55 58 58 61 71 77 77 84 77 71 68 68 68 68 65 55 61 68 52 48 45 45 52 32 23 35 23 32 45 42 35 32 42 45 58 45 45 35
71 71 71 68 61 61 61 58 61 71 77 77 77 74 74 71 68 45 61 61 58 65 55 52 48 48 45 29 29 10 13 13 26 13 32 35 26 42 39 35 52 52 42
71 65 55 61 52 58 52 48 58 71 74 74 81 74 71 65 61 61 58 45 61 58 61 52 48 29 42 26 26 13 0 10 6 16 23 35 32 32 39 29 45 45 42
68 58 52 58 52 52 55 45 55 58 65 74 84 81 74 65 52 48 42 35 45 52 68 48 35 42 39 35 32 29 19 23 13 16 16 19 19 23 19 10 19 29 29
52 52 52 48 48 52 52 55 61 65 74 74 81 77 71 65 52 45 42 35 32 45 52 42 52 32 42 39 35 29 16 29 6 3 10 6 10 16 10 19 26 29 26
52 52 48 52 52 58 58 55 61 61 74 74 77 68 68 65 48 42 39 39 35 42 39 35 35 26 42 48 48 29 16 19 13 6 16 16 10 13 19 26 23 29 26

GEFSSE_con_cape1000_132.txt.gz
Probability
87 100 100 100 100 100 100 100 100 100 100 100 100 100 100 100 100 97 97 97 100 97 97 97 100 100 100 100 100 100 97 97 94 97 97 97 97 94 94 94 74 58 94
94 100 100 100 100 100 100 100 100 100 100 100 100 100 100 100 100 97 97 100 100 100 100 100 100 100 100 100 100 100 100 97 100 100 100 100 97 90 90 90 77 68 97
97 100 100 100 100 100 100 100 100 100 100 100 100 100 100 100 100 100 100 100 100 100 97 97 100 100 100 97 100 100 100 97 97 97 97 52 87 90 94 97 97 97 97
97 100 100 100 100 100 100 100 100 100 100 100 100 100 100 100 100 100 100 100 100 100 97 100 100 100 100 100 100 100 100 97 94 74 29 42 77 94 94 94 97 97 97
97 100 100 100 100 100 100 100 100 100 100 100 100 100 100 100 100 100 100 100 97 97 97 97 100 100 100 100 100 100 100 100 81 42 26 32 71 97 97 94 100 97 97
97 100 100 100 100 100 100 100 100 100 100 100 100 100 100 100 100 97 97 97 97 97 97 90 94 97 100 100 97 100 97 87 58 19 29 35 77 97 100 100 100 100 100
94 100 100 100 100 100 100 100 100 100 100 100 100 100 100 97 97 97 97 97 97 90 90 90 90 94 97 94 87 97 100 94 16 13 23 48 90 97 97 97 100 100 97
94 100 100 100 100 100 100 100 100 100 100 100 100 100 100 94 94 94 90 90 90 90 90 87 87 87 81 87 87 90 97 94 35 19 39 68 97 97 97 97 97 97 90
97 100 100 100 100 100 100 100 100 100 100 100 100 100 100 94 90 87 84 87 87 84 84 81 77 71 68 71 81 94 100 97 16 13 45 74 97 97 97 100 94 97 94
97 100 100 100 100 100 100 100 100 100 100 100 100 100 97 94 90 90 90 87 87 84 81 81 74 58 61 58 77 94 97 84 10 10 39 97 97 97 97 97 97 94 90
94 94 94 97 97 97 97 100 100 100 100 100 100 100 97 87 77 87 87 87 81 81 81 77 65 55 58 42 65 90 48 13 13 6 42 94 97 97 97 90 94 94 94
94 94 90 90 97 97 97 100 100 100 97 94 90 87 58 39 45 71 84 84 84 84 84 77 71 55 32 10 19 32 6 6 6 10 58 94 97 97 97 97 94 87 87
84 87 87 90 90 87 81 87 84 81 77 61 65 52 29 23 32 52 58 68 61 55 32 45 45 19 10 10 3 3 6 6 3 16 65 87 94 97 90 94 94 94 87
71 74 81 84 84 77 74 81 81 71 65 48 48 32 26 13 23 19 29 29 23 10 10 10 6 6 6 10 6 6 10 3 3 13 55 94 97 94 90 90 87 87 90
65 68 77 71 68 58 58 58 71 55 61 29 39 32 16 13 10 13 16 16 16 6 3 3 3 3 3 6 3 6 10 3 6 13 42 94 97 97 94 90 90 84 84
65 65 65 68 61 48 45 42 52 45 32 26 23 26 23 13 13 10 10 3 6 0 0 0 3 0 0 0 0 3 3 3 6 19 26 81 94 97 94 87 84 81 77
65 65 58 65 55 39 35 39 42 39 35 26 29 19 16 13 13 13 3 3 3 3 3 3 3 0 0 0 0 6 3 3 6 6 13 19 48 90 97 94 90 84 77
58 61 55 71 48 45 39 39 45 39 29 29 26 23 16 16 10 13 10 3 3 3 0 0 0 0 0 0 0 3 3 3 3 6 6 10 13 26 74 90 90 87 77
58 52 52 45 45 48 42 39 42 32 29 23 16 16 19 13 10 10 6 6 3 0 0 0 0 0 0 0 0 0 0 3 3 3 3 6 3 3 19 48 87 81 71
61 52 45 42 42 32 32 32 29 29 32 23 13 13 13 16 13 13 3 3 3 0 0 0 0 0 0 0 3 0 0 0 0 0 3 6 0 0 0 13 32 48 74
61 45 45 39 42 35 35 32 26 23 19 16 13 16 10 10 10 10 13 6 3 0 0 0 0 0 0 0 0 0 0 0 0 0 0 0 3 6 3 0 3 6 23
65 42 42 39 35 39 35 32 19 16 19 16 19 13 13 13 10 10 3 6 6 0 0 0 0 0 0 0 0 0 0 0 0 0 0 0 0 3 3 3 3 3 0
48 45 42 29 32 26 26 23 13 10 0 0 13 10 13 16 10 13 3 3 3 0 0 0 0 0 0 0 0 0 0 0 0 0 0 0 0 0 3 3 3 3 0
42 42 32 32 26 26 26 23 16 10 3 0 6 10 10 16 16 16 10 3 3 3 3 0 0 0 0 0 0 0 0 0 0 0 0 0 0 0 0 0 0 0 0
39 32 23 29 29 26 26 19 16 6 0 0 0 6 10 10 16 16 10 10 3 0 0 0 0 0 0 0 0 0 0 0 0 0 0 0 0 0 0 0 0 0 0
32 29 19 23 29 26 26 19 16 6 0 0 0 3 6 6 6 13 10 6 3 0 3 3 0 0 0 0 0 0 0 0 0 0 0 0 0 0 0 0 0 0 0

GEFSSE_con_cape1000_138.txt.gz
Probability
61 94 100 100 100 100 100 100 100 100 100 100 100 100 100 100 100 100 100 100 97 97 97 97 97 97 97 94 90 90 94 97 94 94 87 87 87 87 87 77 77 71 81
74 94 100 100 100 100 100 100 100 100 100 100 100 100 100 100 100 100 100 97 97 97 97 100 97 97 97 94 94 87 90 97 94 94 84 87 90 84 87 77 81 74 84
90 97 100 100 100 100 100 100 100 100 100 100 100 100 100 100 100 100 97 100 100 100 100 100 100 97 100 97 94 97 100 97 94 90 84 77 81 84 84 90 87 84 87
97 97 94 100 100 100 100 100 100 100 100 100 100 100 100 100 100 100 100 97 97 97 100 100 100 100 100 97 100 100 100 97 84 77 58 68 81 87 90 97 90 90 84
100 97 100 100 100 100 100 100 100 100 100 100 100 100 100 100 100 100 97 97 97 100 100 100 100 100 100 97 94 100 100 87 81 55 39 58 87 90 94 94 94 94 87
100 100 100 100 100 100 100 100 100 100 100 100 100 100 100 100 100 97 97 97 97 100 100 100 100 100 97 94 94 97 94 84 52 29 52 61 84 97 90 97 97 97 90
100 100 100 100 100 100 100 100 100 100 100 100 100 100 100 100 97 97 94 94 94 94 94 94 94 97 100 100 94 90 90 77 23 32 52 68 87 100 94 94 94 94 90
100 100 100 100 100 100 100 100 100 100 100 100 100 100 100 97 94 90 94 90 90 90 90 90 94 94 97 100 97 97 87 65 35 32 55 74 97 97 97 97 94 90 94
100 100 100 100 100 100 100 100 100 100 100 100 100 100 94 94 94 90 87 90 90 87 87 87 84 87 94 97 100 90 90 71 13 39 52 90 97 97 97 97 90 90 84
100 100 100 100 97 100 100 100 100 100 100 100 100 97 94 90 90 87 87 90 87 87 87 81 71 74 84 90 94 94 90 68 16 29 68 94 97 97 94 90 90 90 90
100 100 100 97 97 97 100 100 100 100 100 100 100 100 94 81 81 81 84 87 81 81 81 77 74 74 84 87 90 90 71 16 19 39 74 94 97 97 87 94 84 87 87
94 94 90 90 94 97 100 100 97 100 100 100 94 84 55 52 68 77 87 87 81 71 74 81 81 55 19 23 74 74 16 13 23 26 61 94 97 94 90 94 90 90 94
87 94 90 90 90 84 87 94 90 87 77 74 68 45 39 29 42 42 55 65 61 55 29 35 23 3 6 3 13 13 10 10 23 29 68 90 97 94 87 87 81 84 90
68 87 94 87 84 77 77 87 77 71 65 55 35 26 13 13 16 16 23 23 26 13 10 6 3 3 3 3 10 13 10 10 13 29 68 90 97 90 84 81 77 77 81
65 74 74 77 77 61 61 71 68 61 55 39 32 23 13 10 6 6 13 13 6 0 3 6 3 0 3 10 10 10 13 13 13 19 61 87 97 90 90 81 81 81 81
52 61 74 77 65 52 55 48 42 52 45 29 23 16 10 6 6 10 10 6 3 0 0 0 0 0 0 3 10 10 10 13 13 19 35 74 87 90 90 74 71 81 77
42 45 58 61 42 42 45 39 39 35 29 23 13 10 6 6 6 10 3 0 0 0 0 0 0 0 0 0 3 10 3 6 10 13 26 39 68 94 94 94 87 71 71
32 45 48 55 39 45 35 26 23 19 16 16 6 3 6 6 6 6 3 0 0 0 0 0 0 0 0 0 0 3 3 6 10 10 16 29 29 48 77 74 77 74 65
32 39 42 39 35 32 23 16 10 6 3 13 0 3 10 13 6 3 0 0 0 0 0 0 0 0 0 0 0 0 3 3 3 6 6 13 23 19 29 42 61 68 68
32 32 35 32 32 32 16 10 3 3 0 0 0 0 6 13 10 3 0 0 0 0 0 0 0 0 0 0 0 0 0 3 3 3 3 10 13 16 16 26 35 48 61
32 32 35 29 23 16 13 13 3 3 0 0 3 3 10 10 10 3 3 0 0 0 0 0 0 0 0 0 0 0 0 0 0 3 3 3 3 6 10 10 23 29 35
26 19 26 23 16 16 16 13 6 3 0 3 3 0 3 10 10 3 0 0 0 0 0 0 0 0 0 0 0 0 0 0 0 0 0 0 3 6 10 3 3 6 10
26 23 19 16 19 10 16 13 6 0 0 0 0 0 0 6 3 3 3 0 3 3 0 0 0 0 0 0 0 0 0 0 0 0 0 0 0 0 6 6 3 3 6
32 29 16 16 13 13 10 13 6 3 3 0 0 0 0 0 6 3 3 3 3 3 0 0 0 0 0 0 0 0 0 0 0 0 0 0 0 0 0 0 3 3 3
29 23 19 10 13 10 10 13 6 3 3 0 0 0 0 0 0 3 3 3 3 3 0 0 0 0 0 0 0 0 0 0 0 0 0 0 0 0 0 0 0 0 3
23 19 23 10 10 6 10 6 10 3 3 0 0 0 0 0 0 0 3 3 3 3 0 0 0 0 0 0 0 0 0 0 0 0 0 0 0 0 0 0 0 0 0

GEFSSE_con_cape1000_144.txt.gz
Probability
6 48 100 100 94 100 100 100 100 100 100 100 100 100 100 100 100 100 100 100 94 97 97 97 97 94 94 94 94 90 94 97 97 87 87 90 90 90 87 84 74 58 77
16 68 97 97 97 97 100 100 100 100 100 100 100 100 100 100 100 100 100 97 97 97 97 97 97 94 94 94 90 90 90 87 90 90 90 87 84 84 81 84 84 81 87
52 87 97 97 97 97 100 100 100 100 100 100 100 100 100 100 100 97 97 97 97 97 97 97 94 94 94 94 94 97 94 90 90 90 90 55 55 77 81 81 87 94 90
58 87 94 97 97 97 100 100 100 100 100 100 100 100 100 100 100 97 100 100 100 100 100 100 100 100 100 97 97 97 87 90 84 87 52 42 45 84 84 90 87 84 87
74 90 97 97 97 100 100 100 100 100 100 100 100 100 100 100 100 100 97 100 100 100 100 100 100 100 100 100 100 94 84 81 65 52 45 68 81 94 87 87 87 84 84
87 90 97 97 97 100 100 100 100 100 100 100 100 100 100 97 97 97 100 100 100 100 100 100 100 100 100 97 90 87 87 71 55 32 48 61 77 90 87 81 87 84 87
77 90 97 100 100 100 100 100 100 100 100 100 100 100 97 97 97 97 97 97 100 100 100 97 100 100 97 100 87 81 74 55 16 35 58 68 90 90 87 87 87 97 87
68 87 100 100 100 100 100 100 100 100 100 100 100 100 97 97 97 97 97 94 90 94 97 97 94 97 97 97 90 87 65 35 3 10 48 77 90 90 94 94 87 84 87
68 94 97 97 100 100 100 100 100 100 100 100 100 97 97 97 94 90 90 90 90 94 94 94 94 90 97 97 94 90 65 39 19 29 26 84 87 94 87 87 87 87 84
74 90 97 94 97 100 100 100 97 97 97 97 97 94 94 90 90 87 90 90 90 90 90 81 84 81 84 94 90 87 68 39 19 19 48 84 97 90 90 84 84 84 77
81 94 94 90 97 94 97 94 97 97 97 97 94 94 90 87 84 84 87 90 87 87 77 77 77 74 84 84 87 90 74 26 19 23 65 87 97 87 71 77 81 84 77
97 87 94 94 97 94 94 97 97 94 97 97 97 97 94 94 87 77 87 90 87 81 71 71 61 52 58 58 68 84 32 16 19 29 81 94 90 81 71 74 77 74 77
97 94 87 94 97 90 97 97 97 97 97 97 100 90 94 94 87 81 90 84 87 74 55 55 42 19 23 45 52 39 19 16 13 32 74 94 94 84 77 77 74 77 77
97 97 87 94 97 97 97 100 100 100 100 97 100 87 87 90 87 84 84 71 74 74 71 39 39 26 26 39 42 29 26 16 13 45 87 77 81 77 77 74 68 71 84
100 100 97 97 100 100 100 100 97 90 90 94 100 87 87 81 81 71 77 77 45 61 65 61 35 42 45 32 35 32 29 23 13 26 68 81 77 77 81 65 65 68 68
100 100 100 100 100 100 100 100 94 87 100 90 97 84 77 71 81 74 81 77 42 35 32 39 29 58 35 39 26 35 32 29 26 39 39 61 77 74 74 61 58 68 65
97 100 100 97 100 100 100 100 97 90 90 97 97 94 74 68 81 71 65 71 42 42 61 55 42 39 42 35 32 29 32 39 32 29 29 42 52 68 77 74 61 55 61
90 97 90 87 94 100 97 97 90 90 87 90 94 90 81 65 74 77 61 45 55 42 42 48 32 29 19 16 35 35 32 48 29 26 26 35 39 35 58 71 65 68 65
94 97 87 77 90 90 90 90 84 84 94 84 84 90 87 77 68 61 61 61 61 39 39 19 23 23 23 23 13 32 16 23 26 16 19 13 19 29 39 65 71 71 55
94 97 87 84 90 84 90 87 81 77 84 81 81 87 81 71 71 48 61 74 45 42 39 45 42 55 35 35 0 10 10 19 13 10 16 16 19 13 16 16 35 45 61
84 84 84 77 74 77 77 74 68 71 77 81 74 74 81 71 61 68 45 77 65 48 52 23 42 39 32 39 23 13 13 6 10 16 13 16 13 10 16 19 26 29 42
77 74 77 74 74 71 77 77 74 74 74 65 68 77 71 68 61 55 77 65 65 74 61 52 55 35 39 32 16 19 19 23 19 3 13 16 13 10 10 13 26 39 26
77 74 65 65 74 71 74 71 61 68 68 52 61 55 68 68 58 61 65 58 71 45 45 55 58 48 39 19 23 16 16 13 10 10 6 10 13 13 13 10 13 32 29
74 68 61 61 61 65 65 61 58 55 48 58 58 52 61 58 61 55 65 68 68 45 61 48 39 45 52 42 23 19 13 6 6 6 13 10 13 13 6 10 3 13 26
71 61 55 58 61 65 65 65 61 52 55 52 58 48 58 55 45 48 61 58 58 55 55 48 52 52 45 45 26 16 13 16 10 10 10 3 6 3 10 13 10 10 16
65 58 55 58 65 65 58 55 55 48 48 52 55 42 48 58 55 52 52 55 52 42 45 48 52 58 48 45 42 19 16 23 23 19 10 13 13 0 6 10 10 16 10

GEFSSE_con_cape1000_150.txt.gz
Probability
42 84 97 97 100 100 100 100 100 100 100 100 100 100 100 100 100 100 100 100 97 97 97 97 94 94 94 94 94 94 90 90 90 94 94 87 87 87 84 87 77 61 84
55 94 97 97 100 100 100 100 100 100 100 100 100 100 100 100 100 100 97 97 97 97 97 94 94 94 94 94 94 90 94 90 90 94 84 81 81 84 84 84 77 68 87
65 90 97 97 100 100 100 100 100 100 100 100 100 100 100 100 97 97 97 97 97 97 97 94 94 94 94 90 90 94 90 90 94 87 81 35 65 84 87 90 84 90 84
58 84 94 100 97 100 100 100 100 100 100 100 100 100 100 97 97 97 97 97 100 97 97 97 100 100 94 90 94 90 81 77 87 84 52 26 32 81 87 81 87 84 77
81 94 97 100 97 97 100 100 100 100 100 100 100 100 97 97 97 100 100 100 100 100 100 100 100 97 97 94 87 81 74 68 84 71 48 48 58 84 84 81 87 90 84
97 94 97 100 97 97 100 100 100 100 100 100 97 97 97 100 100 100 100 100 100 100 100 100 97 100 97 87 68 55 65 74 84 52 61 52 71 87 84 81 81 84 87
84 97 97 97 97 97 97 100 100 100 100 100 97 97 97 97 100 100 100 100 100 100 100 97 97 97 94 68 48 48 55 74 65 55 71 65 84 87 87 81 87 90 90
90 87 94 94 94 94 97 100 100 100 100 97 97 97 97 97 97 97 100 97 97 97 97 97 97 97 90 71 48 58 65 81 71 58 71 71 84 87 84 87 90 90 87
87 87 90 90 94 94 100 100 100 100 100 97 97 97 97 97 97 97 94 94 97 94 94 90 87 87 94 68 52 48 65 84 58 48 42 68 84 84 81 77 81 77 84
90 81 84 87 90 90 97 100 100 100 100 97 97 97 97 97 94 94 94 94 94 87 87 90 87 84 87 68 55 52 68 74 32 39 42 71 84 81 77 74 81 84 84
87 81 81 87 90 90 94 100 100 100 97 97 97 97 94 90 90 94 87 94 90 84 77 77 81 81 87 74 68 68 68 42 29 39 45 84 81 74 74 77 77 81 77
90 81 94 87 87 94 94 100 100 97 100 97 97 97 97 94 94 90 94 94 90 84 77 81 90 87 77 39 45 74 61 48 48 39 61 90 81 68 71 74 77 77 74
84 81 84 87 94 94 97 97 97 97 100 100 97 97 94 90 90 87 90 94 94 87 84 77 71 45 52 71 65 65 61 19 26 23 71 94 87 71 71 68 74 74 71
84 81 84 90 90 94 94 94 97 97 97 97 100 94 90 90 87 81 90 90 94 90 94 74 87 77 61 61 52 55 32 32 32 32 71 87 87 81 71 65 65 68 68
97 94 94 97 97 100 100 100 94 97 97 97 97 97 94 84 87 87 87 87 94 94 90 84 81 74 71 65 55 52 39 39 52 35 42 90 90 81 84 61 61 65 61
97 97 100 97 100 100 100 100 97 94 94 97 100 94 94 87 87 87 90 90 90 97 90 94 77 77 77 84 77 61 45 55 61 55 39 74 84 84 84 68 68 61 58
94 100 97 97 97 97 97 100 97 94 94 94 100 97 94 90 90 90 87 87 84 90 87 90 84 81 77 84 84 71 71 65 58 58 48 45 45 77 81 71 71 65 61
100 100 97 94 94 94 94 97 100 94 90 90 94 94 90 94 87 87 90 87 87 90 90 94 84 74 84 81 81 77 71 81 74 68 65 55 42 23 61 77 77 71 65
100 100 97 94 94 94 94 94 87 87 90 87 90 87 90 90 84 90 87 87 81 87 87 81 84 81 87 81 74 74 71 71 65 48 65 58 55 48 29 61 84 81 77
100 97 97 94 94 90 81 84 90 84 84 84 87 87 87 90 87 87 87 87 77 81 81 84 84 81 81 87 26 26 48 65 68 55 52 39 52 45 29 19 48 58 74
100 100 97 94 94 87 81 81 74 81 84 84 84 84 90 84 84 90 81 87 77 84 77 65 68 71 77 84 74 39 48 42 45 58 42 32 32 35 32 45 29 35 26
100 100 94 90 90 84 81 81 77 81 84 81 84 84 77 84 90 65 90 84 81 87 84 81 81 77 65 65 74 35 26 29 39 10 45 42 35 39 35 29 45 55 42
97 94 90 90 81 81 81 81 77 74 81 87 81 84 77 77 87 87 87 77 87 84 84 87 84 77 68 55 55 42 19 23 29 42 32 26 45 45 35 26 45 65 52
97 94 90 87 81 81 81 77 74 68 61 77 84 81 77 77 74 77 81 77 81 90 90 81 71 84 68 55 55 55 42 29 19 26 23 35 35 39 32 13 13 39 52
81 77 87 87 84 81 81 81 81 68 74 74 81 81 81 77 74 68 77 81 77 84 87 81 77 77 77 55 55 42 45 42 23 16 10 23 29 39 42 35 35 32 39
77 81 84 84 84 81 74 74 74 71 58 65 71 81 87 77 74 71 74 84 87 87 90 81 74 71 74 68 68 55 35 32 23 23 10 16 16 16 26 29 35 29 32

GEFSSE_con_cape1000_156.txt.gz
Probability
87 100 100 100 100 97 100 100 100 100 100 100 100 100 100 100 100 100 100 100 97 97 97 97 97 97 97 97 94 90 90 90 87 87 87 87 87 87 87 87 87 65 87
90 100 100 100 100 100 100 100 100 100 100 100 100 100 100 100 100 100 100 100 97 97 97 97 97 94 94 97 90 90 90 94 94 84 87 87 87 94 90 87 84 74 87
94 100 100 100 100 100 100 100 100 100 100 100 100 100 100 100 100 100 100 100 94 94 94 94 94 94 90 90 90 90 87 90 90 87 71 35 68 94 97 97 94 90 87
94 97 100 100 100 100 100 100 100 100 100 100 100 100 100 100 100 100 100 97 97 100 97 97 94 94 94 90 90 90 81 84 81 55 16 23 39 81 94 94 94 90 84
84 97 100 100 100 100 100 100 100 100 100 100 100 100 100 100 100 100 100 97 100 100 97 90 90 94 90 94 94 90 90 87 71 19 10 13 48 87 94 90 94 94 87
90 97 100 100 100 100 100 100 100 100 100 100 100 100 100 100 100 100 100 100 100 100 94 94 94 94 94 94 90 87 87 77 29 10 13 29 52 90 94 94 94 87 84
94 97 97 100 100 100 100 100 100 100 100 100 100 100 100 100 100 100 100 100 100 100 97 94 94 90 84 81 81 87 84 68 6 10 16 39 68 94 94 90 87 81 84
94 94 97 100 100 100 100 100 100 100 100 97 97 97 100 100 100 100 100 100 100 100 100 94 94 90 81 81 81 87 84 68 19 13 23 52 87 90 94 90 81 81 74
87 90 94 94 94 100 100 100 100 100 97 97 97 97 97 97 97 100 100 100 97 97 100 97 84 81 77 71 74 74 90 71 3 16 32 58 87 90 94 90 87 84 81
87 90 94 90 94 94 97 100 100 100 97 97 97 97 97 97 97 94 94 97 97 97 94 87 68 68 77 74 71 77 90 52 6 16 32 68 84 87 81 90 90 77 77
87 90 90 84 87 90 90 97 97 94 97 97 97 97 97 87 94 94 94 94 97 94 94 87 74 71 74 61 65 74 45 6 13 19 32 81 81 81 81 94 84 84 77
68 81 84 84 81 84 90 97 94 94 97 94 90 90 74 61 65 81 94 94 90 94 94 90 84 74 45 16 23 42 6 6 13 16 58 81 81 77 81 77 77 81 77
65 71 77 74 81 81 87 87 81 81 77 65 68 68 58 52 58 65 68 87 71 71 45 58 58 45 23 0 3 3 3 6 6 23 68 81 87 77 81 77 81 77 74
71 68 61 68 71 61 74 77 74 74 65 65 61 58 35 35 32 26 39 32 26 19 16 16 19 10 6 3 6 6 3 3 6 23 55 77 81 84 81 71 74 77 74
58 61 58 61 68 58 61 65 68 61 55 52 58 55 39 29 19 19 16 13 13 10 6 10 10 0 0 6 6 10 6 10 6 19 52 81 77 87 81 77 71 68 68
58 65 52 68 58 58 45 45 48 52 35 39 42 42 39 19 16 16 13 13 6 3 3 3 0 0 0 3 0 3 3 3 6 10 16 65 90 90 87 81 77 74 68
61 58 65 74 68 61 52 42 42 39 39 39 42 29 39 23 10 13 6 10 10 3 3 3 0 3 0 3 3 3 3 3 3 6 10 13 48 84 90 87 84 81 77
58 55 68 77 68 55 52 52 42 45 39 39 39 32 35 32 16 13 10 13 10 6 3 6 3 0 0 0 0 3 0 0 3 3 6 10 13 32 68 90 90 90 74
61 61 71 68 65 58 58 52 45 35 39 32 32 35 32 39 16 13 6 10 6 6 3 3 0 0 0 0 0 0 0 0 3 3 3 3 3 3 13 48 94 100 84
71 65 71 77 71 61 58 61 45 35 32 26 26 29 32 35 26 16 13 3 6 3 0 3 0 0 0 0 0 0 0 0 3 3 3 3 3 3 3 3 29 61 87
77 77 77 77 74 68 65 52 42 45 32 29 26 29 32 26 32 19 19 6 3 3 3 0 0 0 0 0 0 0 0 0 0 0 0 3 3 3 3 3 3 3 6
71 74 71 71 65 68 61 45 32 35 26 23 19 19 32 26 26 29 3 6 3 3 0 0 0 0 0 0 0 0 0 0 0 0 0 0 3 3 6 6 3 3 0
74 71 74 68 65 61 52 42 35 26 26 23 19 26 26 23 23 16 6 6 6 3 0 0 0 0 0 0 0 0 0 0 0 0 0 0 0 0 3 3 3 3 0
71 68 68 58 58 52 42 39 29 26 26 16 13 19 19 23 29 26 16 10 6 3 0 0 0 0 0 0 0 0 0 0 0 0 0 0 0 0 0 3 3 3 3
71 68 65 58 52 52 48 39 29 26 13 10 6 10 19 19 23 26 19 10 6 6 0 0 0 0 0 0 0 0 0 0 0 0 0 0 0 0 0 0 0 0 0
61 65 58 55 52 45 48 35 32 26 19 13 10 13 13 16 16 19 23 6 3 3 0 3 0 0 0 0 0 0 0 0 0 0 0 0 0 0 0 0 0 0 0

GEFSSE_con_cape1000_162.txt.gz
Probability
48 77 100 100 100 100 100 100 100 100 100 100 100 100 100 100 100 100 100 100 100 97 97 97 97 97 97 97 97 97 90 87 94 94 87 84 87 81 90 90 81 61 84
65 87 100 100 100 100 100 100 100 100 100 100 100 100 100 100 100 100 100 97 97 97 97 97 94 97 97 97 94 94 90 87 90 87 84 87 81 81 84 74 71 74 81
81 84 97 100 100 100 100 100 100 100 100 100 100 100 100 100 97 97 97 97 97 94 94 94 94 97 94 94 94 90 94 94 90 90 84 68 81 87 87 77 77 77 90
84 84 94 100 100 100 100 100 100 100 100 100 100 100 100 100 97 97 94 94 94 97 97 94 90 94 94 94 94 90 84 87 87 55 32 45 61 84 87 87 84 74 74
84 90 94 100 100 100 100 100 100 100 100 100 100 100 100 100 100 100 94 97 97 97 94 94 94 94 94 94 94 94 87 81 65 29 26 42 71 90 90 87 87 81 77
90 94 100 100 100 100 100 100 100 100 100 100 100 100 100 100 100 100 97 97 94 94 94 94 94 94 94 90 90 94 87 71 29 23 35 48 68 90 87 90 87 84 84
84 94 100 100 100 100 100 100 100 100 100 100 100 100 100 100 100 100 97 97 94 94 97 97 100 97 97 90 87 90 81 61 13 26 42 45 87 90 84 81 74 74 77
84 94 100 100 100 100 100 100 100 100 100 100 100 100 100 100 100 100 100 97 97 94 97 100 97 100 97 90 87 84 68 52 39 29 39 55 90 90 87 74 77 81 81
90 90 90 100 100 100 100 100 100 100 100 100 100 100 100 100 100 100 100 100 97 97 97 94 94 90 90 90 94 87 71 55 23 35 39 68 94 90 84 81 77 71 81
84 87 87 87 97 100 100 100 97 97 97 97 97 97 97 97 97 97 97 97 97 90 87 87 90 84 87 87 90 84 74 42 19 32 52 65 94 84 77 71 71 81 74
90 90 84 84 87 87 94 97 97 97 97 97 97 97 94 90 90 94 94 97 97 87 84 84 74 74 77 87 90 87 58 23 13 39 58 81 81 77 77 68 61 71 77
81 84 68 68 77 84 90 84 94 94 90 90 81 81 71 68 77 87 94 94 87 84 81 77 84 55 35 26 71 42 16 13 16 48 61 84 81 77 77 71 71 65 68
58 81 68 68 68 77 77 81 77 81 77 77 71 58 42 48 52 58 61 74 58 48 35 35 35 16 19 13 13 10 6 6 16 39 55 77 87 81 68 61 65 61 68
42 65 58 65 68 61 74 77 74 58 58 55 42 42 29 35 35 29 29 26 19 16 16 13 16 10 10 13 3 3 3 10 13 35 52 68 84 81 71 58 68 68 61
39 58 58 61 52 42 52 68 71 55 48 45 32 32 26 23 16 16 13 13 13 16 13 13 10 6 3 10 6 10 10 13 16 32 55 71 77 77 71 68 58 65 68
32 45 58 55 48 39 39 35 48 45 32 29 26 23 13 13 10 3 3 3 3 6 3 6 3 0 0 6 10 10 6 10 16 23 39 61 65 77 74 68 68 68 65
29 42 39 48 52 35 26 26 23 32 32 26 19 13 10 10 6 6 3 3 3 0 3 0 0 0 0 3 3 6 6 6 13 19 23 48 58 68 71 74 77 74 65
35 35 32 45 45 39 23 19 16 19 26 19 19 13 13 10 6 3 3 3 3 0 0 0 0 0 0 3 3 3 0 6 6 6 16 29 32 48 58 68 84 84 81
35 39 32 39 39 32 23 10 10 6 10 16 10 10 13 6 6 6 6 3 0 0 0 0 0 0 0 0 0 0 0 0 6 6 10 10 23 32 42 48 77 81 71
32 23 26 26 26 23 19 16 6 3 6 6 10 6 10 6 13 6 6 3 3 3 0 0 0 0 0 0 0 0 0 0 0 3 3 3 3 6 16 19 52 52 71
32 26 23 26 19 19 16 16 10 6 6 3 6 6 10 10 10 10 10 6 3 3 0 0 0 0 0 0 0 0 0 0 0 0 3 3 3 3 3 6 19 23 29
39 29 29 32 26 23 16 13 13 6 6 6 10 6 10 16 13 10 6 6 3 3 0 0 0 0 0 0 0 0 0 0 0 0 0 0 3 6 6 6 6 13 16
42 29 35 23 19 19 13 6 10 10 6 10 10 10 10 16 13 13 13 6 3 3 0 0 0 0 0 0 0 0 0 0 0 0 0 0 0 3 3 6 6 6 6
42 29 23 19 19 16 16 16 16 13 10 10 10 10 13 3 13 13 10 6 3 3 0 0 0 0 0 0 0 0 0 0 0 0 0 0 0 0 0 3 3 6 6
39 29 23 29 26 19 16 16 10 10 10 10 3 6 6 3 3 10 6 10 6 6 0 0 0 0 0 0 0 0 0 0 0 0 0 0 0 0 0 0 0 3 3
42 45 32 26 23 26 23 16 16 6 6 3 3 3 3 3 3 3 10 10 6 6 3 3 0 0 0 0 0 0 0 0 0 0 0 0 0 0 0 0 0 0 0

GEFSSE_con_cape1000_168.txt.gz
Probability
10 26 94 97 100 100 100 100 100 100 100 100 100 100 100 100 97 97 100 100 100 97 97 97 94 97 97 97 97 97 97 97 90 90 87 94 90 87 87 81 81 55 84
13 45 100 100 100 100 100 100 100 100 100 100 100 100 100 100 100 100 100 97 97 97 97 94 94 97 97 97 94 94 94 94 90 90 90 84 87 77 87 87 81 77 84
19 58 90 100 100 100 100 100 100 100 100 100 100 100 100 100 100 100 97 97 97 97 94 94 94 94 94 94 97 97 97 94 81 77 84 55 68 74 84 84 81 84 87
26 45 84 100 100 100 100 100 100 100 100 100 100 100 100 100 100 97 97 97 97 94 94 94 94 90 90 94 90 90 94 81 77 77 48 45 55 68 81 81 81 87 84
45 81 97 100 100 100 100 100 100 100 100 100 100 100 100 100 100 97 97 97 97 97 97 90 90 94 90 94 87 87 87 65 55 42 48 68 74 81 84 90 84 81 84
55 65 97 100 100 100 100 100 100 100 100 100 100 97 97 100 100 100 97 97 94 97 97 94 94 94 94 94 90 87 74 55 52 32 48 71 87 87 77 84 81 81 81
48 71 81 97 100 100 100 100 100 100 100 100 100 97 97 100 97 97 97 97 97 97 94 94 94 94 94 90 90 74 55 39 23 35 48 84 84 90 84 81 81 84 84
52 71 87 97 94 100 100 100 100 100 100 100 100 100 100 100 100 97 97 100 100 100 97 97 94 94 94 94 87 71 45 35 23 23 48 77 87 90 81 77 84 84 87
45 68 77 77 94 94 100 100 100 100 100 100 100 100 100 100 100 100 97 100 100 100 97 94 94 90 87 90 84 68 39 42 13 26 48 77 71 87 77 74 77 77 84
45 61 74 68 81 84 87 94 97 97 97 97 97 97 97 100 100 100 100 100 97 90 87 87 77 81 87 81 77 61 35 42 23 23 55 65 77 87 71 71 74 74 77
45 52 55 71 74 77 74 90 97 97 97 97 97 97 97 87 71 90 87 97 87 84 84 84 81 77 77 81 74 65 45 23 23 32 61 65 71 65 61 61 61 68 74
52 52 65 68 74 71 58 94 94 90 94 90 90 94 90 84 81 74 90 84 81 77 74 68 65 58 61 61 55 55 35 16 19 32 61 77 74 71 65 58 65 65 65
55 55 58 68 81 68 71 71 87 84 94 90 90 87 90 81 74 71 71 77 77 71 65 68 45 42 32 58 45 29 23 13 26 29 48 71 77 68 68 61 55 55 65
48 55 48 68 77 77 74 65 74 81 84 77 94 87 84 71 74 71 71 65 68 65 68 55 48 45 45 39 29 19 16 13 23 32 77 71 71 68 65 68 61 48 55
55 55 65 74 87 94 94 81 71 74 74 71 84 87 77 61 61 61 74 68 55 45 48 68 42 52 48 35 26 26 29 19 10 19 61 71 74 65 55 55 61 52 48
61 61 71 84 90 94 94 94 77 74 87 68 71 74 74 65 58 65 74 74 45 52 42 42 48 48 48 39 35 32 32 29 35 35 29 71 61 68 65 71 55 65 58
65 71 77 81 81 84 87 77 77 74 71 71 71 84 81 55 71 71 48 68 52 55 52 55 52 39 52 39 39 29 26 29 29 35 26 52 65 55 58 61 68 68 58
71 74 84 58 74 84 87 87 81 65 74 84 84 77 81 68 74 81 61 55 65 58 58 61 35 32 32 42 32 42 48 55 32 32 29 32 45 39 48 61 71 74 58
77 90 87 74 77 81 84 84 81 84 87 81 81 77 77 71 58 74 77 71 71 55 58 52 45 35 35 42 26 55 32 39 35 23 19 19 23 42 52 65 65 71 71
84 84 90 87 77 77 81 87 84 81 84 84 77 81 74 77 68 71 81 74 61 61 65 65 61 65 48 42 3 16 29 29 32 29 16 16 23 16 23 32 45 48 65
74 87 87 81 84 87 81 81 84 87 87 84 74 71 74 77 77 81 68 77 77 61 61 42 45 35 39 45 23 19 26 13 29 35 29 26 19 19 26 39 48 45 61
77 84 87 84 87 84 87 90 77 77 74 71 68 81 84 74 71 71 77 74 74 87 74 68 65 42 32 35 19 23 13 19 26 3 26 32 23 19 29 19 48 55 52
81 81 77 84 87 87 81 74 68 71 71 71 74 81 71 74 71 81 74 74 74 71 68 81 81 68 45 32 35 26 19 23 10 19 26 19 32 19 23 19 32 48 58
77 81 84 90 87 87 81 71 68 71 65 65 77 71 65 71 68 77 77 81 90 77 87 77 45 58 61 42 42 55 32 16 13 13 23 26 39 42 29 19 19 32 48
81 81 81 81 87 84 81 71 71 65 68 61 65 77 77 77 74 68 87 90 94 87 90 84 68 68 52 45 39 35 39 45 29 23 23 26 39 29 32 39 39 35 42
81 77 81 81 84 81 77 74 71 71 68 65 68 68 68 74 68 65 81 87 87 87 87 87 81 71 68 61 55 52 55 39 35 35 23 35 35 26 29 42 32 39 35

GEFSSE_con_cape1000_174.txt.gz
Probability
35 65 97 100 97 100 100 100 100 100 100 97 97 100 100 100 100 100 100 97 94 94 94 94 90 90 90 90 84 81 84 87 90 90 90 87 81 87 90 81 74 58 84
52 77 97 97 100 100 100 100 100 100 100 100 100 100 100 100 100 100 100 94 94 94 94 94 94 94 97 97 90 94 87 77 87 87 87 87 94 90 87 84 81 68 84
55 84 90 97 100 100 100 100 100 100 100 100 100 100 100 100 100 100 97 94 94 94 94 94 94 94 94 94 97 90 81 77 84 84 87 55 68 94 90 84 84 84 84
45 65 90 100 100 100 100 100 100 100 100 100 100 100 100 100 100 97 94 94 94 94 90 94 87 84 84 84 87 87 74 74 74 77 58 32 45 81 84 84 84 81 81
77 94 94 97 100 100 100 100 100 100 100 100 100 100 97 97 97 94 94 94 94 94 94 94 90 87 84 84 84 74 61 58 74 61 58 52 65 87 84 74 77 81 77
74 81 94 97 100 100 100 100 100 100 100 100 100 94 94 97 94 94 94 94 94 94 90 90 90 90 87 74 61 65 58 61 71 52 61 52 65 74 77 77 74 74 77
74 74 84 100 100 100 100 100 100 100 100 100 97 94 94 97 94 94 94 94 90 87 87 94 90 87 81 61 48 52 55 74 68 45 61 52 77 87 81 81 77 77 74
65 74 90 100 100 100 100 100 100 100 100 100 97 97 97 97 94 100 90 90 94 90 90 90 90 84 77 52 45 45 58 65 58 55 58 61 77 77 77 74 74 74 77
61 61 77 90 97 100 100 100 100 100 100 100 100 100 97 100 100 97 90 94 97 94 90 87 81 77 68 52 42 45 65 77 45 48 35 58 77 74 71 81 77 68 71
61 61 74 84 90 90 94 94 97 97 97 97 100 100 97 100 97 97 97 100 90 77 71 71 71 65 61 48 45 48 68 77 32 29 45 61 77 74 74 74 74 71 68
55 61 65 71 87 74 81 94 94 97 97 97 97 97 100 87 84 97 94 90 81 74 74 77 77 74 68 55 45 58 61 52 26 39 39 65 77 77 71 71 68 71 68
58 61 71 71 81 77 81 87 90 87 94 94 94 97 97 94 97 87 94 94 81 77 74 77 87 81 68 35 45 65 48 45 26 29 45 77 77 61 68 71 68 68 61
61 65 61 71 77 71 90 87 90 87 94 90 90 97 90 84 87 81 84 84 94 68 74 77 81 58 65 65 68 55 39 26 23 16 55 77 77 61 55 61 61 61 68
55 52 61 61 94 94 94 84 87 84 90 84 90 90 87 87 87 81 90 97 97 94 97 87 94 65 55 48 48 39 26 29 32 29 52 74 77 71 48 48 52 48 61
71 55 94 94 94 94 90 94 81 90 84 81 94 94 90 87 81 77 84 90 87 90 94 87 87 81 68 55 45 39 26 32 42 39 29 71 71 71 65 52 48 42 45
77 77 94 94 94 94 94 87 90 81 87 81 87 87 90 94 81 84 81 84 87 87 90 97 84 74 77 77 68 45 45 42 68 55 39 65 74 74 71 58 45 29 42
81 87 94 90 94 94 94 84 81 84 77 87 90 84 87 84 74 74 84 81 84 87 94 94 90 81 84 81 74 65 68 61 58 65 52 48 48 74 84 81 68 55 39
84 90 94 71 90 97 94 90 84 84 84 87 87 87 81 87 74 74 77 81 84 87 94 100 94 94 81 81 81 77 74 84 77 74 68 68 55 23 55 77 81 77 55
94 97 97 94 97 94 94 90 87 87 90 94 90 90 90 87 84 77 81 84 87 90 97 77 90 90 90 84 74 71 81 84 90 52 58 65 71 65 23 55 77 84 74
94 94 94 97 94 90 87 90 90 90 90 87 90 90 84 87 81 84 87 84 84 90 94 94 97 94 90 90 39 45 65 68 84 74 55 39 35 39 35 29 45 55 77
94 94 97 97 94 94 90 87 90 87 87 87 87 84 81 87 84 84 84 87 87 90 94 90 81 77 74 84 77 61 65 52 48 55 65 42 29 35 45 55 23 29 26
94 94 97 97 94 94 90 90 94 90 90 90 90 84 84 84 90 74 84 84 90 84 84 87 81 77 71 77 77 52 42 39 55 19 45 48 35 29 32 35 48 68 39
94 94 90 94 94 94 94 94 87 94 90 87 81 84 87 84 81 90 87 87 90 81 84 87 84 81 71 68 77 55 32 26 29 39 42 29 45 52 35 35 45 58 58
94 90 97 94 94 94 94 94 87 87 84 84 84 84 81 84 84 84 87 87 81 77 81 81 84 77 84 65 68 65 52 61 26 23 35 35 39 42 32 23 26 48 52
87 84 87 90 90 90 90 94 94 87 84 81 81 87 77 74 87 81 90 84 81 81 84 87 81 77 74 68 58 61 48 58 48 23 6 16 23 29 32 35 26 39 42
84 81 77 90 94 87 87 90 90 87 84 84 84 81 84 81 87 81 81 87 87 84 81 84 87 87 81 71 71 58 55 42 39 23 16 13 10 23 26 35 39 48 42

GEFSSE_con_cape1000_180.txt.gz
Probability
65 90 97 97 97 100 100 100 100 100 100 100 100 100 97 97 97 94 94 94 94 94 94 90 90 90 90 90 84 77 84 84 90 87 84 81 84 84 84 84 74 68 84
65 97 100 97 97 100 100 100 100 100 100 100 100 100 97 97 97 97 97 90 90 90 90 90 90 87 90 87 81 77 84 87 84 90 84 81 77 87 81 74 68 65 74
71 94 100 100 100 100 100 100 100 100 100 100 100 100 100 97 97 97 94 94 94 94 94 94 94 87 87 94 87 87 90 87 94 87 68 52 81 87 84 81 77 77 77
65 77 94 100 100 100 100 100 100 100 100 100 100 100 100 97 97 94 94 94 94 90 94 94 90 87 87 90 90 90 87 87 81 65 26 35 52 84 84 84 81 81 81
68 84 100 100 100 100 100 100 100 100 100 100 100 100 97 97 94 94 94 94 90 90 94 87 87 87 87 84 90 81 90 84 74 42 19 26 45 77 81 74 81 81 71
71 97 100 100 100 100 100 100 100 100 100 100 100 100 97 97 94 94 94 94 90 87 87 84 84 87 84 87 87 90 87 81 39 19 19 32 45 77 71 77 81 81 71
77 97 100 100 100 100 100 100 100 100 100 100 100 100 97 97 94 94 94 94 87 90 87 90 87 81 81 81 81 74 74 71 16 16 23 39 55 81 74 77 77 77 68
74 97 100 100 100 100 100 100 100 100 100 100 100 97 97 97 94 97 94 90 90 87 87 87 74 71 77 81 77 84 81 58 23 19 23 39 77 84 81 77 77 77 71
77 90 94 97 100 100 100 100 100 100 100 100 100 100 100 97 94 97 94 90 84 81 77 77 61 61 71 74 68 77 81 61 10 19 26 48 81 77 71 71 71 68 68
61 87 94 87 87 97 100 100 100 100 100 100 100 100 100 97 90 87 90 94 77 74 71 68 58 58 61 68 71 77 77 48 10 13 26 61 84 81 65 65 68 65 61
45 55 71 74 71 74 87 94 97 97 97 97 97 100 100 77 81 81 84 81 77 74 68 68 58 52 52 58 74 74 58 13 10 6 19 71 77 77 71 74 71 68 68
39 42 48 55 55 58 74 84 81 84 87 74 71 74 45 32 45 81 90 87 74 71 68 74 65 52 39 23 35 42 19 10 6 6 45 74 81 77 77 68 71 68 65
42 42 35 35 48 45 45 52 58 61 61 55 45 42 29 26 29 45 52 65 58 61 26 29 42 26 16 16 13 6 6 6 6 6 42 77 81 81 68 68 68 65 58
29 35 35 35 35 23 39 45 52 52 45 39 42 29 13 13 16 13 23 23 19 10 10 6 10 10 6 6 6 6 3 3 3 3 29 84 77 74 68 68 65 71 65
23 29 35 42 35 32 32 48 48 39 39 32 39 26 6 10 13 6 3 3 6 10 3 6 6 6 6 3 3 6 6 3 3 6 19 74 77 81 68 68 61 58 58
35 35 39 45 39 35 35 39 39 29 32 29 19 29 10 6 3 10 10 10 10 6 10 10 3 6 3 3 0 6 0 3 3 3 10 58 84 81 81 71 74 65 52
39 45 42 52 55 52 45 26 29 32 23 23 19 16 16 19 13 10 13 10 10 10 6 6 6 0 0 3 0 3 0 3 3 3 6 10 26 81 77 81 81 84 65
42 45 52 58 52 48 45 39 45 39 19 19 16 13 26 19 16 10 10 6 10 6 6 3 3 0 0 0 0 0 3 3 3 3 6 3 6 13 58 77 81 77 77
42 42 45 48 42 45 52 48 42 35 23 16 13 13 19 23 26 16 10 6 10 3 3 3 3 0 0 0 0 0 0 0 0 6 3 3 3 3 6 35 87 77 65
48 45 45 39 42 42 48 52 48 35 32 19 19 16 16 19 23 19 6 16 10 6 6 6 3 3 3 0 0 0 0 0 0 0 3 3 3 0 0 3 23 39 74
65 52 48 42 45 48 55 52 42 42 32 23 23 19 13 19 16 16 13 10 6 6 10 10 6 6 6 3 3 3 3 0 0 0 0 0 0 0 0 0 0 0 10
61 61 58 45 58 55 58 48 42 35 32 19 26 26 19 16 19 19 13 6 6 6 6 6 6 6 6 3 3 3 0 0 0 0 0 0 0 0 0 0 0 0 0
68 58 58 58 52 52 52 48 42 26 35 32 23 19 23 19 19 23 16 6 6 6 10 3 6 6 6 6 0 0 0 0 0 0 0 0 0 0 0 3 0 0 0
68 71 55 52 58 48 45 45 39 32 26 26 16 16 6 16 23 19 13 16 13 13 10 10 6 6 3 3 0 0 0 0 0 0 0 0 0 0 0 0 0 0 0
61 61 48 52 55 55 45 42 32 23 26 19 6 13 10 13 13 13 13 13 13 13 13 13 13 6 6 3 3 0 0 0 0 0 0 0 0 0 0 0 0 0 3
61 52 61 61 52 48 42 35 35 23 19 23 13 6 6 10 10 16 16 10 10 13 13 13 10 6 3 3 3 0 0 0 0 0 0 0 0 0 0 0 0 0 0

GEFSSE_con_cape1000_186.txt.gz
Probability
39 65 90 97 97 100 100 100 100 100 100 100 97 97 97 97 97 94 97 97 97 94 87 84 81 81 84 84 87 84 84 87 87 81 77 84 84 87 81 84 74 52 77
61 87 97 100 97 100 100 100 100 100 100 100 100 97 97 97 97 97 97 97 94 94 90 90 87 77 87 81 87 81 84 87 84 81 74 65 77 81 77 68 68 61 74
71 87 97 100 100 100 100 100 100 100 100 100 100 100 100 100 100 97 94 94 90 90 87 84 87 84 81 84 87 87 90 90 90 84 71 48 68 81 81 77 65 65 71
74 77 90 100 100 100 100 100 100 100 100 100 97 97 97 97 97 94 94 94 90 90 87 87 84 90 87 81 81 87 90 90 84 68 42 45 48 68 77 74 74 77 74
68 74 94 100 100 100 100 100 100 100 100 100 97 97 97 100 97 97 97 97 94 87 87 84 87 87 87 87 87 90 87 81 71 48 29 42 58 74 68 74 74 74 68
68 84 100 100 100 100 100 100 100 100 100 100 97 97 100 97 97 94 94 94 90 90 90 87 87 84 87 87 87 90 74 68 39 23 35 35 58 81 74 68 68 68 65
68 90 100 100 100 100 97 100 100 100 100 100 97 97 97 97 90 87 90 84 90 87 90 87 90 90 84 84 84 84 65 52 13 19 32 42 61 81 61 65 65 65 61
74 90 100 100 100 100 97 100 100 100 100 100 97 97 97 97 97 94 90 81 81 87 87 90 81 77 81 84 81 77 61 39 19 26 35 39 68 74 71 65 68 61 61
74 84 94 97 94 100 97 97 100 100 100 100 97 97 100 97 97 97 90 87 84 77 81 77 74 74 81 77 77 71 65 42 13 29 35 52 65 77 71 61 65 61 65
61 74 71 81 87 94 94 97 94 100 100 100 97 97 100 94 90 90 87 90 84 84 84 77 71 74 71 71 77 68 58 39 13 19 45 52 71 71 68 65 65 61 65
61 55 55 68 65 77 87 90 87 87 94 90 87 94 87 52 58 68 74 77 71 71 71 77 81 77 71 65 77 68 52 16 10 19 39 61 61 68 71 65 61 58 61
48 48 42 52 52 55 77 71 65 68 68 61 58 55 39 35 35 68 77 68 68 68 65 74 71 55 35 29 52 45 19 10 13 23 52 68 71 61 65 65 65 52 48
32 48 42 39 39 48 48 58 48 48 45 32 39 26 19 6 16 29 35 39 35 45 19 19 16 10 10 19 16 6 6 10 10 19 39 65 74 71 65 61 58 55 48
23 35 35 26 32 32 39 39 42 39 29 23 23 19 13 6 13 10 13 16 6 6 3 6 10 10 6 13 10 6 6 6 6 6 29 65 71 71 68 65 68 58 52
13 23 35 26 26 19 23 26 35 26 26 13 13 13 10 3 6 3 6 3 3 3 3 3 6 6 3 3 6 6 6 3 3 6 23 52 71 74 68 55 58 58 52
16 23 29 26 13 10 19 19 23 26 16 16 10 13 13 3 0 3 3 0 3 3 6 10 3 6 3 3 10 6 6 3 3 3 10 42 65 71 71 61 55 52 61
23 23 23 19 13 6 10 19 23 16 16 16 13 10 13 6 3 3 3 3 3 3 3 0 3 3 3 3 3 6 3 3 3 3 10 19 45 65 71 71 68 61 55
19 16 16 29 16 16 13 10 19 10 10 10 10 6 10 10 6 3 3 3 3 3 3 0 0 3 3 3 3 0 0 0 3 3 3 6 13 23 58 65 74 81 68
10 16 13 23 19 13 10 13 13 16 6 6 3 3 10 13 6 6 3 6 3 3 3 3 0 3 3 3 0 0 0 0 0 0 3 3 3 3 10 29 61 81 68
13 13 16 16 10 13 13 10 16 13 10 3 3 3 0 10 13 6 0 3 3 3 3 3 3 3 3 3 0 0 0 0 0 0 0 3 3 3 3 6 19 45 52
16 13 13 16 10 16 13 13 13 13 10 6 3 3 6 6 13 6 10 3 6 3 3 0 3 6 3 3 0 0 0 0 0 0 0 0 0 3 3 3 3 6 16
23 16 16 19 13 10 16 10 10 6 6 6 10 10 6 6 13 13 3 3 3 3 3 3 0 0 0 0 0 0 0 0 0 0 0 0 0 0 0 0 0 3 3
26 26 23 16 10 6 10 16 13 10 10 10 6 6 3 3 6 10 6 3 3 3 3 3 3 3 3 3 0 0 0 0 0 0 0 0 0 0 0 0 0 0 3
29 29 19 6 6 10 6 13 19 13 13 13 6 6 3 3 0 3 3 0 3 3 3 3 3 3 3 3 3 0 0 0 0 0 0 0 0 0 0 0 0 0 0
35 26 13 6 10 13 13 16 13 10 13 10 3 6 3 3 3 3 3 3 0 0 3 3 3 3 3 3 3 3 0 0 0 0 3 0 0 0 0 0 0 0 0
29 19 19 13 6 10 10 13 10 13 10 3 3 3 3 0 0 0 0 0 0 0 0 3 3 3 3 3 3 3 3 3 0 0 3 3 3 3 3 3 0 0 3

GEFSSE_con_cape1000_192.txt.gz
Probability
10 23 77 100 100 100 100 100 100 100 100 100 100 97 97 97 94 94 87 87 84 81 77 81 81 77 81 77 74 77 77 74 77 74 84 84 81 71 71 71 68 55 71
10 23 87 100 100 100 100 100 100 100 100 100 100 100 97 97 97 97 90 87 84 77 77 77 77 77 81 74 77 77 74 77 81 81 84 84 81 81 74 68 77 68 81
16 42 71 97 100 100 100 100 100 100 100 100 100 100 100 97 94 94 94 94 81 81 74 77 77 77 74 74 74 77 77 74 84 71 68 58 65 71 68 65 71 77 81
26 45 74 97 100 100 100 100 100 100 100 100 100 100 100 97 94 94 94 94 94 84 84 84 84 77 74 77 81 74 71 74 74 68 42 35 42 65 71 71 68 81 74
35 68 97 97 97 97 97 97 97 100 100 100 100 100 100 100 97 97 97 94 94 90 90 90 81 81 77 81 74 71 71 68 61 42 35 55 65 68 61 68 61 74 68
48 48 97 97 97 97 97 97 97 100 100 100 100 100 100 100 97 97 97 97 97 97 97 90 81 81 87 87 84 77 74 61 45 19 32 42 61 68 58 61 58 65 71
52 52 74 97 97 97 97 97 97 100 100 100 100 97 100 97 97 97 97 94 94 94 90 87 87 81 81 81 71 68 58 29 16 23 32 45 61 74 65 65 68 65 68
29 48 71 94 94 97 97 97 97 100 100 100 97 94 94 94 97 94 90 84 84 84 74 74 68 68 74 74 71 68 32 19 13 10 29 48 65 68 71 71 68 71 74
26 45 55 68 90 90 90 90 100 100 97 97 94 90 94 97 100 90 87 90 84 81 65 71 71 74 74 68 58 45 26 26 13 13 13 52 65 65 65 61 68 68 61
26 35 42 45 61 81 87 87 90 90 94 94 87 90 90 87 81 74 87 90 81 68 68 68 65 65 61 61 55 48 42 26 10 6 35 39 71 65 61 58 65 68 55
32 32 26 32 55 52 58 77 84 87 87 87 81 68 65 61 58 55 61 87 71 74 55 58 58 42 55 68 58 52 42 19 13 13 42 42 58 55 55 58 55 61 61
35 29 35 42 52 45 35 77 81 58 87 81 74 58 58 71 68 45 61 68 58 58 52 48 48 35 39 45 48 45 26 13 13 6 32 45 52 55 39 52 45 45 52
35 23 29 39 65 52 61 65 68 68 65 61 68 55 68 65 58 48 55 61 58 45 42 48 52 45 26 39 32 29 13 13 6 13 23 42 48 48 45 52 45 39 35
42 35 29 42 61 77 71 65 65 61 61 55 65 68 55 55 48 42 52 52 52 55 55 39 45 42 39 29 26 16 13 10 6 16 58 32 48 52 48 55 55 39 35
45 35 48 71 74 77 90 74 58 61 58 58 68 68 61 48 39 42 48 55 39 42 42 45 32 32 32 35 19 19 13 10 6 6 39 52 58 65 65 48 52 48 32
45 52 65 74 81 77 77 87 71 65 81 55 45 58 65 52 42 42 45 52 48 45 48 55 29 35 32 32 26 26 23 23 19 23 23 35 45 52 55 58 58 55 48
58 61 74 68 81 74 68 71 65 58 52 45 52 61 65 58 58 52 45 48 48 42 45 55 39 29 32 29 26 26 29 35 29 29 23 29 29 45 48 58 52 55 58
61 77 81 55 71 81 81 77 74 71 58 52 52 58 58 61 58 74 55 45 58 48 52 61 42 39 35 32 35 32 35 55 35 29 23 26 29 19 35 58 58 55 55
77 84 84 77 84 77 81 84 74 87 74 65 58 58 61 68 68 61 58 68 65 52 55 45 45 42 42 48 29 48 35 42 48 23 26 23 16 23 32 55 58 55 52
87 90 87 84 81 81 81 81 77 77 74 68 68 61 58 68 65 58 55 61 48 52 55 55 65 68 68 65 19 23 35 26 42 29 26 19 29 16 13 23 52 42 52
87 94 90 84 81 87 74 77 77 71 77 74 65 65 61 61 61 74 42 58 58 55 55 45 52 55 52 61 52 39 29 19 29 48 32 29 16 19 26 26 39 42 48
87 90 90 90 87 90 77 90 74 71 71 71 74 77 68 58 52 39 65 68 58 74 77 65 71 65 45 45 58 42 29 29 42 3 26 42 29 29 26 26 39 55 48
87 90 94 90 94 90 87 77 77 84 77 65 71 71 68 65 52 65 61 52 71 61 61 68 71 65 55 55 45 35 32 32 29 16 19 29 35 42 42 29 32 42 42
90 90 94 94 94 90 87 84 74 77 74 71 74 68 65 71 58 55 65 61 58 61 74 68 58 58 61 61 55 58 45 35 42 32 16 23 32 35 35 19 19 29 32
77 87 90 94 94 87 87 87 81 77 77 71 68 68 68 65 61 58 61 61 55 61 71 77 71 61 58 65 74 71 61 61 45 45 16 23 19 16 23 26 26 26 29
81 77 81 81 81 84 84 81 81 77 74 71 68 61 52 65 68 52 52 61 61 68 74 68 65 65 74 74 71 65 61 48 55 48 39 45 35 26 19 26 29 29 19

GEFSSE_con_cape1000_198.txt.gz
Probability
23 52 94 94 97 100 100 100 100 97 97 97 94 97 97 97 90 87 81 77 77 81 74 77 74 71 68 65 68 74 71 87 84 81 77 74 77 68 71 68 61 45 74
29 65 97 100 100 100 100 100 100 100 100 100 97 97 97 97 94 81 77 77 81 77 81 77 87 84 74 71 68 74 71 74 84 81 81 71 68 74 77 74 58 55 74
39 65 94 97 100 100 100 100 100 100 100 100 100 100 97 94 90 94 84 84 84 84 84 84 81 77 77 74 74 74 71 65 68 77 68 29 52 71 74 68 65 65 65
45 65 94 97 97 97 97 100 100 97 100 100 100 97 97 94 90 94 87 84 84 84 84 81 81 81 84 71 65 61 68 58 61 65 32 19 35 65 71 65 61 65 65
74 90 97 97 97 97 97 97 97 97 100 100 97 97 97 97 97 94 94 90 87 84 81 81 84 84 77 71 68 55 52 45 71 52 39 42 45 74 68 61 58 71 65
71 71 97 97 97 97 97 97 97 97 100 100 100 100 100 97 97 97 90 90 87 90 74 77 77 81 77 68 52 48 48 71 65 39 48 42 45 68 58 55 58 61 68
55 58 77 94 94 94 97 97 97 97 100 100 100 100 100 90 90 87 87 87 84 84 84 84 81 74 65 58 42 42 55 77 48 29 45 48 61 74 58 58 58 55 65
55 58 87 94 90 90 94 97 97 100 100 97 100 97 94 87 87 90 90 87 81 77 71 71 77 68 52 45 39 42 58 71 39 23 45 48 71 74 58 65 65 61 61
48 71 81 81 90 94 94 94 90 100 97 90 84 81 84 84 90 90 90 87 77 77 71 65 68 58 35 32 29 45 68 84 39 19 26 29 65 65 58 61 58 61 58
45 48 74 74 87 81 84 90 87 90 87 87 77 84 81 81 90 97 81 84 74 68 61 55 58 39 32 29 42 55 68 65 23 19 23 35 61 55 45 52 52 48 48
42 52 48 61 84 81 65 77 87 87 81 77 81 74 84 84 61 68 55 74 68 55 52 52 45 45 42 39 52 61 58 39 29 26 19 55 68 55 45 45 45 52 39
48 42 55 58 81 74 48 87 90 74 87 84 81 87 90 97 81 45 81 74 65 58 52 55 58 61 58 42 45 58 42 23 13 19 23 68 68 48 42 42 45 48 42
42 45 52 65 77 77 87 81 77 84 90 81 65 77 84 81 77 68 68 68 71 65 58 61 65 45 45 45 52 42 23 13 6 10 26 74 65 55 48 39 39 39 35
42 52 55 65 87 94 94 90 90 74 87 74 74 81 81 87 84 84 90 90 90 81 84 61 65 61 45 48 35 23 6 6 13 19 23 65 65 65 55 45 45 42 35
58 55 77 90 94 90 97 97 84 90 77 77 84 77 81 81 84 77 87 94 84 84 81 87 84 68 55 58 35 29 23 26 23 29 19 58 61 71 61 52 55 42 32
65 68 77 77 94 94 94 97 97 94 94 87 90 77 77 87 84 81 77 81 84 81 81 84 84 84 71 74 55 35 39 35 35 35 26 55 68 65 68 61 52 45 39
61 81 90 84 94 97 97 97 90 94 77 84 81 77 65 74 71 81 87 90 87 90 90 90 94 87 81 68 61 65 61 65 39 48 35 29 29 55 68 65 61 58 48
74 90 87 61 90 97 97 97 97 94 87 81 84 77 77 81 81 87 84 90 87 90 90 90 90 90 94 87 74 71 74 81 68 48 45 48 32 13 42 61 61 65 61
90 94 90 90 94 94 94 97 97 100 97 87 84 87 81 77 71 81 87 87 81 84 94 61 81 87 81 81 74 81 74 77 71 48 55 45 42 32 19 45 65 68 61
90 94 94 94 97 94 94 97 97 90 94 97 90 87 81 77 74 81 81 81 77 84 97 94 87 84 81 84 42 48 58 61 65 68 48 35 39 32 26 13 23 42 61
90 94 97 97 94 94 97 97 94 97 97 90 87 84 84 84 84 81 77 77 84 87 90 94 84 81 81 84 81 68 58 48 55 65 61 52 32 35 29 32 19 23 23
94 97 97 97 97 97 97 97 97 97 97 90 90 87 74 77 87 65 81 87 87 94 87 81 87 81 81 81 77 61 45 39 52 19 45 52 42 35 39 35 45 52 39
94 97 97 97 97 97 97 94 97 97 94 90 90 90 87 81 81 81 71 84 87 81 81 81 81 81 77 77 77 71 48 26 35 42 35 35 45 48 42 35 35 29 19
97 94 97 97 94 94 90 94 94 97 90 90 90 87 87 84 84 77 81 84 84 81 81 77 81 84 77 77 77 74 61 58 42 26 29 23 26 35 29 19 13 16 23
94 94 94 97 94 90 90 90 90 94 90 84 90 90 87 84 84 77 77 84 87 81 77 77 77 74 74 74 74 65 52 52 45 29 13 16 16 26 23 23 16 16 19
87 94 94 94 90 87 87 87 87 87 84 84 81 87 81 84 77 74 71 77 77 74 71 74 77 81 74 74 65 65 65 52 48 39 26 26 23 19 19 19 26 19 23

GEFSSE_con_cape1000_204.txt.gz
Probability
55 84 97 97 97 94 94 94 97 90 94 94 94 94 90 90 81 84 84 84 77 77 81 81 77 77 77 74 74 81 81 81 77 77 84 77 84 81 81 81 61 42 71
74 94 97 100 97 97 100 100 100 97 97 94 97 94 94 94 97 87 84 84 81 81 77 74 71 71 61 74 71 74 77 81 81 74 77 81 84 81 81 71 55 52 68
74 87 100 100 100 100 100 100 100 100 100 97 94 94 94 94 94 90 87 84 81 74 81 81 74 77 71 74 77 77 71 81 84 77 52 39 61 68 74 71 65 71 77
65 74 94 100 100 100 100 100 100 100 97 97 94 90 97 94 90 90 90 94 84 84 81 77 74 77 81 71 68 71 77 77 58 52 10 26 39 61 65 65 68 74 68
71 90 94 100 100 100 100 100 100 97 97 97 97 97 94 90 94 90 87 87 87 87 87 84 81 77 74 77 71 71 77 68 55 29 6 10 32 61 61 58 71 71 65
71 87 97 97 100 100 100 100 97 97 97 97 97 97 97 87 87 90 87 84 87 87 87 84 74 71 74 68 71 71 61 48 32 3 10 13 39 65 58 58 65 61 61
65 84 94 97 97 100 100 97 97 97 97 97 94 94 90 90 87 81 87 84 87 84 90 74 74 71 61 58 65 68 61 42 10 10 16 16 39 77 61 65 61 58 68
61 84 90 97 97 97 94 94 97 94 94 94 94 94 90 87 87 87 81 81 81 68 71 68 61 58 58 65 74 74 71 45 26 13 16 19 65 74 58 68 65 68 68
58 77 81 94 94 97 94 90 90 94 94 94 97 94 90 84 84 87 90 77 71 61 58 58 52 45 58 61 81 84 74 61 0 10 10 26 71 65 61 68 61 65 61
52 65 61 65 74 81 87 94 94 94 90 90 90 94 87 87 84 77 97 77 71 58 42 39 42 45 45 58 74 77 68 32 3 6 6 35 74 61 65 61 58 55 58
39 42 48 55 58 58 65 87 90 90 94 84 81 84 77 29 35 55 68 84 65 42 35 45 42 39 48 58 71 74 35 0 3 0 6 58 71 65 58 61 48 52 45
19 26 42 45 42 48 58 58 58 61 48 45 29 39 26 16 16 29 71 74 58 48 55 52 58 52 32 6 13 32 3 0 3 3 10 58 71 65 58 52 48 48 42
19 32 29 32 42 29 32 39 35 32 29 23 32 23 16 16 10 10 13 35 29 35 16 26 23 16 3 0 0 0 0 3 3 3 19 71 71 68 61 55 45 42 39
13 19 26 29 19 23 26 23 23 26 29 23 29 13 6 6 3 6 3 6 3 3 3 6 3 6 0 0 0 0 0 0 0 3 13 77 65 74 65 55 48 52 39
16 16 35 35 32 32 32 26 29 23 19 19 29 19 13 3 3 3 3 0 0 0 0 3 3 0 0 0 0 0 0 0 0 3 16 71 68 71 68 58 52 42 39
23 32 39 42 32 35 32 26 23 19 23 16 16 26 13 6 3 3 3 0 0 0 0 0 0 0 0 0 0 0 0 0 0 3 6 39 71 74 68 68 61 55 39
29 39 39 39 42 39 29 29 26 19 19 19 10 23 19 6 6 3 0 0 0 3 3 3 0 0 0 0 0 0 0 0 3 0 6 6 26 58 71 71 71 61 55
29 42 45 52 52 35 35 29 26 19 10 16 10 16 19 16 6 3 3 0 0 3 3 3 3 0 0 0 0 0 0 0 0 0 0 0 0 10 42 71 77 68 61
32 39 45 45 45 39 45 32 23 23 16 10 10 10 10 16 13 0 3 0 3 0 0 0 0 0 0 0 0 0 0 0 0 0 0 0 0 0 0 32 71 68 61
39 35 42 45 45 42 29 26 26 29 26 16 16 13 10 13 10 0 6 3 3 0 3 3 3 3 3 3 3 3 0 0 0 0 0 0 0 0 0 0 23 39 65
48 42 42 39 42 42 42 32 32 26 29 23 13 16 13 10 13 10 6 10 6 6 6 6 10 10 0 3 0 0 0 0 0 0 0 0 0 0 0 0 0 0 6
48 45 39 39 45 42 39 35 39 39 29 32 23 16 19 10 6 19 6 10 13 6 10 3 3 10 0 0 0 0 0 0 0 0 0 0 0 0 0 0 0 0 0
55 45 55 48 45 42 42 45 39 39 35 23 19 16 16 10 6 10 10 10 10 6 6 6 6 6 0 0 0 0 0 0 0 0 0 0 0 0 0 0 0 0 0
55 48 45 52 52 45 39 39 39 29 29 19 16 16 23 19 10 10 10 10 10 3 10 13 13 3 3 3 0 0 0 0 0 0 0 0 0 0 0 0 0 0 0
55 61 52 58 45 48 39 39 32 29 19 19 23 19 13 10 10 16 13 10 10 10 16 16 13 6 3 0 0 0 0 0 0 0 0 0 0 0 0 0 0 0 0
68 68 61 58 48 52 52 35 32 29 26 23 29 19 16 16 19 23 16 16 6 23 13 16 16 10 3 0 0 0 0 0 0 0 0 0 0 0 0 0 0 0 0

GEFSSE_con_cape1000_210.txt.gz
Probability
16 52 81 90 87 84 87 84 84 81 84 87 87 84 84 84 77 81 81 77 77 77 81 71 65 65 61 71 71 74 77 77 71 71 71 68 74 81 74 81 71 45 65
39 68 94 94 94 94 90 84 87 87 87 84 87 84 84 90 84 84 84 74 71 74 71 71 71 68 68 71 71 71 68 71 81 77 81 71 77 81 84 77 52 48 58
55 77 81 97 97 94 97 90 90 90 90 90 87 84 84 87 81 84 81 77 77 77 77 74 71 74 71 71 68 71 74 77 77 77 61 32 58 71 71 71 77 68 65
55 65 81 97 97 94 97 94 90 90 87 87 90 84 90 87 81 77 81 81 81 77 77 74 74 74 77 68 68 68 74 71 68 45 13 29 45 68 61 65 65 61 58
58 68 77 97 94 94 97 97 94 94 94 87 90 90 90 84 84 74 74 77 90 84 74 77 71 65 65 71 71 74 74 58 45 13 13 23 45 68 65 68 55 58 45
61 74 84 97 90 94 94 97 94 90 90 87 84 84 87 84 87 81 81 81 81 81 81 81 84 74 77 71 68 61 61 52 26 13 19 23 35 65 58 65 58 55 52
55 65 87 90 87 90 90 90 94 94 90 90 87 84 87 87 84 81 81 81 84 77 74 77 81 71 68 68 68 61 55 42 10 19 16 26 42 71 48 65 58 55 58
61 71 87 90 87 87 87 87 87 87 90 90 90 90 84 81 81 74 71 77 81 71 74 74 68 61 65 68 65 55 52 29 16 13 19 23 52 61 48 48 61 55 48
58 68 65 81 77 84 87 87 90 87 90 87 87 87 71 71 71 61 68 61 52 68 71 55 55 68 58 61 55 48 48 39 6 13 13 19 45 52 42 45 52 52 45
42 45 58 55 65 68 74 90 90 87 87 87 77 81 74 71 58 65 74 65 55 52 55 52 45 55 58 61 65 55 48 29 10 10 6 19 58 42 39 45 45 48 35
39 32 32 32 45 58 68 71 68 77 77 71 55 68 52 16 16 23 55 65 52 48 52 39 45 52 42 48 58 61 32 3 3 6 10 32 52 42 42 52 45 48 32
23 19 19 26 26 39 58 48 48 52 42 23 13 13 10 10 13 29 45 52 42 52 45 52 55 45 16 13 23 26 0 0 0 3 3 35 52 52 48 52 55 42 32
13 26 19 19 19 19 26 32 23 16 16 16 10 10 6 3 3 6 10 13 6 13 13 13 16 3 6 3 0 0 0 0 0 3 10 39 55 55 55 42 48 39 35
6 16 13 16 16 16 13 16 16 10 10 6 6 6 0 0 3 3 3 3 3 0 3 3 3 3 0 0 0 0 0 3 0 3 10 26 65 58 65 52 45 35 35
3 10 10 13 16 3 6 13 13 6 10 3 3 3 0 0 0 0 0 0 0 0 3 3 3 3 0 0 0 0 0 3 3 6 6 29 61 65 61 45 45 45 39
0 3 6 10 6 6 6 6 10 10 3 3 0 3 3 0 0 0 0 0 0 0 0 3 3 0 0 0 0 0 0 0 3 6 6 23 52 65 68 55 45 45 42
0 3 3 3 6 6 6 6 6 3 3 6 6 3 3 0 0 0 0 0 0 0 3 3 3 3 3 0 0 0 0 0 0 6 6 10 32 52 65 65 61 52 45
0 0 3 16 13 6 6 6 6 3 6 6 6 3 3 3 0 0 0 0 0 0 0 0 0 0 0 0 0 0 0 0 0 3 6 6 10 13 39 48 61 65 48
0 0 6 10 6 6 3 10 10 3 3 3 3 3 10 0 0 0 0 0 0 0 0 0 0 0 3 0 3 3 0 0 0 0 3 3 3 3 10 32 48 55 45
10 3 6 6 10 3 3 10 6 6 3 3 3 3 3 3 3 0 3 0 0 3 0 0 0 0 3 0 0 0 0 0 0 0 0 0 0 3 3 6 23 32 29
10 10 6 10 3 3 6 10 10 6 3 6 0 3 3 0 3 0 0 0 0 3 3 6 6 0 0 0 0 0 0 0 0 0 0 0 0 0 0 3 3 3 6
13 13 13 10 10 6 6 3 3 6 10 3 3 6 6 0 0 3 0 0 3 3 6 3 0 0 0 0 0 0 0 0 0 0 0 0 0 0 0 0 0 0 0
13 16 23 10 10 6 3 10 6 6 3 6 10 6 6 3 0 0 0 0 0 6 6 0 3 0 0 0 0 0 0 0 0 0 0 0 0 0 0 0 0 0 0
19 19 19 19 16 6 10 13 16 19 19 13 10 6 3 3 6 6 0 0 0 3 6 10 0 0 0 0 0 0 0 0 0 0 0 0 0 0 0 0 0 0 0
23 23 19 19 16 13 13 16 10 13 6 3 0 6 3 0 3 10 3 0 3 0 3 0 0 0 0 0 0 0 0 0 0 0 0 0 0 0 0 0 3 0 0
23 23 19 16 13 10 10 13 13 13 6 3 10 6 3 0 0 6 6 3 3 0 0 0 0 0 3 3 0 0 0 0 0 0 0 0 0 0 0 0 0 0 0

GEFSSE_con_cape1000_216.txt.gz
Probability
3 13 68 77 84 81 77 77 81 81 81 84 84 81 81 74 77 71 74 77 71 68 74 71 65 74 81 71 61 68 68 68 65 61 61 65 68 68 71 61 58 39 65
3 16 81 90 90 84 77 77 81 77 77 84 77 81 87 81 81 81 77 77 71 65 68 74 77 77 74 77 81 84 74 71 71 65 71 68 74 71 68 68 71 58 61
10 26 61 87 87 87 84 81 81 81 81 81 74 74 81 84 77 84 77 74 77 74 71 71 74 71 68 68 71 81 81 74 68 71 58 26 52 74 65 65 68 65 61
10 29 39 90 90 87 87 87 84 87 87 87 81 77 77 77 74 77 71 74 74 77 74 74 71 71 68 74 81 74 71 74 58 45 32 23 32 61 65 61 61 55 52
29 35 71 87 90 90 94 90 94 90 90 84 87 77 77 74 74 74 74 71 74 71 65 61 68 68 68 77 68 71 74 65 42 35 23 32 42 55 68 58 61 48 45
26 39 61 87 87 90 94 90 94 94 90 90 90 77 74 74 74 68 71 71 68 58 58 61 65 68 77 74 65 58 48 52 42 19 23 26 48 65 61 52 55 45 39
29 39 45 87 87 87 87 90 87 87 87 84 74 74 74 71 65 65 65 68 61 58 61 55 61 68 58 68 58 45 45 39 13 19 29 29 55 74 61 55 48 42 45
29 39 65 84 87 87 94 84 81 81 84 84 77 77 77 71 65 68 68 65 61 61 55 52 65 61 55 68 65 35 35 32 10 10 23 35 68 77 65 52 39 39 45
23 32 39 48 61 81 84 84 84 84 74 74 71 65 61 58 55 65 61 68 61 61 58 58 55 52 55 52 42 35 35 32 16 10 10 23 45 55 45 52 42 39 39
19 19 39 32 48 52 55 74 77 77 74 71 68 58 55 55 55 45 55 71 55 61 52 45 48 52 42 35 23 23 29 29 10 0 6 19 48 45 42 42 45 39 32
16 23 23 32 42 35 29 39 58 68 58 65 58 58 45 26 19 32 35 58 45 42 39 39 35 42 45 32 26 29 26 16 3 3 10 26 52 39 42 42 39 32 16
19 32 35 35 39 39 26 39 45 39 55 61 55 42 32 45 48 16 35 52 48 39 48 52 48 35 26 16 16 26 19 3 0 0 6 42 45 35 45 39 35 29 16
19 19 29 45 52 35 42 35 42 42 61 45 45 48 55 26 23 29 35 45 48 26 26 29 32 10 16 23 19 6 6 0 0 0 10 29 32 32 39 42 42 39 26
23 29 23 35 58 74 55 42 45 39 42 45 55 42 48 39 32 35 48 35 35 42 39 29 42 23 26 13 10 10 3 6 0 0 29 32 32 32 42 45 42 32 26
42 39 42 58 68 71 74 71 58 48 45 58 68 55 61 35 48 39 52 52 35 35 32 35 32 32 29 19 13 6 10 10 10 6 29 35 45 48 42 39 48 45 32
48 42 52 61 65 74 84 84 71 55 81 45 61 61 55 48 58 48 48 58 39 32 29 35 35 35 23 19 13 10 10 10 16 19 13 35 45 48 58 52 52 48 29
52 58 61 68 68 77 77 61 52 52 42 52 61 71 65 61 68 52 48 52 42 48 45 42 55 35 35 29 29 16 16 23 16 29 16 35 48 42 55 61 58 42 32
55 74 81 39 61 87 90 84 77 61 55 65 58 61 58 71 68 77 48 35 55 48 48 65 45 35 32 35 35 26 26 32 29 23 19 32 52 42 39 42 42 39 42
71 84 87 71 77 77 84 87 77 84 84 68 65 68 71 74 52 68 65 61 58 52 45 35 48 45 39 39 26 42 35 39 32 23 32 16 32 35 39 52 42 39 35
74 74 87 90 94 90 81 90 84 84 77 68 71 77 65 65 61 68 68 68 48 52 68 71 77 71 65 65 13 19 19 35 29 32 29 26 29 23 23 23 45 42 26
71 77 90 90 94 94 87 87 87 81 81 68 81 77 71 81 65 74 52 77 71 65 65 42 65 52 55 65 42 32 29 19 26 39 29 26 16 16 16 16 26 35 39
68 84 90 87 90 87 90 90 94 90 84 77 71 81 81 81 81 55 77 68 68 87 81 77 77 68 45 45 55 39 32 42 35 13 23 23 19 23 16 10 26 39 29
74 81 74 90 94 87 81 77 77 90 84 74 77 74 77 77 74 77 74 74 74 65 71 77 74 68 55 55 48 42 52 42 42 29 23 19 23 23 23 23 19 23 23
71 77 84 90 94 94 87 81 77 84 84 74 84 77 77 74 71 71 74 68 71 52 71 58 58 61 65 55 58 55 42 48 32 26 35 23 29 23 23 10 13 16 13
71 68 81 90 94 90 87 84 81 77 84 74 77 81 74 74 68 65 65 68 71 68 71 68 71 68 55 52 55 52 45 52 32 32 29 35 32 19 16 19 16 13 10
71 71 74 87 87 87 84 81 87 84 81 77 74 68 68 65 61 65 52 68 61 65 74 71 71 65 68 65 48 39 42 48 42 35 26 26 19 16 10 13 16 13 16

GEFSSE_con_cape1000_222.txt.gz
Probability
16 32 81 74 77 74 71 71 81 74 81 81 81 74 68 68 68 65 71 65 68 68 65 68 61 58 61 65 65 55 55 58 58 58 68 52 48 55 58 52 55 35 68
13 35 84 84 84 81 81 84 84 84 84 84 81 68 65 68 68 65 65 77 71 68 61 71 71 71 68 61 68 58 55 61 65 71 61 48 45 52 65 71 61 45 58
13 39 74 90 87 84 84 84 84 84 81 84 81 74 74 74 74 71 68 68 77 74 68 74 68 65 68 71 65 58 45 55 65 71 61 10 39 61 71 74 68 61 55
19 39 71 87 94 94 90 87 84 81 77 81 77 74 68 77 81 77 74 71 74 74 74 71 68 61 71 61 61 55 48 52 65 61 35 10 16 65 68 65 55 52 52
39 58 77 97 94 94 90 90 77 77 71 74 77 68 71 71 77 81 71 71 61 65 71 71 65 55 65 58 48 45 55 55 65 39 26 26 23 68 65 58 48 48 48
42 42 77 94 90 94 90 87 81 68 71 77 77 71 74 68 71 65 71 71 77 74 71 71 71 52 48 45 32 39 45 55 39 19 29 23 26 61 58 55 48 45 45
29 32 65 90 94 90 87 81 84 77 65 74 74 74 65 61 65 61 58 61 55 55 61 58 58 55 52 39 23 26 55 61 42 26 35 26 35 77 48 42 42 45 48
26 39 68 90 90 87 81 77 68 74 77 74 68 61 58 58 58 58 48 48 48 48 52 45 45 39 35 26 26 29 48 58 35 23 42 26 55 68 52 45 48 42 45
26 42 55 65 74 87 77 71 68 68 61 68 58 65 61 52 52 55 55 52 55 48 52 42 39 29 32 23 13 23 42 74 35 23 19 23 61 58 42 42 32 39 35
23 26 45 48 58 61 68 71 71 68 61 58 55 45 52 55 55 58 52 55 45 45 42 32 29 23 19 19 19 32 42 48 19 16 10 13 74 52 39 35 32 19 16
26 29 29 32 61 52 42 55 61 65 61 58 61 58 58 52 39 45 45 48 39 32 32 39 32 26 16 16 32 32 32 29 10 10 6 23 61 52 29 26 26 19 6
35 26 35 42 58 48 35 68 68 48 65 61 68 61 68 77 58 35 61 45 35 29 39 45 55 35 19 13 16 32 16 23 13 6 6 48 65 45 29 29 26 29 13
42 45 42 48 61 48 68 58 61 65 81 68 65 74 84 65 52 35 48 35 45 35 32 48 48 29 23 19 26 23 26 10 0 6 10 68 65 42 32 32 32 29 13
45 42 42 58 77 84 84 81 77 61 77 65 74 71 77 81 77 74 84 68 71 74 74 65 58 42 32 23 32 16 13 10 13 16 23 52 65 52 45 45 39 26 23
55 55 65 84 84 87 97 97 74 74 68 71 81 74 81 84 84 74 74 84 74 77 77 81 65 65 48 42 26 13 13 23 19 16 19 42 58 55 42 42 39 35 26
55 52 77 84 87 87 90 90 90 74 90 84 84 77 77 81 84 84 77 87 81 84 84 87 71 74 61 65 45 35 29 19 39 29 26 35 45 58 58 52 39 42 39
74 74 77 84 87 87 90 87 84 81 74 84 94 90 68 81 87 87 90 90 90 94 90 94 77 81 68 58 61 48 45 42 48 52 35 42 39 55 71 71 52 52 42
74 87 84 55 87 90 94 94 87 84 87 90 87 87 81 74 81 90 87 87 97 97 97 94 90 74 74 74 68 68 65 68 58 58 58 58 35 26 29 58 65 61 45
84 90 81 84 90 94 90 97 94 94 90 90 94 90 90 84 77 87 90 90 84 81 87 65 74 84 77 74 58 68 65 58 58 35 42 35 32 39 23 29 58 55 42
90 90 90 90 90 94 94 97 97 97 90 94 94 90 90 87 90 87 97 97 84 87 87 84 81 81 77 74 45 35 48 55 48 45 45 39 32 23 26 13 23 23 35
87 90 94 94 94 97 97 97 94 90 90 87 90 87 90 87 90 94 94 94 90 87 90 81 81 74 68 68 61 45 48 39 39 39 42 42 23 19 19 29 23 10 10
87 94 94 94 94 94 94 97 94 90 90 90 90 84 87 90 94 77 90 90 90 90 90 87 87 84 71 65 58 42 26 39 32 19 35 35 16 23 19 16 26 32 19
87 94 90 94 94 94 97 97 90 94 90 90 87 87 87 84 74 84 84 87 87 87 87 87 77 71 65 58 55 58 48 35 35 39 42 19 23 26 16 19 19 26 23
74 87 94 94 94 97 97 94 90 84 84 90 87 94 94 77 77 81 84 84 84 81 84 77 74 65 61 52 55 61 52 48 32 26 35 29 19 23 19 10 13 23 16
74 81 94 97 97 97 97 97 94 90 87 90 90 94 94 87 84 77 81 84 84 81 74 74 65 65 71 61 58 58 52 45 35 29 16 23 23 16 19 16 13 13 16
74 74 94 97 97 97 94 94 90 87 84 87 87 87 81 84 84 81 81 84 81 71 68 71 68 65 61 61 58 52 52 52 52 39 23 19 10 16 19 19 13 16 13

GEFSSE_con_cape1000_228.txt.gz
Probability
35 55 77 77 74 71 77 87 84 84 81 81 81 74 71 68 71 81 71 74 68 74 74 61 61 68 68 74 74 65 61 58 61 58 55 55 52 61 65 52 58 45 65
42 58 77 81 77 81 87 87 87 87 84 81 77 81 74 74 74 81 77 84 74 81 84 77 68 71 65 68 68 61 58 61 68 48 45 52 52 61 68 58 52 45 55
55 55 74 84 87 87 87 90 84 81 81 81 84 81 77 90 77 74 74 84 81 77 87 74 68 65 55 68 61 58 58 65 71 58 39 16 45 68 77 71 65 65 55
39 42 68 87 90 90 87 87 81 77 74 74 81 77 84 87 84 81 77 77 84 71 74 68 71 65 55 55 55 52 58 58 65 35 10 16 23 68 77 71 68 58 52
39 55 74 87 90 90 87 90 87 71 68 68 74 77 81 90 87 71 74 71 74 77 71 71 71 65 58 52 52 45 45 45 45 16 3 6 19 71 71 58 58 48 45
52 65 77 90 90 90 90 84 81 74 68 71 77 81 84 81 74 77 74 74 71 74 71 58 61 61 55 52 52 45 58 58 16 0 0 13 19 71 55 52 52 45 39
48 55 74 84 90 84 87 81 77 77 74 74 77 74 74 68 74 68 71 74 74 71 58 58 55 55 48 48 52 45 55 42 10 3 0 6 23 68 52 52 48 45 48
42 55 68 84 90 81 81 84 81 77 84 71 68 74 68 71 77 81 71 68 61 55 52 48 45 42 39 39 45 55 65 35 6 3 3 3 52 71 48 42 39 45 42
42 55 65 68 71 74 77 81 77 77 74 77 68 71 68 65 65 65 61 68 58 45 42 42 39 26 26 32 39 52 68 39 0 0 3 10 65 68 52 52 42 45 35
26 39 45 45 52 61 65 77 74 84 74 74 71 71 68 55 52 55 68 61 52 42 35 32 32 32 35 45 52 52 52 16 6 6 3 10 65 55 48 39 42 35 39
19 19 29 32 29 29 45 68 61 68 68 65 48 65 45 13 16 26 39 52 48 48 29 35 32 35 39 42 45 48 29 10 3 0 0 26 58 48 42 42 29 26 16
6 13 19 29 19 19 32 32 26 29 32 19 13 13 10 6 6 16 45 55 52 48 39 42 48 35 19 6 13 16 6 3 0 0 3 45 61 42 42 42 26 26 26
13 16 19 26 19 16 19 16 13 13 13 10 16 13 10 6 6 13 10 23 23 23 10 19 16 10 3 3 0 3 3 3 3 3 3 58 68 55 45 39 32 26 26
6 16 16 16 13 13 16 13 10 10 10 6 19 13 10 10 0 3 0 3 0 0 0 0 6 6 3 3 3 3 3 3 0 3 6 52 68 61 52 45 39 35 29
10 19 19 16 6 13 13 13 10 13 13 10 10 10 10 10 6 3 3 0 0 0 0 3 0 0 0 3 3 0 3 3 0 3 6 52 68 68 52 52 48 35 32
23 19 19 19 23 19 13 6 16 6 10 13 10 10 13 13 10 6 3 0 0 0 3 0 0 0 0 0 0 3 0 0 0 3 6 23 68 71 68 58 58 48 45
16 19 16 23 16 13 16 13 16 19 13 6 6 13 19 10 6 3 3 0 0 3 0 0 0 0 0 0 0 0 0 3 3 3 3 3 16 58 74 71 71 58 48
16 19 19 29 19 16 13 19 13 16 16 10 16 13 16 13 0 3 3 3 3 0 0 0 0 0 3 3 0 0 3 0 0 0 3 3 3 3 19 39 52 58 35
16 16 16 19 23 16 26 23 23 13 16 19 13 13 16 13 10 3 6 3 3 0 0 6 0 3 3 0 0 0 0 3 6 6 0 0 3 6 3 3 42 42 32
19 19 19 26 23 19 26 26 23 16 13 16 19 10 13 13 19 3 0 3 3 0 0 3 0 0 0 0 0 0 0 0 0 0 3 0 0 0 3 3 10 19 39
32 19 19 32 29 26 32 29 23 16 16 13 13 10 10 19 19 13 6 6 3 3 3 6 3 0 0 0 0 0 0 0 0 0 0 0 0 0 0 0 3 3 3
32 23 26 39 32 29 29 29 26 19 23 23 16 19 10 23 19 23 6 6 10 6 3 6 6 6 3 3 3 0 0 0 0 0 3 0 0 0 0 0 0 0 0
39 39 39 39 42 39 32 48 45 35 32 29 19 19 23 23 19 23 16 16 13 13 13 10 13 6 10 3 0 3 0 0 0 0 0 0 0 0 0 0 0 0 0
45 42 48 48 52 55 42 45 45 32 23 26 29 23 29 29 26 23 19 16 19 19 16 19 13 10 13 13 6 3 3 0 3 3 0 0 0 0 0 0 0 0 0
48 48 48 48 55 58 58 42 42 39 35 26 32 39 39 29 29 32 32 26 23 16 19 23 16 13 13 13 10 6 6 3 3 3 3 0 0 3 3 0 0 0 0
55 58 55 52 55 55 55 52 48 48 48 39 32 35 39 23 23 32 26 19 16 19 19 23 16 13 13 13 13 6 6 6 6 3 3 3 3 3 3 3 3 3 0

GEFSSE_con_cape1000_234.txt.gz
Probability
13 39 52 58 65 68 77 74 77 74 71 74 74 71 65 61 58 61 65 68 61 65 58 65 61 58 58 58 58 58 55 52 61 55 45 55 58 55 58 61 52 39 52
23 42 58 61 71 77 77 77 87 84 84 68 71 71 61 65 61 58 61 61 68 74 74 61 68 61 65 52 58 61 61 61 55 55 48 45 58 55 61 45 39 45 58
29 45 55 65 74 74 81 87 90 90 87 84 71 71 65 61 68 68 74 74 71 81 77 77 68 58 52 52 48 52 65 65 68 52 39 26 45 52 65 65 61 58 52
32 39 52 74 84 74 77 81 90 84 74 81 68 65 58 58 65 74 77 84 77 77 77 61 52 48 42 52 52 58 65 65 61 39 13 19 39 58 68 68 61 52 52
29 39 58 81 84 81 77 77 87 87 74 74 77 74 71 58 68 71 71 77 81 71 68 65 55 52 45 45 48 55 48 45 45 10 10 10 26 71 61 58 48 48 48
26 42 58 77 81 74 77 77 81 74 71 84 84 71 71 71 71 74 71 74 71 71 71 71 55 55 48 52 58 58 55 52 13 10 10 6 23 65 55 45 45 42 45
29 45 61 71 81 74 74 77 77 77 74 84 84 68 71 65 71 68 65 71 71 68 65 65 55 52 48 45 55 61 58 32 3 6 3 10 39 68 48 42 42 45 42
32 45 58 68 77 74 77 77 77 74 77 77 81 77 71 71 68 68 68 71 61 61 58 58 58 52 42 55 61 68 55 19 10 6 3 10 55 68 42 35 35 29 26
39 45 52 55 52 65 74 84 74 77 77 74 71 68 74 68 68 65 65 61 52 52 42 32 32 42 45 45 58 58 42 23 6 3 3 6 45 48 39 39 26 26 23
26 42 39 39 39 39 52 68 65 68 77 68 58 58 65 52 45 48 58 52 42 42 39 32 29 42 42 58 61 58 35 19 3 3 6 16 35 42 32 39 32 26 26
10 13 26 35 29 29 32 45 42 52 61 39 32 55 29 3 10 16 29 52 39 35 39 52 45 29 35 35 45 48 26 6 6 6 10 16 45 48 45 48 42 35 23
10 10 10 23 29 26 32 23 19 29 26 13 13 13 6 3 10 10 32 32 39 39 39 45 48 39 23 16 19 19 10 3 0 6 6 26 45 48 42 48 48 32 29
3 6 10 10 10 13 13 16 13 16 13 10 13 3 0 0 6 6 10 10 13 13 6 10 13 10 6 6 6 6 6 6 3 0 3 26 45 48 39 45 42 32 16
3 3 6 10 10 6 0 13 6 6 0 3 3 3 0 0 0 0 0 0 0 0 3 0 0 0 0 10 6 6 6 6 6 3 0 29 55 52 35 39 45 39 39
3 6 3 3 6 3 0 0 10 6 3 0 3 3 0 0 0 3 0 0 0 0 0 0 0 0 0 3 3 6 6 6 3 3 3 23 48 52 42 39 42 39 35
0 0 3 3 3 0 0 0 3 6 3 0 0 0 3 0 0 3 0 0 0 0 0 0 0 0 3 6 3 3 6 3 3 3 3 16 26 52 48 45 42 45 45
0 0 3 0 3 0 0 3 3 3 3 3 3 0 3 0 0 0 0 0 0 0 0 0 0 0 3 0 0 0 3 6 3 3 3 10 13 35 45 48 39 32 39
0 0 6 13 6 6 6 6 3 0 3 6 3 6 0 6 0 0 0 0 0 0 0 0 0 0 0 0 0 0 0 10 3 3 3 3 10 16 23 32 42 35 19
0 6 6 6 6 10 10 6 10 6 3 6 3 0 0 6 3 0 0 0 0 0 0 0 0 0 0 0 0 0 0 0 0 0 3 3 3 3 6 10 23 29 23
6 6 3 3 3 3 10 10 6 6 10 6 3 0 3 3 3 0 0 0 0 0 0 0 0 0 0 0 0 0 0 0 0 0 0 3 6 3 6 3 6 13 16
6 3 3 3 3 3 3 10 13 10 3 3 0 3 3 3 3 0 3 0 0 0 0 0 0 0 0 0 0 3 0 0 0 0 3 3 0 0 6 3 3 3 10
3 3 6 3 3 3 3 3 10 10 6 6 6 3 6 6 6 13 0 0 0 0 3 0 0 0 3 3 3 6 0 0 0 0 0 0 0 0 0 0 0 3 3
6 10 13 13 10 6 3 3 10 6 10 6 6 6 6 6 3 10 6 0 0 0 0 0 6 3 3 3 3 3 3 3 0 3 0 0 3 0 0 0 0 0 0
6 6 13 13 6 6 6 6 6 6 10 10 6 6 6 6 13 13 10 6 10 6 6 3 13 3 6 13 3 3 3 3 3 3 3 3 3 3 3 0 3 0 0
16 16 10 10 13 10 10 6 6 13 6 6 6 6 10 16 16 26 23 16 13 10 10 10 13 13 10 13 13 6 3 3 3 3 3 3 3 3 3 3 3 0 0
13 6 13 10 10 10 10 13 13 13 10 6 10 6 13 13 13 19 26 16 10 10 10 13 13 13 13 13 13 13 10 10 6 3 3 6 6 6 3 3 3 3 0